[[{"header":{"parameterUnit":"m.s-1","parameterCategory":1,"la1":30.6,"la2":29.2853,"lo1":-89.7004,"lo2":-87.6739,"dy":0.0162,"dx":0.0183,"nx":112,"ny":82,"refTime":"2026-04-21T00:00:00:Z","depth":0,"parameterNumber":2,"parameterNumberName":"U-component_of_WINDS"},"data":[0.0,0.0,0.0,0.0,0.0,0.0,0.0,0.0,0.0,0.0,0.0,0.0,0.0,0.0,0.0,0.0,0.0,0.0,0.0,0.0,0.0,0.0,0.0,0.0,0.0,0.0,0.0,0.0,0.0,0.0,0.0,0.0,0.0,0.0,0.0,0.0,0.0,0.0,0.0,0.0,0.0,0.0,0.0,0.0,0.0,0.0,0.0,0.0,0.0,0.0,0.0,0.0,0.0,0.0,0.0,0.0,0.0,0.0,0.0,0.0,0.0,0.0,0.0,0.0,0.0,0.0,0.0,0.0,0.0,0.0,0.0,0.0,0.0,0.0,0.0,0.0,0.0,0.0,0.0,0.0,0.0,0.0,0.0,0.0,0.0,0.0,0.0,0.0,0.0,0.0,0.0,-3.1942,-3.586,-3.7359,-3.5286,-3.4306,-3.2835,-3.0549,0.0,0.0,0.0,0.0,0.0,0.0,0.0,0.0,0.0,0.0,0.0,0.0,0.0,0.0,0.0,0.0,0.0,0.0,0.0,0.0,0.0,0.0,0.0,0.0,0.0,0.0,0.0,0.0,0.0,0.0,0.0,0.0,0.0,0.0,0.0,0.0,0.0,0.0,0.0,0.0,0.0,0.0,0.0,0.0,0.0,0.0,0.0,0.0,0.0,0.0,0.0,0.0,0.0,0.0,0.0,0.0,0.0,0.0,0.0,0.0,0.0,0.0,0.0,0.0,0.0,0.0,0.0,0.0,0.0,0.0,0.0,0.0,0.0,0.0,0.0,0.0,0.0,0.0,0.0,0.0,0.0,0.0,0.0,0.0,0.0,0.0,0.0,0.0,0.0,0.0,0.0,0.0,0.0,0.0,0.0,0.0,0.0,0.0,0.0,0.0,0.0,0.0,0.0,0.0,-2.9187,-3.5943,-3.9205,-4.0319,-3.8846,-3.6853,-3.468,-3.2357,0.0,0.0,0.0,0.0,0.0,0.0,0.0,0.0,0.0,0.0,0.0,0.0,0.0,0.0,0.0,0.0,0.0,0.0,0.0,0.0,0.0,0.0,0.0,0.0,0.0,0.0,0.0,0.0,0.0,0.0,0.0,0.0,0.0,0.0,0.0,0.0,0.0,0.0,0.0,0.0,0.0,0.0,0.0,0.0,0.0,0.0,0.0,0.0,0.0,0.0,0.0,0.0,0.0,0.0,0.0,0.0,0.0,0.0,0.0,0.0,0.0,0.0,0.0,0.0,0.0,0.0,0.0,0.0,0.0,0.0,0.0,0.0,0.0,0.0,0.0,0.0,0.0,0.0,0.0,0.0,0.0,0.0,0.0,0.0,0.0,0.0,0.0,0.0,0.0,0.0,0.0,0.0,0.0,0.0,0.0,0.0,0.0,0.0,0.0,0.0,0.0,0.0,0.0,-2.9953,-3.4007,-3.7893,-4.0607,-4.1254,-3.9039,-3.7155,-3.4898,-3.2075,-2.7708,0.0,0.0,0.0,0.0,0.0,0.0,0.0,0.0,0.0,0.0,0.0,0.0,0.0,0.0,0.0,0.0,0.0,0.0,0.0,0.0,0.0,0.0,0.0,0.0,0.0,0.0,0.0,0.0,0.0,0.0,0.0,0.0,0.0,0.0,0.0,0.0,0.0,0.0,0.0,0.0,0.0,0.0,0.0,0.0,0.0,0.0,0.0,0.0,0.0,0.0,0.0,0.0,0.0,0.0,0.0,0.0,0.0,0.0,0.0,0.0,0.0,0.0,0.0,0.0,0.0,0.0,0.0,0.0,0.0,0.0,0.0,0.0,0.0,0.0,0.0,0.0,0.0,0.0,0.0,0.0,0.0,0.0,0.0,0.0,0.0,0.0,0.0,0.0,0.0,0.0,0.0,0.0,0.0,0.0,0.0,0.0,0.0,0.0,0.0,0.0,0.0,0.0,-3.4908,-3.8493,-3.9604,-4.1684,-4.188,-3.9064,-3.7122,-3.4699,-3.1475,-2.7256,0.0,0.0,0.0,0.0,0.0,0.0,0.0,0.0,0.0,0.0,0.0,0.0,0.0,0.0,0.0,0.0,0.0,0.0,0.0,0.0,0.0,0.0,0.0,0.0,0.0,0.0,0.0,0.0,0.0,0.0,0.0,0.0,0.0,0.0,0.0,0.0,0.0,0.0,0.0,0.0,0.0,0.0,0.0,0.0,0.0,0.0,0.0,0.0,0.0,0.0,0.0,0.0,0.0,0.0,0.0,0.0,0.0,0.0,0.0,0.0,0.0,0.0,0.0,0.0,0.0,0.0,0.0,0.0,0.0,0.0,0.0,0.0,0.0,0.0,0.0,0.0,0.0,0.0,0.0,0.0,0.0,0.0,0.0,0.0,0.0,0.0,0.0,0.0,0.0,0.0,0.0,0.0,0.0,0.0,0.0,0.0,0.0,0.0,0.0,0.0,0.0,0.0,-3.6229,-4.0352,-4.1977,-4.3198,-4.2936,-4.056,-3.7687,-3.4642,-3.1406,-2.6676,0.0,0.0,0.0,0.0,0.0,0.0,0.0,0.0,0.0,0.0,0.0,0.0,0.0,0.0,0.0,0.0,0.0,0.0,0.0,0.0,0.0,0.0,0.0,0.0,0.0,0.0,0.0,0.0,0.0,0.0,0.0,0.0,0.0,0.0,0.0,0.0,0.0,0.0,0.0,0.0,0.0,0.0,0.0,0.0,0.0,0.0,0.0,0.0,0.0,0.0,0.0,0.0,0.0,0.0,0.0,0.0,0.0,0.0,0.0,0.0,0.0,0.0,0.0,0.0,0.0,0.0,0.0,0.0,0.0,0.0,0.0,0.0,0.0,0.0,0.0,0.0,0.0,0.0,0.0,0.0,0.0,0.0,0.0,0.0,0.0,0.0,0.0,0.0,0.0,0.0,0.0,0.0,0.0,0.0,0.0,0.0,0.0,0.0,0.0,0.0,0.0,0.0,-3.6757,-4.0646,0.0,-4.3426,-4.2888,-4.0111,-3.795,-3.4973,-3.0782,0.0,0.0,0.0,0.0,0.0,0.0,0.0,0.0,0.0,0.0,0.0,0.0,0.0,0.0,0.0,0.0,0.0,0.0,0.0,0.0,0.0,0.0,0.0,0.0,0.0,0.0,0.0,0.0,0.0,0.0,0.0,0.0,0.0,0.0,0.0,0.0,0.0,0.0,0.0,0.0,0.0,0.0,0.0,0.0,0.0,0.0,0.0,0.0,0.0,0.0,0.0,0.0,0.0,0.0,0.0,0.0,0.0,0.0,0.0,0.0,0.0,0.0,0.0,0.0,0.0,0.0,0.0,0.0,0.0,0.0,0.0,0.0,0.0,0.0,0.0,0.0,0.0,0.0,0.0,0.0,0.0,0.0,0.0,0.0,0.0,0.0,0.0,0.0,0.0,0.0,0.0,0.0,0.0,0.0,0.0,0.0,0.0,0.0,0.0,0.0,0.0,0.0,-3.2723,-3.7456,-4.1166,0.0,-4.3729,-4.2978,-4.0146,-3.8278,-3.5171,-3.0345,0.0,0.0,0.0,0.0,0.0,0.0,0.0,0.0,0.0,0.0,0.0,0.0,0.0,0.0,0.0,0.0,0.0,0.0,0.0,0.0,0.0,0.0,0.0,0.0,0.0,0.0,0.0,0.0,0.0,0.0,0.0,0.0,0.0,0.0,0.0,0.0,0.0,0.0,0.0,0.0,0.0,0.0,0.0,0.0,0.0,0.0,0.0,0.0,0.0,0.0,0.0,0.0,0.0,0.0,0.0,0.0,0.0,0.0,0.0,0.0,0.0,0.0,0.0,0.0,0.0,0.0,0.0,0.0,0.0,0.0,0.0,0.0,0.0,0.0,0.0,0.0,0.0,0.0,0.0,0.0,0.0,0.0,0.0,0.0,0.0,0.0,0.0,0.0,0.0,0.0,0.0,0.0,0.0,0.0,0.0,0.0,0.0,0.0,0.0,0.0,0.0,0.0,-3.3491,-3.8391,-4.2173,-4.3923,-4.4275,-4.3429,-4.1011,-3.8659,-3.5191,0.0,0.0,0.0,0.0,0.0,0.0,0.0,0.0,0.0,0.0,0.0,0.0,0.0,0.0,0.0,0.0,0.0,0.0,0.0,0.0,0.0,0.0,0.0,0.0,0.0,0.0,0.0,0.0,0.0,0.0,0.0,0.0,0.0,0.0,0.0,0.0,0.0,0.0,0.0,0.0,0.0,0.0,0.0,0.0,0.0,0.0,0.0,0.0,0.0,0.0,0.0,0.0,0.0,0.0,0.0,0.0,0.0,0.0,0.0,0.0,0.0,0.0,0.0,0.0,0.0,0.0,0.0,0.0,0.0,0.0,0.0,0.0,0.0,0.0,0.0,0.0,0.0,0.0,0.0,0.0,0.0,0.0,0.0,0.0,0.0,0.0,0.0,0.0,0.0,0.0,0.0,0.0,0.0,0.0,0.0,0.0,0.0,0.0,0.0,0.0,0.0,0.0,0.0,-3.4293,-3.8766,-4.2199,-4.4035,-4.4378,-4.3498,-4.1139,-3.9307,-3.6188,-3.1275,0.0,0.0,0.0,0.0,0.0,0.0,0.0,0.0,0.0,0.0,0.0,0.0,0.0,0.0,0.0,0.0,0.0,0.0,0.0,0.0,0.0,0.0,0.0,0.0,0.0,0.0,0.0,0.0,0.0,0.0,0.0,0.0,0.0,0.0,0.0,0.0,0.0,0.0,0.0,0.0,0.0,0.0,0.0,0.0,0.0,0.0,0.0,0.0,0.0,0.0,0.0,0.0,0.0,0.0,0.0,0.0,0.0,0.0,0.0,0.0,0.0,0.0,0.0,0.0,0.0,0.0,0.0,0.0,0.0,0.0,0.0,0.0,0.0,0.0,0.0,0.0,0.0,0.0,0.0,0.0,0.0,0.0,0.0,0.0,0.0,0.0,0.0,0.0,0.0,0.0,0.0,0.0,0.0,0.0,0.0,0.0,0.0,0.0,0.0,0.0,0.0,0.0,-3.4594,-3.8915,-4.2214,-4.4065,-4.4472,-4.3787,-4.1779,-4.0214,-3.7357,-3.2718,0.0,0.0,0.0,0.0,0.0,0.0,0.0,0.0,0.0,0.0,0.0,0.0,0.0,0.0,0.0,0.0,0.0,0.0,0.0,0.0,0.0,0.0,0.0,0.0,0.0,0.0,0.0,0.0,0.0,0.0,0.0,0.0,0.0,0.0,0.0,0.0,0.0,0.0,0.0,0.0,0.0,0.0,0.0,0.0,0.0,0.0,0.0,0.0,0.0,0.0,0.0,0.0,0.0,0.0,0.0,0.0,0.0,0.0,0.0,0.0,0.0,0.0,0.0,0.0,0.0,0.0,0.0,0.0,0.0,0.0,0.0,0.0,0.0,0.0,0.0,0.0,0.0,0.0,0.0,0.0,0.0,0.0,0.0,0.0,0.0,0.0,0.0,0.0,0.0,0.0,0.0,0.0,0.0,0.0,0.0,0.0,0.0,0.0,0.0,0.0,0.0,0.0,-3.4584,-3.8947,-4.2217,-4.4038,-4.4578,-4.4187,-4.2633,-4.1138,-3.8495,-3.4281,0.0,0.0,0.0,0.0,0.0,0.0,0.0,0.0,0.0,0.0,0.0,0.0,0.0,0.0,0.0,0.0,0.0,0.0,0.0,0.0,0.0,0.0,0.0,0.0,0.0,0.0,0.0,0.0,0.0,0.0,0.0,0.0,0.0,0.0,0.0,0.0,0.0,0.0,0.0,0.0,0.0,0.0,0.0,0.0,0.0,0.0,0.0,0.0,0.0,0.0,0.0,0.0,0.0,0.0,0.0,0.0,0.0,0.0,0.0,0.0,-2.6885,0.0,0.0,0.0,0.0,0.0,0.0,0.0,0.0,0.0,0.0,0.0,0.0,0.0,0.0,0.0,0.0,0.0,0.0,0.0,0.0,0.0,0.0,0.0,0.0,0.0,0.0,0.0,0.0,0.0,0.0,0.0,0.0,0.0,0.0,0.0,0.0,0.0,0.0,0.0,0.0,0.0,-3.556,-3.9379,-4.2302,-4.4224,-4.4648,-4.4189,-4.2718,-4.1187,-3.8495,-3.4281,-3.0519,0.0,0.0,0.0,0.0,0.0,0.0,0.0,0.0,0.0,0.0,0.0,0.0,0.0,0.0,0.0,0.0,0.0,0.0,0.0,0.0,0.0,0.0,0.0,0.0,0.0,0.0,0.0,0.0,0.0,0.0,0.0,0.0,0.0,0.0,0.0,0.0,0.0,0.0,0.0,0.0,0.0,0.0,0.0,0.0,0.0,0.0,0.0,0.0,0.0,0.0,0.0,0.0,0.0,0.0,0.0,0.0,0.0,0.0,0.0,0.0,-2.9224,0.0,0.0,0.0,0.0,0.0,0.0,0.0,0.0,0.0,0.0,0.0,0.0,0.0,0.0,0.0,0.0,0.0,0.0,0.0,0.0,0.0,0.0,0.0,0.0,0.0,0.0,0.0,0.0,0.0,0.0,0.0,0.0,0.0,0.0,0.0,0.0,0.0,0.0,0.0,0.0,-3.6056,-3.9682,-4.245,-4.4298,-4.4681,-4.4364,-4.3209,-4.174,-3.9412,-3.5993,-3.2244,0.0,0.0,0.0,0.0,0.0,0.0,0.0,0.0,0.0,0.0,0.0,0.0,0.0,0.0,0.0,0.0,0.0,0.0,0.0,0.0,0.0,0.0,0.0,0.0,0.0,0.0,0.0,0.0,0.0,0.0,0.0,0.0,0.0,0.0,0.0,0.0,0.0,0.0,0.0,0.0,0.0,0.0,0.0,0.0,0.0,0.0,0.0,0.0,0.0,0.0,0.0,0.0,0.0,-3.7534,-3.8014,-3.8801,-3.8954,-3.9489,-4.0119,-3.6615,-3.4224,-3.2794,0.0,0.0,0.0,0.0,0.0,0.0,0.0,0.0,0.0,0.0,0.0,0.0,0.0,0.0,0.0,0.0,0.0,0.0,0.0,0.0,0.0,0.0,0.0,0.0,0.0,-3.498,-3.4101,0.0,0.0,0.0,0.0,0.0,0.0,0.0,0.0,0.0,0.0,0.0,0.0,-3.6325,-3.9914,-4.2622,-4.4376,-4.4733,-4.4476,-4.3608,-4.2274,-4.0348,-3.7655,-3.3815,-3.0586,0.0,0.0,0.0,0.0,0.0,0.0,0.0,0.0,0.0,0.0,0.0,0.0,0.0,0.0,0.0,0.0,0.0,0.0,0.0,0.0,0.0,0.0,0.0,0.0,0.0,0.0,0.0,0.0,0.0,0.0,0.0,0.0,-2.0873,-2.1855,0.0,0.0,0.0,0.0,0.0,0.0,0.0,0.0,0.0,0.0,0.0,0.0,0.0,-3.5538,-3.8068,-3.911,-4.005,-4.0855,-4.1619,-4.2393,-4.3204,-4.394,-4.4743,-4.5488,-4.4914,0.0,-3.7941,-3.7196,0.0,0.0,0.0,0.0,0.0,0.0,0.0,0.0,0.0,0.0,0.0,0.0,0.0,0.0,0.0,0.0,0.0,0.0,0.0,0.0,0.0,0.0,-3.8056,-3.8285,-3.8916,-3.9098,0.0,-3.5305,-3.2565,-3.0016,-2.8784,0.0,0.0,0.0,0.0,0.0,0.0,0.0,-3.6616,-4.0085,-4.285,-4.4656,-4.4912,-4.4399,-4.2938,-4.2009,-4.01,-3.6863,-3.4106,-3.1788,-2.9944,-2.6643,0.0,0.0,0.0,0.0,0.0,0.0,0.0,0.0,0.0,0.0,0.0,0.0,0.0,0.0,0.0,0.0,0.0,0.0,0.0,0.0,0.0,0.0,0.0,0.0,0.0,0.0,0.0,0.0,0.0,-2.2374,-2.487,-2.4274,-2.4736,-2.4524,0.0,0.0,0.0,0.0,0.0,0.0,0.0,0.0,0.0,-3.7625,-3.938,-4.1447,-4.3962,-4.527,-4.6339,-4.7188,-4.7562,-4.8173,-4.8965,-4.9328,-4.971,-5.0034,-5.0034,-4.8525,-4.5793,-4.2087,-3.9374,-3.733,0.0,0.0,0.0,0.0,-3.519,-3.5706,-3.7063,-3.6967,0.0,-3.5144,0.0,0.0,0.0,0.0,0.0,0.0,0.0,0.0,0.0,0.0,0.0,-4.0406,-4.1074,-4.1609,-4.1227,-3.9603,-3.7177,0.0,-3.2687,-3.1558,-2.89,0.0,0.0,0.0,0.0,-3.402,-3.7728,-4.1149,-4.3528,-4.4314,-4.4413,-4.398,-4.2849,-4.1982,-4.0673,-3.8754,-3.6269,-3.3888,-3.1694,-2.8816,-2.6032,0.0,0.0,0.0,0.0,0.0,0.0,0.0,0.0,0.0,0.0,0.0,0.0,0.0,0.0,0.0,0.0,0.0,0.0,0.0,0.0,0.0,0.0,0.0,0.0,0.0,0.0,0.0,0.0,-2.5736,-2.8294,-2.7654,-2.8717,-2.8761,0.0,0.0,0.0,0.0,0.0,0.0,-3.5592,-3.7274,-3.9606,-4.2709,-4.4478,-4.6475,-4.8785,-5.0206,-5.1276,-5.1907,-5.2136,-5.2556,-5.3129,-5.3359,-5.3473,-5.3473,-5.3473,-5.2996,-5.1849,-4.6806,-4.373,-4.2001,-3.9881,-3.9298,-3.9661,-3.9871,-3.9947,-4.0177,-4.1676,-4.1638,-4.0711,-3.9461,0.0,-3.7417,-3.5526,0.0,0.0,0.0,0.0,-3.8295,-3.9107,-4.1036,-4.2775,-4.2775,-4.3443,-4.3959,-4.352,-4.2928,-4.1285,0.0,-3.6146,-3.498,-3.2286,0.0,0.0,0.0,0.0,-3.6012,-3.8954,-4.2058,-4.4006,-4.4006,-4.4006,-4.3586,-4.2545,-4.1858,-4.096,-3.9718,-3.7665,-3.5354,-3.2814,-3.0464,-2.7867,-2.4925,0.0,0.0,0.0,0.0,0.0,0.0,0.0,0.0,0.0,0.0,0.0,0.0,0.0,0.0,0.0,0.0,0.0,0.0,0.0,0.0,0.0,0.0,0.0,0.0,0.0,0.0,0.0,0.0,0.0,-3.3474,-3.384,0.0,0.0,0.0,0.0,-3.4836,-3.6596,-3.8301,-3.9887,-4.1581,-4.3665,-4.6249,-4.7966,-4.9706,-5.148,-5.2275,-5.269,-5.2747,-5.3569,-5.4008,-5.4065,-5.4887,-5.5269,-5.5269,-5.5269,-5.4791,-5.376,-5.1047,-4.8945,-4.733,-4.6366,-4.5545,-4.501,-4.5774,-4.6061,-4.6194,-4.7101,-4.6852,-4.6118,-4.6023,-4.3845,-4.1208,-4.1094,-3.9947,0.0,0.0,-4.1781,-4.2679,-4.3472,-4.4961,-4.6252,-4.6252,-4.691,-4.7111,-4.5507,-4.5154,-4.4093,0.0,-3.8706,-3.7273,-3.6347,0.0,-3.3968,-3.4827,-3.6413,-3.8171,-3.9995,-4.244,-4.4006,-4.4006,-4.4006,-4.3338,-4.1705,-4.1533,-4.0444,-3.798,-3.6978,-3.5354,-3.2814,-3.1045,-2.9306,-2.7549,-2.5002,0.0,0.0,0.0,0.0,0.0,0.0,0.0,0.0,0.0,0.0,0.0,0.0,0.0,0.0,0.0,0.0,0.0,0.0,0.0,0.0,0.0,0.0,0.0,0.0,0.0,0.0,0.0,0.0,-3.6411,-3.7611,0.0,-3.8193,-3.7913,-3.8637,-4.0827,-4.2545,-4.4451,-4.6689,-4.7892,-4.943,-5.1369,-5.2014,-5.2893,-5.4071,-5.4861,-5.5263,-5.525,-5.6129,-5.6549,-5.6568,-5.6874,-5.7008,-5.7008,-5.7008,-5.6511,-5.5632,-5.4734,-5.2728,-5.0099,-4.8716,-4.8315,-4.8487,-4.8258,-4.8506,-4.8926,-4.8716,-4.843,-4.799,-4.6863,-4.5335,-4.395,-4.395,-4.352,-4.3176,-4.3768,-4.4532,-4.5258,-4.5526,-4.647,-4.733,-4.733,-4.7559,-4.7483,-4.6328,-4.566,-4.4781,-4.3013,-4.1762,-4.0711,-3.9852,-3.8801,-3.8151,-3.8429,-3.9431,-4.0559,-4.1762,-4.3615,-4.4418,-4.3348,-4.3233,-4.2545,-4.0864,-4.0731,-4.01,-3.8629,-3.775,-3.6146,-3.3643,-3.242,-3.0751,-2.8516,-2.6517,-2.4683,0.0,0.0,0.0,0.0,0.0,0.0,0.0,0.0,0.0,0.0,0.0,0.0,0.0,0.0,0.0,0.0,0.0,0.0,0.0,0.0,0.0,0.0,0.0,0.0,0.0,0.0,-3.7815,-3.9527,-4.1208,-4.2184,-4.2125,-4.2136,-4.2935,-4.4806,-4.6788,-4.8509,-4.9881,-5.1297,-5.2554,-5.3626,-5.3951,-5.4658,-5.5785,-5.632,-5.6753,-5.7046,-5.7619,-5.7905,-5.7905,-5.7905,-5.7905,-5.7905,-5.7905,-5.7409,-5.6587,-5.6587,-5.5135,-5.2766,-5.1658,-5.1544,-5.1964,-5.141,-5.1372,-5.1467,-5.0627,-5.0352,-5.0161,-4.9003,-4.8258,-4.778,-4.7513,-4.7436,-4.736,-4.7073,-4.7379,-4.778,-4.778,-4.822,-4.8629,-4.8629,-4.8629,-4.8334,-4.7188,-4.6519,-4.5812,-4.4666,-4.3558,-4.2622,-4.203,-4.1495,-4.1141,-4.1141,-4.1839,-4.2545,-4.3138,-4.4437,-4.4762,-4.3348,-4.2966,-4.224,-4.0826,-4.0454,-3.9804,-3.8648,-3.7769,-3.6165,-3.3662,-3.2737,-3.1362,-2.9376,-2.7396,-2.5581,-2.3894,0.0,0.0,0.0,0.0,0.0,0.0,0.0,0.0,0.0,0.0,0.0,0.0,0.0,0.0,0.0,0.0,0.0,0.0,0.0,0.0,0.0,0.0,0.0,-3.2833,-3.7399,-4.1266,-4.3085,-4.4739,-4.5741,-4.5697,-4.5771,-4.6061,-4.671,-4.9097,-5.0147,-4.9263,-5.1486,-5.2805,-5.2805,-5.3664,-5.4925,-5.6549,-5.6625,-5.7103,-5.7944,-5.7963,-5.7982,-5.7982,-5.7982,-5.7982,-5.7982,-5.7982,-5.7485,-5.6683,-5.6683,-5.6205,-5.5479,-5.5422,-5.5403,-5.5403,-5.5403,-5.4849,-5.397,-5.3129,-5.2824,-5.2805,-5.2805,-5.2805,-5.2652,-5.1849,-5.1589,-5.1417,-5.055,-5.0302,-5.0302,-5.0302,-5.0302,-5.0302,-5.0302,-5.0302,-4.9843,-4.8151,-4.7788,-4.7302,-4.5621,-4.3978,-4.2889,-4.2889,-4.2889,-4.2889,-4.2889,-4.3529,0.0,-4.4045,-4.4781,-4.4972,-4.4083,-4.331,-4.2469,-4.1571,-4.0769,-3.9546,-3.7769,-3.691,-3.5335,-3.2795,-3.1954,-3.1121,-3.023,-2.772,-2.5619,-2.3932,0.0,0.0,0.0,0.0,0.0,0.0,0.0,0.0,0.0,0.0,0.0,0.0,0.0,0.0,0.0,0.0,0.0,0.0,0.0,0.0,0.0,0.0,-3.5346,-3.6449,-3.9931,-4.3701,-4.724,-4.8625,-4.949,-5.0027,-5.0083,-5.0146,-5.029,-5.0914,-5.1445,-5.1766,-5.2422,-5.2805,-5.2805,-5.4256,-5.5269,-5.5728,-5.7504,-5.8536,-5.8784,-5.9415,-5.9701,-5.9701,-5.9701,-5.9701,-5.9701,-5.9701,-5.9224,-5.8421,-5.8421,-5.7944,-5.7084,-5.588,-5.5403,-5.5403,-5.5403,-5.4849,-5.4065,-5.3836,-5.332,-5.2805,-5.2805,-5.2805,-5.2652,-5.1849,-5.1589,-5.1417,-5.055,-5.0302,-5.0302,-5.0302,-5.0302,-5.0302,-5.0302,-5.0302,-4.9843,-4.8151,-4.7788,-4.7302,-4.5621,-4.4934,-4.4609,-4.4609,-4.4609,-4.4609,-4.4609,-4.48,0.0,-4.4934,-4.5144,-4.4972,-4.4083,-4.3796,-4.308,-4.1609,-4.0769,-3.9308,-3.6978,-3.6023,-3.4705,-3.2776,-3.2489,-3.1687,-3.023,-2.8313,-2.6517,0.0,0.0,0.0,0.0,0.0,0.0,0.0,0.0,0.0,0.0,0.0,0.0,0.0,0.0,0.0,0.0,0.0,0.0,0.0,0.0,0.0,0.0,-3.6077,-3.9392,-4.095,-4.3201,-4.6009,-4.9529,-5.0683,-5.1355,-5.1766,-5.1811,-5.1623,-5.1178,-5.1775,-5.2198,-5.2289,-5.2614,-5.2957,-5.332,-5.4333,-5.5365,-5.6434,-5.8211,-5.9281,-5.9644,-6.016,-6.0403,-6.0403,-6.0403,-6.0403,0.0,-6.0403,-5.9911,-5.9095,-5.9095,-5.8631,0.0,0.0,0.0,0.0,0.0,-5.5575,-5.5097,-5.4753,-5.4314,-5.3894,-5.3894,-5.3894,-5.3664,-5.248,-5.1868,-5.1353,-5.013,-4.9538,-4.9347,-4.9691,-4.9805,-4.9882,-5.0225,-5.0302,-4.9939,-4.864,-4.8334,-4.7952,-4.6615,-4.6347,0.0,-4.587,-4.5507,-4.5307,-4.5307,-4.5307,-4.5307,-4.5307,-4.5307,-4.5105,-4.4609,-4.4216,-4.3472,-4.2163,-4.1285,0.0,0.0,0.0,-3.4838,-3.2776,-3.2699,0.0,0.0,0.0,0.0,0.0,0.0,0.0,0.0,-2.516,-2.5657,0.0,0.0,0.0,0.0,0.0,0.0,0.0,0.0,0.0,0.0,0.0,0.0,0.0,0.0,0.0,0.0,-3.9308,-4.2835,-4.5402,-4.6586,-4.8125,-5.0683,-5.1606,-5.2067,-5.2092,-5.2005,-5.1598,-5.076,-5.2089,-5.2609,-5.1938,0.0,0.0,0.0,0.0,-5.5613,-5.7886,-5.8803,-5.9625,-6.0403,-6.0403,-6.0403,-6.0403,-6.0403,-6.0403,-6.0403,-6.0403,-5.995,-5.9262,-5.9262,-5.8842,-5.8154,-5.7963,-5.7848,-5.7657,-5.6893,-5.653,-5.6358,-5.5651,0.0,0.0,-5.5403,-5.5403,-5.5078,-5.332,-5.2308,-5.1391,-4.971,-4.8678,-4.8258,-4.9022,-4.9243,-4.9423,-5.013,-5.0302,-5.0073,-4.9282,-4.911,-4.8831,-4.796,-4.7788,-4.7521,-4.6653,-4.5908,-4.5392,-4.5307,-4.5307,-4.5307,-4.5307,-4.5307,-4.5307,-4.5307,0.0,0.0,-4.2889,-4.1991,-4.0406,-3.7865,-3.6939,-3.545,-3.3081,-3.2986,-3.2986,-3.2986,-3.2191,-3.1835,-3.1931,-3.1147,-3.158,-3.3051,-2.9784,-2.9211,0.0,0.0,0.0,0.0,0.0,0.0,0.0,0.0,0.0,0.0,0.0,0.0,0.0,0.0,0.0,-3.8007,-4.0969,-4.3739,-4.6297,-4.7952,-4.9856,-5.2414,-5.2856,-5.3212,-5.3904,-5.3285,-5.2773,-5.2598,-5.2831,-5.3196,-5.3673,-5.4496,-5.5026,-5.5135,-5.6454,-5.7409,-5.7905,-5.9396,-6.0217,-6.0403,0.0,0.0,-6.0403,-6.0403,-6.0403,-6.0403,-6.0403,-6.0293,-6.0141,-6.0141,-6.0045,-5.9778,-5.8421,-5.7466,-5.6816,-5.6658,-5.6186,-5.5613,-5.546,-5.5403,-5.5403,-5.5403,-5.5403,-5.5078,-5.332,-5.269,0.0,-5.0531,-4.9958,-4.9862,-5.0015,-5.0073,-5.0111,-5.0264,-5.0302,-5.0073,-4.9282,-4.911,-4.8831,-4.796,-4.7788,-4.7521,-4.6653,-4.6366,-4.6042,-4.5403,-4.5307,-4.5307,-4.5307,-4.5307,-4.5307,-4.5307,-4.5144,-4.4437,-4.2928,-4.1991,-4.0406,-3.7865,-3.6939,-3.5965,-3.4762,-3.4764,-3.4764,-3.4724,-3.3922,-3.385,-3.4565,-3.4335,-3.4767,-3.5706,-3.2989,-3.3005,0.0,0.0,0.0,0.0,0.0,0.0,0.0,0.0,0.0,0.0,0.0,-3.132,-3.2141,0.0,-3.8565,-4.0277,-4.3393,-4.6047,-4.7317,-4.9317,-5.1298,-5.301,-5.3203,-5.3549,-5.4414,-5.4045,-5.3571,-5.3129,-5.3812,-5.4407,-5.4776,-5.5631,-5.6263,-5.6645,-5.7466,-5.8096,-5.8498,-5.9759,-6.0403,-6.0403,-6.0403,-6.0403,-6.0403,-6.0403,-6.0403,-6.0403,-6.0403,-6.0403,-6.0403,-6.0403,-6.0141,-5.9663,-5.8842,-5.823,-5.7753,-5.6912,-5.6339,-5.5938,-5.5536,-5.5403,-5.5403,-5.5403,-5.5403,-5.5154,-5.3855,-5.2862,-5.1926,-5.0665,-4.971,-4.9156,-4.9595,-4.9691,-4.9805,-5.0206,-5.0302,-5.0187,-4.9786,-4.9691,-4.9576,-4.9137,-4.906,-4.8793,-4.7952,-4.7799,-4.7226,-4.5545,-4.5307,-4.5307,-4.5307,-4.5307,-4.5307,-4.5307,-4.5307,-4.4781,-4.352,-4.1858,-4.0177,-3.8457,-3.7559,-3.691,-3.647,-3.6468,-3.6504,-3.6504,-3.6064,-3.608,-3.6545,-3.6476,-3.6899,-3.7728,-3.646,-3.629,0.0,0.0,0.0,0.0,0.0,0.0,0.0,0.0,-2.939,-3.1231,-3.3391,-3.5257,-3.6276,-3.9385,-4.1962,-4.247,-4.5547,-4.799,-4.8317,-5.0279,-5.1991,-5.2856,-5.326,-5.3799,-5.4645,-5.4536,-5.4188,-5.364,-5.4959,-5.583,-5.593,-5.6907,-5.7749,-5.8364,-5.8397,-5.8735,-5.9371,-6.0073,-6.0417,-6.0417,-6.0403,-6.0403,-6.0403,-6.0403,-6.0403,-6.0403,-6.0403,-6.0403,-6.0403,-6.0217,-5.9739,-5.9057,-5.8746,-5.8612,-5.8459,-5.7103,-5.6492,-5.6262,-5.5632,-5.5403,-5.5403,-5.5403,-5.5403,-5.525,-5.4352,-5.3168,-5.1907,-5.1028,-4.9805,-4.8907,-4.9442,-4.9595,-4.971,-5.0187,-5.0302,-5.0302,-5.0302,-5.0302,-5.0302,-5.0302,-5.0302,-5.0034,-4.9243,-4.911,-4.8288,-4.5889,-4.5526,-4.5468,-4.5326,-4.5307,-4.5307,-4.5307,-4.5307,-4.4953,-4.4064,-4.1867,-4.0234,-3.9527,-3.8686,-3.8132,-3.796,-3.7959,-3.8004,-3.8049,-3.8012,-3.8089,-3.8306,-3.8244,-3.857,-3.925,-3.924,-3.8877,-2.3514,-2.3918,-2.5476,-2.7149,-2.8125,-2.93,0.0,0.0,-3.3045,-3.5481,-3.6834,-3.8065,-3.965,-4.0969,-4.2547,-4.4806,-4.622,-4.7548,-4.9048,-5.0164,-5.1144,-5.1942,-5.3414,-5.4664,-5.5491,-5.4914,-5.4731,-5.5357,-5.6288,-5.7098,-5.7766,-5.9307,-6.0142,-6.0116,-6.019,-6.0256,-6.0332,-6.0428,-6.0485,-6.0485,-6.0431,-6.0403,-6.0403,-6.0403,-6.0403,-6.0403,-6.0403,-6.0403,-6.0346,-5.9568,-5.9205,-5.8956,-5.7466,-5.6874,-5.6855,-5.6664,-5.6148,-5.5517,-5.5441,-5.5403,-5.5403,-5.5403,-5.5403,-5.525,-5.4352,-5.397,-5.3645,-5.2766,-5.2384,-5.2098,-5.1486,-5.1334,-5.1162,-5.0455,-5.0302,-5.0302,-5.0302,-5.0302,-5.0302,-5.0302,-5.0302,-5.0034,-4.9243,-4.911,-4.8468,-4.6634,-4.6366,-4.6118,-4.5392,-4.5307,-4.5307,-4.5307,-4.5307,-4.4953,-4.4064,-4.2374,-4.1323,-4.1227,-4.0463,-3.9652,-3.8897,-3.8899,-3.8952,-3.8957,-3.9005,-3.9386,-4.0111,-4.0029,-4.0049,-4.0145,-4.0157,-4.0091,-2.711,-2.7998,-2.962,-3.126,-3.2983,-3.468,-3.6276,-3.6995,-3.7911,-4.0008,-4.1489,-4.2651,-4.3344,-4.4566,-4.5663,0.0,-4.7913,-4.9183,-4.9375,-5.0991,-5.1914,-5.1279,-5.226,-5.3318,-5.4164,-5.4395,-5.4645,-5.4972,-5.6703,-5.7881,-5.8134,-5.9746,-6.0597,-6.0525,-6.0539,-6.0565,-6.0565,-6.0565,-6.0565,-6.0565,-6.0525,-6.0512,-6.0512,-6.0512,-6.0231,-5.9693,-5.9693,-5.9398,-5.8918,-5.8555,-5.8096,-5.7581,-5.6874,-5.6301,-5.5899,-5.5899,-5.5689,-5.5403,-5.5403,-5.5403,-5.5403,-5.5403,-5.5403,-5.5326,-5.4982,-5.4505,-5.4027,-5.3664,-5.3187,-5.2709,-5.2384,-5.1945,-5.1513,-5.1142,-5.0665,-5.0302,-5.0302,-5.0302,-5.0302,-5.0302,-5.0302,-5.0187,-4.9862,-4.9805,-4.9213,-4.7502,-4.6825,-4.6214,-4.5392,-4.5307,-4.5307,-4.5307,-4.5307,-4.4953,-4.4064,-4.3357,-4.2545,-4.1552,-4.117,-4.0616,-3.9785,-3.9781,-3.9825,-3.9872,-3.9879,-4.0076,-4.0449,-4.0342,-4.0307,-4.0307,-4.0291,-4.0301,-3.0054,-3.154,-3.3306,-3.4933,-3.7032,-3.8911,-3.9796,-4.0431,-4.1354,-4.3085,-4.422,-4.5056,-4.5518,-4.6394,-4.7086,-4.7221,-4.8971,-5.0279,-5.0106,-5.1683,-5.2395,-5.1183,-5.1144,-5.1471,-5.2087,-5.3356,-5.4241,-5.4472,-5.6857,-5.8266,-5.8208,-5.9783,-6.066,-6.0604,-6.0617,-6.0629,-6.0629,-6.0629,-6.0629,-6.0629,-6.0604,-6.0604,-6.0585,-6.0355,-5.9869,-5.9223,-5.8987,-5.8527,-5.7939,-5.7691,-5.7213,-5.662,-5.6403,-5.5932,-5.5434,-5.5434,-5.5409,-5.5403,-5.5403,-5.5403,-5.5403,-5.5403,-5.5403,-5.5403,-5.5403,-5.4963,-5.4467,-5.4467,-5.4008,-5.3454,-5.3225,-5.2556,-5.1888,-5.1646,-5.0932,-5.0302,-5.0302,-5.0302,-5.0302,-5.0302,-5.0302,-5.0302,-5.0302,-5.0302,-4.9729,-4.8078,-4.7264,-4.6481,-4.543,-4.5307,-4.5307,-4.5307,-4.5307,-4.5029,-4.4418,-4.414,-4.3472,-4.2278,-4.1972,-4.16,-4.1017,-4.0796,-4.0715,-4.0758,-4.0537,-4.0438,-4.0502,-4.0396,-4.0362,-4.0325,-4.0309,-4.031,-3.1481,-3.3673,-3.5885,-3.7577,-3.9203,-4.065,-4.1527,-4.1731,-4.2239,-4.3912,-4.3682,-4.3662,-4.5306,-4.4951,-4.522,-4.7663,-4.8836,-5.001,-5.1596,-5.1885,-5.1923,-5.1865,-5.0452,-4.949,0.0,-5.1779,-5.3587,-5.4434,-5.6857,-5.8266,-5.8208,-5.9783,-6.066,-6.0604,-6.0648,-6.0685,-6.0685,-6.0685,-6.0685,-6.0685,-6.0642,-6.0604,-6.0565,-5.9709,-5.9326,-5.9249,-5.8463,-5.8131,-5.8022,-5.7179,-5.6815,-5.6719,-5.5856,-5.5511,-5.5492,-5.5492,-5.5458,-5.5403,-5.5403,-5.5403,-5.5403,-5.5403,-5.5403,-5.5403,-5.5403,-5.5384,-5.5365,-5.5365,-5.5345,-5.5135,-5.4276,-5.3416,-5.2575,-5.1792,-5.0932,-5.0302,-5.0302,-5.0302,-5.0302,-5.0302,-5.0302,-5.0302,-5.0302,-5.0302,-4.974,-4.8133,-4.7821,-4.7169,-4.5507,-4.5307,-4.5307,-4.5307,-4.5307,-4.5288,-4.5269,-4.4494,-4.3987,-4.393,-4.3195,-4.2737,-4.2738,-4.2037,-4.1669,-4.1654,-4.0896,-4.0511,-4.0502,-4.0502,-4.0458,-4.0407,-4.0325,-4.0307,-3.3852,-3.6251,-3.8524,-4.019,-4.184,-4.3239,-4.4124,-4.4316,-4.447,-4.5056,-4.4489,-4.4239,-4.5383,-4.5364,-4.5797,-4.7778,-4.976,-5.125,-5.1827,-5.2895,-5.301,-5.1298,-5.0606,0.0,0.0,0.0,0.0,-5.2722,-5.5665,-5.7673,-5.8247,-5.9873,-6.0765,-6.0741,-6.0746,-6.0777,-6.0777,-6.0777,-6.0777,-6.0777,-6.0753,-6.0741,-6.0722,-6.0433,-5.9648,-5.8556,-5.8287,-5.7477,-5.6348,-5.606,-5.5945,-5.5907,-5.5619,-5.5504,-5.5504,-5.5504,-5.5499,-5.547,-5.547,-5.547,-5.547,-5.547,-5.547,-5.547,-5.547,-5.547,-5.547,-5.547,-5.547,-5.5394,-5.5119,-5.3989,-5.2859,-5.2591,-5.1461,-5.0427,-5.0427,-5.0427,-5.0427,-5.0427,-5.0427,-5.0427,-5.0427,-5.0401,-4.9977,-4.8851,-4.7272,-4.6009,-4.5435,-4.5328,-4.5317,-4.5359,-4.5328,-4.5307,-4.5307,-4.5029,-4.4628,-4.4045,-4.3798,-4.3407,-4.2814,-4.2648,-4.2298,-4.172,-4.1484,-4.1077,-4.0492,-4.0499,-4.0493,-4.0458,-4.0407,-4.037,-3.6818,-3.952,-4.1907,-4.2988,-4.4243,-4.5297,-4.5537,-4.5594,-4.5441,-4.4825,-4.3767,-4.3113,-4.3671,-4.3536,-4.4209,-4.6797,-4.9336,-5.1308,-5.2231,-5.3606,-5.3895,-5.2241,-5.151,-5.0587,0.0,0.0,0.0,-5.1433,-5.4626,-5.6915,-5.778,-5.9723,-6.08,-6.08,-6.08,-6.08,-6.08,-6.08,-6.08,-6.08,-6.08,-6.08,-6.0781,-6.0473,-5.9565,-5.8224,-5.7916,-5.6933,-5.5573,-5.5573,-5.5573,-5.5573,-5.5573,-5.5573,-5.5573,-5.5573,-5.5573,-5.5562,-5.5516,-5.5504,-5.5504,-5.5504,-5.5504,-5.5504,-5.5504,-5.5504,-5.5504,-5.5504,-5.5504,-5.5504,-5.5504,-5.4488,-5.3395,-5.3069,-5.1957,-5.0894,-5.0558,-5.05,-5.05,-5.05,-5.05,-5.05,-5.05,-5.0229,-4.9805,-4.922,-4.7287,-4.5888,-4.5868,-4.556,-4.5348,-4.5398,-4.5338,-4.5307,-4.5307,-4.5307,-4.5078,-4.4534,-4.4536,-4.4327,-4.379,-4.3567,-4.3208,-4.264,-4.2396,-4.1989,-4.1439,-4.1426,-4.1429,-4.1429,-4.136,-4.1323,-4.0221,-4.3294,-4.5814,-4.5828,-4.6362,-4.6682,-4.5864,-4.5594,-4.5056,-4.3316,-4.1546,-4.0304,0.0,0.0,-4.0631,-4.4844,-4.774,-5.0337,-5.2856,-5.3991,-5.4549,0.0,0.0,0.0,0.0,0.0,0.0,-5.077,0.0,-5.6088,-5.7022,-5.9435,-6.08,-6.08,-6.08,-6.08,-6.08,-6.08,-6.08,-6.08,-6.08,-6.08,-6.0762,-5.9935,-5.9108,-5.8261,-5.7434,-5.656,-5.5703,-5.5703,-5.5703,-5.5703,-5.5703,-5.5703,-5.5703,-5.5703,-5.5703,-5.5673,-5.5551,-5.5516,-5.5516,-5.5516,-5.5516,-5.5516,-5.5516,-5.5516,-5.5516,-5.5516,-5.5516,-5.5516,-5.5516,-5.4902,-5.4108,-5.3272,-5.2428,-5.1576,-5.0741,-5.053,-5.0511,-5.0511,-5.0511,-5.0511,-5.0511,-4.9871,-4.9354,-4.9275,-4.7943,-4.6877,-4.6714,-4.5936,-4.5408,-4.5408,-4.5338,-4.5307,-4.5307,-4.5307,-4.5328,-4.5398,-4.5408,-4.5438,-4.5495,-4.4774,-4.435,-4.4297,-4.3547,-4.3143,-4.3104,-4.3104,-4.3104,-4.3104,-4.3032,-4.3015,-4.277,-4.542,-4.7498,-4.7489,-4.7182,-4.6827,-4.6624,-4.5566,-4.397,-4.1651,-3.9296,-3.768,0.0,0.0,0.0,-4.3932,-4.7865,0.0,-5.2933,-5.4472,0.0,-5.4568,0.0,-5.3895,-5.1798,-5.2183,0.0,0.0,-5.4145,-5.6357,-5.7896,-5.9762,-6.08,-6.08,-6.08,-6.08,-6.08,-6.08,-6.08,-6.08,-6.08,-6.08,-6.0781,-6.0569,-5.9685,-5.83,-5.8069,-5.7107,-5.5703,-5.5703,-5.5703,-5.5703,-5.5703,-5.5703,-5.5703,-5.5703,-5.5703,-5.5703,-5.5651,-5.564,-5.564,-5.564,-5.564,-5.564,-5.564,-5.564,-5.564,-5.564,-5.564,-5.564,-5.564,-5.5045,-5.4391,-5.4161,-5.2969,-5.1816,-5.1594,-5.1066,-5.0653,-5.0653,-5.0653,-5.0633,-5.0593,-5.045,-5.0317,-5.0247,-4.9384,-4.826,-4.6935,-4.5975,-4.5399,-4.54,-4.5339,-4.5307,-4.5307,-4.5307,-4.5328,-4.5398,-4.54,-4.5438,-4.5495,-4.5348,-4.4962,-4.4316,-4.4105,-4.3701,-4.3104,-4.3104,-4.3104,-4.3104,-4.3077,-4.3069,-4.5422,-4.7649,-4.9067,-4.8298,-4.7759,-4.7048,-4.5566,-4.4182,-4.2374,-3.9431,-3.6815,-3.5026,-3.5026,-3.5738,0.0,0.0,0.0,0.0,-5.1818,-5.3549,-5.4434,0.0,-5.4972,0.0,-5.3222,-5.3799,-5.4241,0.0,-5.5107,-5.628,-5.7665,-5.9685,-6.08,-6.08,-6.08,-6.08,-6.08,-6.08,-6.08,-6.08,-6.08,-6.08,-6.08,-6.08,-5.9896,-5.83,0.0,-5.7319,-5.5703,-5.5703,-5.5703,-5.5703,-5.5703,-5.5703,-5.5703,-5.5703,-5.5703,-5.5703,-5.5703,-5.5703,-5.5703,-5.5703,-5.5703,-5.5703,-5.5703,-5.5703,-5.5703,-5.5703,-5.5703,-5.5703,-5.5703,-5.5376,-5.4934,-5.4587,-5.376,-5.2953,-5.2538,-5.2125,-5.1683,-5.1298,-5.0933,-5.0702,-5.0643,-5.0682,-5.0702,-5.0643,-4.9933,-4.9058,-4.8068,-4.6781,-4.5975,-4.6004,-4.5609,-4.5348,-4.533,-4.5341,-4.538,-4.5429,-4.5438,-4.5466,-4.5531,-4.5577,-4.5364,-4.4874,-4.4874,-4.4643,-4.4201,-4.4201,-4.4201,-4.4201,-4.4201,-4.4201,-4.7802,-4.9565,-5.0308,-4.8682,-4.8105,-4.7086,-4.3835,-4.2162,-4.0327,-3.6904,-3.418,-3.2429,-3.2545,-3.3276,-3.5283,-3.965,0.0,-4.7586,-5.001,-5.1895,-5.3029,-5.3029,-5.4607,-5.5434,-5.4722,-5.5588,-5.6472,-5.7118,-5.6569,-5.653,-5.7291,-5.9531,-6.08,-6.08,-6.08,-6.08,-6.08,-6.08,-6.08,-6.08,-6.08,-6.08,-6.08,-6.08,-5.9896,-5.83,0.0,0.0,-5.5703,-5.5703,-5.5703,-5.5703,-5.5703,-5.5703,-5.5703,-5.5703,-5.5703,-5.5703,-5.5703,-5.5703,-5.5703,-5.5703,-5.5703,-5.5703,-5.5703,-5.5703,-5.5703,-5.5703,-5.5703,-5.5703,-5.5703,-5.5703,-5.5511,-5.4818,-5.4587,-5.428,-5.3549,-5.328,-5.2991,-5.2212,-5.1414,-5.0856,-5.0856,-5.077,-5.0712,-5.0712,-5.0048,-4.9567,-4.9567,-4.7905,-4.6743,-4.6791,-4.5966,-4.54,-4.54,-4.54,-4.5429,-4.5495,-4.5504,-4.5522,-4.5594,-4.5594,-4.5594,-4.5594,-4.5594,-4.5594,-4.5594,-4.5594,-4.5594,-4.5594,-4.5594,-4.5594,-4.8811,-4.9978,-5.0462,-4.9433,-4.8125,-4.6413,-4.372,-4.0796,0.0,0.0,-3.1525,-2.9987,-3.0692,-3.1545,-3.3757,-3.8707,-4.3055,0.0,0.0,0.0,-5.2135,0.0,0.0,0.0,0.0,0.0,0.0,0.0,0.0,-5.8915,-5.905,-6.0165,-6.08,-6.08,-6.08,-6.08,-6.08,-6.08,-6.08,-6.08,-6.08,-6.08,-6.08,-6.08,-5.9896,-5.83,-5.83,0.0,-5.5703,-5.5703,-5.5703,-5.5703,-5.5703,-5.5703,-5.5703,-5.5703,-5.5703,-5.5703,-5.5703,-5.5703,-5.5703,-5.5703,-5.5703,-5.5703,-5.5703,-5.5703,-5.5703,-5.5703,-5.5703,-5.5703,-5.5703,-5.5703,-5.5665,-5.553,-5.4972,-5.4453,-5.4318,-5.3703,-5.3164,-5.301,-5.2269,-5.1692,-5.1692,-5.1144,-5.0712,-5.0712,-5.0577,-5.0481,-5.0481,-4.8308,-4.6781,-4.6791,-4.5966,-4.539,-4.54,-4.54,-4.5429,-4.5495,-4.5504,-4.5522,-4.5594,-4.5594,-4.5594,-4.5594,-4.5594,-4.5594,-4.5594,-4.5594,-4.5594,-4.5594,-4.5594,-4.5594,-4.9771,-5.0459,-5.0289,-4.8529,-4.7144,-4.521,-4.1339,0.0,0.0,0.0,-2.9627,-2.8105,-2.8942,-3.015,0.0,-3.6028,-4.0573,0.0,0.0,0.0,0.0,0.0,0.0,0.0,0.0,0.0,0.0,0.0,0.0,-5.9069,-5.9473,-6.0319,-6.08,-6.08,-6.0358,-6.0127,-6.0127,-5.9704,-5.9492,-5.9492,-5.9492,-5.9492,-5.9492,-5.9492,-5.88,-5.7607,-5.7607,0.0,-5.5703,-5.5703,-5.5703,-5.5703,-5.5703,-5.5703,-5.5703,-5.5703,-5.5703,-5.5703,-5.5703,-5.5703,-5.5703,-5.5703,-5.5703,-5.5703,-5.5703,-5.5703,-5.5703,-5.5703,-5.5703,-5.5703,-5.5703,-5.5703,-5.5703,-5.5703,-5.5415,-5.5126,-5.5126,-5.4472,-5.3876,-5.3876,-5.2818,-5.1904,-5.1904,-5.1221,-5.0712,-5.0712,-5.0712,-5.0712,-5.0712,-4.9202,-4.8145,-4.8145,-4.6945,-4.6139,-4.6186,-4.5754,-4.5513,-4.5559,-4.5559,-4.5568,-4.5594,-4.5594,-4.5594,-4.5594,-4.5594,-4.5594,-4.5594,-4.5594,-4.5594,-4.5594,-4.5594,-4.5594,-5.0225,-5.065,-5.0096,-4.7548,-4.597,-4.3737,-3.8628,-3.5348,0.0,-3.0195,-2.7966,-2.6681,-2.7513,-2.8719,-3.0491,0.0,-3.7625,-4.1354,-4.322,0.0,0.0,0.0,0.0,0.0,0.0,0.0,0.0,0.0,0.0,0.0,-5.9454,-6.0146,-6.0435,-6.0262,-5.9608,-5.9242,-5.9242,-5.8627,-5.83,-5.83,-5.83,-5.83,-5.83,-5.83,-5.7819,-5.7003,-5.7003,0.0,0.0,-5.5703,-5.5703,-5.5703,-5.5703,-5.5703,-5.5703,-5.5703,-5.5703,-5.5703,-5.5703,-5.5703,-5.5703,-5.5703,-5.5703,-5.5703,-5.5703,-5.5703,-5.5703,-5.5703,-5.5703,-5.5703,-5.5703,-5.5703,-5.5703,-5.5703,-5.5703,-5.5703,-5.5703,-5.5203,-5.4761,-5.4761,-5.351,-5.2404,-5.2212,-5.151,-5.0894,-5.0731,-5.0712,-5.0712,-5.0712,-5.0087,-4.9683,-4.9683,-4.8126,-4.7021,-4.6904,-4.6278,-4.5806,-4.5614,-4.5594,-4.5594,-4.5594,-4.5594,-4.5594,-4.5594,-4.5594,-4.5594,-4.5594,-4.5594,-4.5594,-4.5594,-4.5594,-4.5594,-4.9504,-5.0195,-5.0096,-4.7548,-4.5105,-4.1997,-3.6888,0.0,-3.0124,-2.7565,-2.6283,-2.5865,-2.6734,-2.6989,-2.8106,-3.1394,-3.4886,-3.8027,-4.0496,0.0,0.0,0.0,0.0,0.0,0.0,0.0,0.0,0.0,0.0,0.0,-5.9454,-5.9588,-5.9281,-5.855,-5.8454,-5.8415,-5.8415,-5.8338,-5.83,-5.83,-5.83,-5.83,-5.83,-5.83,-5.7819,-5.7003,-5.7003,0.0,0.0,-5.5703,-5.5703,-5.5703,-5.5703,-5.5703,-5.5703,-5.5703,-5.5703,-5.5703,-5.5703,-5.5703,-5.5703,-5.5703,-5.5703,-5.5703,-5.5703,-5.5703,-5.5703,-5.5703,-5.5703,-5.5703,-5.5703,-5.5703,-5.5703,-5.5703,-5.5703,-5.5703,-5.5703,-5.5645,-5.5588,-5.5588,-5.4876,-5.401,-5.3222,-5.2346,-5.1548,-5.0808,-5.0712,-5.0712,-5.0712,-5.0635,-5.0577,-5.0577,-4.9029,-4.7692,-4.6962,-4.6836,-4.6432,-4.5652,-4.5594,-4.5594,-4.5594,-4.5594,-4.5594,-4.5594,-4.5594,-4.5594,-4.5594,-4.5594,-4.5594,-4.5594,-4.5594,-4.5594,-4.8438,-4.9459,-4.9362,-4.6808,-4.4256,-4.1053,-3.5988,-3.2207,-2.9216,-2.7223,-2.6151,-2.566,-2.6003,-2.6442,-2.7539,-2.9863,-3.2623,-3.5354,-3.7901,-4.0735,0.0,0.0,0.0,0.0,0.0,0.0,0.0,0.0,0.0,0.0,-5.8011,-5.8492,-5.8627,-5.8319,-5.778,-5.7511,-5.7511,-5.6992,-5.6742,-5.6742,-5.6742,-5.6742,-5.6742,-5.6742,-5.6549,-5.6233,-5.6233,0.0,0.0,-5.5703,-5.5703,-5.5703,-5.5703,-5.5703,-5.5703,-5.5703,-5.5703,-5.5703,-5.5703,-5.5703,-5.5703,-5.5703,-5.5703,-5.5703,-5.5703,-5.5703,-5.5703,-5.5703,-5.5703,-5.5703,-5.5703,-5.5703,-5.5703,-5.5703,-5.5703,-5.5703,-5.5703,-5.5703,-5.5703,-5.5703,-5.5049,-5.4395,-5.4049,-5.2818,-5.1788,-5.1471,-5.101,-5.0712,-5.0712,-5.0712,-5.0712,-5.0712,-4.9606,-4.8759,-4.8432,-4.7932,-4.7471,-4.7124,-4.6644,-4.6374,-4.6374,-4.5883,-4.5594,-4.5594,-4.5594,-4.5594,-4.5594,-4.5594,-4.5594,-4.5594,-4.5594,-4.5874,-4.6754,-4.8282,-4.8535,-4.572,-4.3091,-3.9875,-3.4807,-3.1239,-2.8501,-2.6862,-2.6033,-2.5634,-2.5637,-2.6085,-2.699,-2.8679,-3.081,-3.3324,-3.6376,-3.8941,0.0,0.0,0.0,0.0,0.0,0.0,0.0,0.0,0.0,0.0,0.0,-5.7338,-5.753,-5.753,-5.6934,-5.6618,-5.6618,-5.6011,-5.5703,-5.5703,-5.5703,-5.5703,-5.5703,-5.5703,-5.5703,-5.5703,0.0,0.0,0.0,-5.5724,-5.5735,-5.5735,-5.5745,-5.5756,-5.5756,-5.5756,-5.5756,-5.5756,-5.5756,-5.5756,-5.5756,-5.5756,-5.5756,-5.5756,-5.5756,-5.5735,-5.5703,-5.5703,-5.5703,-5.5703,-5.5703,-5.5703,-5.5703,-5.5703,-5.5703,-5.5703,-5.5703,-5.5703,-5.5703,-5.5703,-5.5241,-5.478,-5.453,-5.328,-5.2192,-5.1942,-5.1221,-5.0712,-5.0712,-5.0712,-5.0712,-5.0712,-5.0144,-4.9683,-4.9413,-4.8836,-4.8375,-4.8125,-4.7567,-4.7154,-4.6904,-4.6317,-4.5855,-4.5614,-4.5622,-4.5631,-4.5631,-4.5629,-4.5629,-4.5631,-4.5862,-4.645,-4.4286,-4.6595,-4.7684,-4.4286,-4.1456,-3.8184,-3.3091,-3.0,-2.7719,-2.5962,-2.5654,-2.5704,-2.5692,-2.5653,-2.6167,-2.7841,-2.9476,-3.1997,-3.6202,-3.8936,0.0,0.0,0.0,0.0,0.0,0.0,0.0,0.0,0.0,0.0,0.0,-5.6195,-5.5722,-5.5722,-5.5722,-5.5703,-5.5703,-5.5703,-5.5703,-5.5703,-5.5703,-5.5703,-5.5703,-5.5703,-5.5703,0.0,0.0,0.0,0.0,-5.5766,-5.5797,-5.5816,-5.5875,-5.5895,-5.5895,-5.5895,-5.5895,-5.5895,-5.5895,-5.5895,-5.5895,-5.5895,-5.5895,-5.5895,-5.5895,-5.5806,-5.5703,-5.5703,-5.5703,-5.5703,-5.5703,-5.5703,-5.5703,-5.5703,-5.5703,-5.5703,-5.5703,-5.5703,-5.5703,-5.5703,-5.5684,-5.5434,-5.4645,-5.378,-5.2895,-5.2019,-5.1221,-5.0712,-5.0712,-5.0712,-5.0712,-5.0712,-5.0693,-5.0346,-4.9471,-4.9394,-4.9029,-4.8144,-4.8086,-4.774,-4.6923,-4.6885,-4.649,-4.5614,-4.5676,-4.5701,-4.5701,-4.5703,-4.5703,-4.572,-4.6521,-4.7314,-4.0664,-4.2711,-4.3651,-4.1377,-3.887,-3.5947,-3.1987,-2.9134,-2.6997,-2.5903,-2.5681,-2.5705,-2.5698,-2.5644,-2.6165,-2.7882,-2.8526,-3.0272,0.0,0.0,0.0,0.0,0.0,0.0,0.0,0.0,0.0,0.0,0.0,0.0,0.0,-5.5838,-5.5703,-5.5703,-5.5703,-5.5703,-5.5703,-5.5703,-5.5703,-5.5703,-5.5703,-5.5703,-5.5703,-5.5703,0.0,0.0,0.0,0.0,0.0,-5.5766,-5.5837,-5.5892,-5.5937,-5.5993,-5.6044,-5.6044,-5.6044,-5.6044,-5.6044,-5.6044,-5.6044,-5.6044,-5.6044,-5.6044,-5.6044,-5.5945,-5.5826,-5.5776,-5.5766,-5.5756,-5.5714,-5.5703,-5.5703,-5.5703,-5.5703,-5.5703,-5.5703,-5.5703,-5.5703,-5.5703,-5.5703,-5.5607,-5.5357,-5.4145,-5.3106,-5.2837,-5.1606,-5.0712,-5.0712,-5.0712,-5.0712,-5.0712,-5.0712,-5.0596,-5.0308,-5.0289,-5.0164,-4.9894,-4.9317,-4.8875,-4.8625,-4.8048,-4.7586,-4.7317,-4.737,-4.7428,-4.7476,-4.7473,-4.748,-4.7497,-4.8256,-4.875,-3.6548,-3.8578,-3.9439,-3.7705,-3.5819,-3.3585,-3.0503,-2.8312,-2.6705,-2.5876,-2.5705,-2.5706,-2.5703,-2.5675,-2.6091,-2.7511,-2.7932,-2.9562,0.0,0.0,0.0,0.0,0.0,0.0,0.0,0.0,0.0,0.0,0.0,0.0,0.0,-5.5703,-5.5703,-5.5703,-5.5724,-5.5735,-5.5735,-5.5756,-5.5785,-5.5785,-5.5785,-5.5785,-5.5785,-5.5785,0.0,0.0,0.0,0.0,0.0,-5.5885,-5.5929,-5.5985,-5.6083,-5.6142,-5.6173,-5.6173,-5.6173,-5.6173,-5.6173,-5.6173,-5.6173,-5.6173,-5.6173,-5.6173,-5.6173,-5.6078,-5.5959,-5.5856,-5.5837,-5.5826,-5.5724,-5.5703,-5.5703,-5.5703,-5.5703,-5.5703,-5.5703,-5.5703,-5.5703,-5.5703,-5.5703,-5.5703,-5.5703,-5.4587,-5.3683,-5.3683,-5.2241,-5.1144,-5.1144,-5.0894,-5.0577,-5.025,-5.05,-5.0577,-5.025,-5.0519,-5.0712,-5.0712,-5.0183,-4.975,-4.9442,-4.8921,-4.8487,-4.8179,-4.8246,-4.8315,-4.8384,-4.8382,-4.8539,-4.8848,-4.9255,-4.9596,0.0,-3.4216,-3.5231,-3.3552,-3.2461,-3.1192,-2.8752,-2.7523,0.0,-2.5863,-2.5707,-2.5707,-2.5707,-2.5707,-2.6015,-2.6936,-2.7772,0.0,0.0,0.0,0.0,0.0,0.0,0.0,0.0,0.0,0.0,0.0,0.0,0.0,0.0,-5.5714,-5.5714,-5.5714,-5.5787,-5.5817,-5.5807,-5.5876,-5.5904,-5.5914,-5.5914,-5.5914,-5.5914,-5.5914,0.0,0.0,0.0,0.0,0.0,-5.6046,-5.6106,-5.6139,-5.6264,-5.6317,-5.6329,-5.6329,-5.6329,-5.6329,-5.6329,-5.6329,-5.6329,-5.6329,-5.6329,-5.6329,-5.6329,-5.6219,-5.6094,-5.5949,-5.5921,-5.5885,-5.5745,-5.5714,-5.5714,-5.5714,-5.5714,-5.5714,-5.5714,-5.5714,-5.5714,-5.5703,-5.5703,-5.5703,-5.5703,-5.504,-5.4502,-5.4502,-5.302,-5.1914,-5.1914,-5.1212,-5.0394,-4.9577,-5.0221,-5.0375,-4.9558,-5.0231,-5.0712,-5.0712,-5.0692,-5.0374,-4.9631,-4.9607,-4.9255,-4.8511,-4.8563,-4.8639,-4.8684,-4.8684,-4.9072,-4.9799,-4.9669,-4.9997,-2.7288,0.0,-3.1776,-3.0743,-2.9845,-2.8869,0.0,-2.6625,-2.5941,-2.5746,-2.5707,-2.5707,-2.5707,-2.5707,-2.6192,-2.7743,-2.8665,-3.0899,0.0,0.0,0.0,0.0,0.0,0.0,0.0,0.0,0.0,0.0,0.0,0.0,0.0,-5.5846,-5.5846,-5.5846,-5.5969,-5.5975,-5.5882,-5.5945,-5.6001,-5.6054,-5.6054,-5.6054,-5.6054,-5.6054,0.0,0.0,0.0,0.0,-5.6061,-5.6136,-5.6211,-5.6261,-5.6338,-5.6441,-5.6539,-5.6539,-5.6539,-5.6539,-5.6539,-5.6539,-5.6539,-5.6539,-5.6539,-5.6539,-5.6539,-5.6392,-5.6227,-5.6083,-5.6051,-5.6023,-5.5885,-5.5846,-5.5846,-5.5846,-5.5846,-5.5836,-5.5776,-5.5776,-5.5756,-5.5714,-5.5703,-5.5703,-5.5703,-5.5033,-5.4495,-5.4495,-5.3109,-5.2058,-5.2058,-5.1306,-5.0708,-5.0496,-5.065,-5.0689,-5.0496,-5.0615,-5.0712,-5.0712,-5.0692,-5.0659,-5.0576,-5.0577,-5.0502,-5.0377,-5.0475,-5.0559,-5.0568,-5.0563,-5.0646,-5.0778,-5.0634,-5.064,-2.5707,-2.7347,-2.8869,-2.801,-2.7757,-2.7484,-2.6606,-2.6039,-2.5707,-2.5707,-2.5707,-2.5707,-2.5707,-2.6039,-2.674,-2.8083,-2.9988,0.0,0.0,0.0,0.0,0.0,0.0,0.0,0.0,0.0,0.0,0.0,0.0,0.0,0.0,-5.5985,-5.5985,-5.5985,-5.609,-5.6097,-5.5993,-5.609,-5.6149,-5.6185,-5.6185,-5.6185,-5.6185,-5.6197,-5.6183,0.0,0.0,0.0,-5.6208,-5.6266,-5.6314,-5.634,-5.6416,-5.6504,-5.66,-5.6595,-5.6593,-5.6593,-5.6606,-5.6606,-5.6606,-5.6606,-5.6606,-5.6606,-5.6606,-5.6504,-5.6363,-5.6222,-5.6194,-5.6153,-5.6028,-5.5985,-5.5985,-5.5985,-5.599,-5.5958,-5.5875,-5.5847,-5.5826,-5.5724,-5.5703,-5.5703,-5.5703,-5.5371,-5.5104,-5.5133,-5.4087,-5.3315,-5.3379,-5.2283,-5.1354,-5.0986,-5.092,-5.0739,-5.0378,-5.0643,-5.0814,-5.0749,-5.0801,-5.0874,-5.094,-5.0991,-5.1074,-5.1142,-5.1206,-5.1257,-5.1292,-5.1257,-5.1202,-5.1141,-5.1004,-5.0929,-2.5863,-2.6528,-2.6996,-2.6117,-2.6547,-2.7016,-2.6273,-2.6097,-2.6097,-2.6097,-2.598,-2.5941,-2.6078,-2.6801,0.0,0.0,0.0,0.0,0.0,0.0,0.0,0.0,0.0,0.0,0.0,0.0,0.0,0.0,0.0,0.0,0.0,-5.6129,-5.6129,-5.6129,-5.6211,-5.6193,-5.6154,-5.6257,-5.6333,-5.6349,-5.6349,-5.6354,-5.6354,-5.6357,-5.6351,0.0,0.0,0.0,-5.6355,-5.6406,-5.6426,-5.6444,-5.6497,-5.6549,-5.6592,-5.6606,-5.6602,-5.66,-5.6608,-5.6606,-5.6606,-5.6606,-5.6606,-5.6606,-5.6606,-5.6558,-5.6484,-5.6383,-5.6329,-5.6289,-5.6167,-5.6129,-5.6129,-5.6129,-5.6122,-5.6083,-5.5949,-5.5929,-5.5895,-5.5756,-5.5735,-5.5735,-5.5735,-5.5797,-5.5866,-5.5915,-5.5246,-5.4786,-5.4905,-5.3402,-5.2061,-5.1386,-5.1142,-5.0753,-5.0059,-5.0637,-5.0985,-5.0874,-5.0952,-5.1023,-5.1037,-5.115,-5.1263,-5.1316,-5.1317,-5.133,-5.14,-5.133,-5.1287,-5.1226,-5.1097,-5.103,-2.6607,-2.7445,-2.7893,-2.7016,-2.7465,-2.8069,-2.7932,-2.7893,-2.7893,-2.7893,-2.7308,-2.7035,-2.7756,-2.8615,-2.9709,0.0,0.0,0.0,0.0,0.0,0.0,0.0,0.0,0.0,0.0,0.0,0.0,0.0,0.0,0.0,0.0,-5.6278,-5.6278,-5.6278,-5.633,-5.6366,-5.6348,-5.6359,-5.6445,-5.6548,-5.6541,-5.6545,-5.6545,-5.6557,-5.6541,0.0,0.0,-5.6541,-5.6541,-5.6564,-5.6566,-5.6567,-5.6571,-5.6592,-5.6593,-5.6592,-5.6607,-5.66,-5.6608,-5.6606,-5.6606,-5.6606,-5.6606,-5.6606,-5.6606,-5.6584,-5.6582,-5.6558,-5.6475,-5.6368,-5.6294,-5.6278,-5.6278,-5.6278,-5.6269,-5.6233,-5.6109,-5.6067,-5.6031,-5.5905,-5.5875,-5.5875,-5.5875,-5.5969,-5.6054,-5.6071,-5.5436,-5.4955,-5.4975,-5.3501,-5.2412,-5.2295,-5.1629,-5.1118,-5.1006,-5.1098,-5.1166,-5.1139,-5.1089,-5.1132,-5.1257,-5.1333,-5.1379,-5.1384,-5.1386,-5.1388,-5.1408,-5.1388,-5.1374,-5.1362,-5.1238,-5.1167,-2.6063,-2.6939,-2.7601,-2.7678,-2.8674,-2.9533,-2.9103,-2.9338,-2.9649,-2.9649,-2.8986,0.0,0.0,0.0,0.0,0.0,0.0,0.0,0.0,0.0,0.0,0.0,0.0,0.0,0.0,0.0,0.0,0.0,0.0,0.0,0.0,0.0,-5.5548,-5.5076,-5.5084,-5.5104,-5.5094,-5.5094,-5.5611,-5.6602,-5.6606,-5.6607,-5.6607,-5.6595,-5.6597,-5.6597,0.0,-5.6597,-5.6597,-5.6597,-5.6597,-5.6597,-5.6599,-5.66,-5.6599,-5.6597,-5.6594,-5.6606,-5.6598,-5.6595,-5.6595,-5.6608,-5.6606,-5.6606,-5.6606,-5.6606,-5.6606,-5.6606,-5.657,-5.6504,-5.6468,-5.6464,-5.6464,-5.6464,-5.6441,-5.6378,-5.6233,-5.6219,-5.6174,-5.6033,-5.6017,-5.6017,-5.6017,-5.6078,-5.6175,-5.6205,-5.5954,-5.5773,-5.5856,-5.4771,-5.4014,-5.4014,-5.3231,-5.2701,-5.2701,-5.2272,-5.1787,-5.1291,-5.1233,-5.1246,-5.1358,-5.1384,-5.1394,-5.1394,-5.1394,-5.1394,-5.1394,-5.1394,-5.1406,-5.1405,-5.1297,-5.1242,-2.5715,-2.6337,-2.6997,-2.8286,-2.9708,-3.0684,-3.0276,-3.0822,-3.1466,-3.166,-3.1213,0.0,0.0,0.0,0.0,0.0,0.0,0.0,0.0,0.0,0.0,0.0,0.0,0.0,0.0,0.0,0.0,0.0,0.0,0.0,0.0,0.0,-5.4699,-5.4016,-5.4005,-5.4008,-5.3991,-5.3994,-5.468,-5.5987,-5.5988,-5.5989,-5.5989,-5.5993,-5.5995,-5.5995,-5.5995,-5.5995,-5.6014,-5.621,-5.6307,-5.6327,-5.6523,-5.6601,-5.6601,-5.66,-5.6597,-5.6594,-5.6606,-5.6605,-5.6603,-5.6596,-5.6593,-5.661,-5.661,-5.6608,-5.6606,-5.6606,-5.6606,-5.6606,-5.6606,-5.6606,-5.6606,-5.6606,-5.6548,-5.6462,-5.6348,-5.6324,-5.6294,-5.6173,-5.6142,-5.6142,-5.6142,-5.6191,-5.6266,-5.6327,-5.6375,-5.6465,-5.6582,-5.5845,-5.53,-5.53,-5.4517,-5.3912,-5.3717,-5.3073,-5.2318,-5.1388,-5.1323,-5.1341,-5.1401,-5.139,-5.1394,-5.1394,-5.1394,-5.1394,-5.1394,-5.1394,-5.139,-5.1401,-5.1341,-5.1323,-2.6441,-2.636,-2.6396,-2.8876,-3.0161,-3.0997,-3.1758,-3.2583,-3.3445,-3.4258,-3.4378,0.0,0.0,0.0,0.0,0.0,0.0,0.0,0.0,0.0,0.0,0.0,0.0,0.0,0.0,0.0,0.0,0.0,0.0,0.0,0.0,0.0,0.0,-5.3993,-5.3993,-5.3997,-5.4001,-5.4001,-5.4058,-5.419,-5.4194,-5.4196,-5.4196,-5.4199,-5.4199,-5.4199,-5.4199,-5.4199,-5.4258,-5.5058,-5.539,-5.5469,-5.6289,-5.6601,-5.6601,-5.66,-5.6599,-5.6599,-5.6594,-5.6592,-5.6592,-5.6592,-5.6606,-5.66,-5.66,-5.6595,-5.6606,-5.6606,-5.6606,-5.6606,-5.6606,-5.6606,-5.6606,-5.6606,-5.6555,-5.6478,-5.6406,-5.6383,-5.6368,-5.6294,-5.6283,-5.6283,-5.6283,-5.6349,-5.639,-5.6391,-5.6446,-5.6531,-5.6584,-5.5845,-5.53,-5.53,-5.4517,-5.3678,-5.286,-5.2743,-5.2331,-5.1449,-5.139,-5.1392,-5.1392,-5.1394,-5.1394,-5.1394,-5.1394,-5.1394,-5.1394,-5.1394,-5.1394,-5.1392,-5.1392,-5.139,-2.5876,-2.5951,-2.62,-2.8267,-2.9807,-3.1309,-3.3267,-3.5222,-3.6884,-3.7759,-3.833,-3.8683,0.0,0.0,0.0,0.0,0.0,0.0,0.0,0.0,0.0,0.0,0.0,0.0,0.0,0.0,0.0,0.0,0.0,0.0,0.0,0.0,0.0,-5.2394,-5.2377,-5.238,-5.2381,-5.2382,-5.2382,-5.2401,-5.3476,-5.4003,-5.4003,-5.4004,-5.4004,-5.4004,-5.4004,-5.4004,-5.4062,-5.4941,-5.5293,-5.539,-5.6269,-5.6601,-5.6601,-5.6601,-5.6601,-5.6601,-5.6599,-5.6597,-5.6597,-5.6594,-5.6591,-5.6609,-5.6609,-5.6606,-5.6603,-5.6598,-5.6596,-5.6595,-5.6606,-5.6606,-5.6606,-5.6606,-5.6582,-5.6558,-5.6528,-5.652,-5.6514,-5.6482,-5.6498,-5.6498,-5.6498,-5.6508,-5.6517,-5.6523,-5.6553,-5.656,-5.6604,-5.6313,-5.6118,-5.6118,-5.5337,-5.4459,-5.358,-5.3014,-5.2331,-5.1453,-5.1394,-5.1394,-5.1394,-5.1394,-5.1394,-5.1394,-5.1394,-5.1394,-5.1394,-5.1394,-5.1394,-5.1394,-5.1394,-5.1394,-2.5467,-2.5504,-2.5832,-2.8135,-2.9967,-3.2037,-3.5206,-3.7531,-3.9327,-4.0459,-4.134,-4.183,-4.1553,0.0,0.0,0.0,0.0,0.0,0.0,0.0,0.0,0.0,0.0,0.0,0.0,0.0,0.0,0.0,0.0,0.0,0.0,0.0,0.0,0.0,-5.1405,-5.1405,-5.1405,-5.1406,-5.1406,-5.1406,-5.2617,-5.3183,-5.3183,-5.3183,-5.3183,-5.3183,-5.3183,-5.3183,-5.3242,-5.4121,-5.4805,-5.5351,-5.5957,-5.6367,-5.6601,-5.6601,-5.6601,-5.6601,-5.6601,-5.66,-5.66,-5.6598,-5.6597,-5.6595,-5.6595,-5.6594,-5.6592,-5.6606,-5.6605,-5.6603,-5.6595,-5.6608,-5.6606,-5.6606,-5.6606,-5.6606,-5.6606,-5.6606,-5.6606,-5.6606,-5.6606,-5.6606,-5.6606,-5.6606,-5.6606,-5.6606,-5.6606,-5.6606,-5.6606,-5.6606,-5.6606,-5.6606,-5.5825,-5.4947,-5.4068,-5.319,-5.2331,-5.1453,-5.1394,-5.1394,-5.1394,-5.1394,-5.1394,-5.1394,-5.1394,-5.1394,-5.1394,-5.1394,-5.1394,-5.1394,-5.1394,-5.1394,-2.5469,-2.5077,-2.5251,-2.8748,-3.0875,-3.3256,-3.7615,-3.9294,-4.0425,-4.2123,-4.3158,-4.3471,-4.2611,-4.3158,0.0,0.0,0.0,0.0,0.0,0.0,0.0,0.0,0.0,0.0,0.0,0.0,0.0,0.0,0.0,0.0,0.0,0.0,0.0,0.0,-5.1406,-5.1406,-5.1406,-5.1406,-5.1406,-5.1406,-5.1406,-5.1406,-5.1406,-5.1406,-5.1406,-5.1406,-5.1406,-5.1406,-5.1465,-5.2344,-5.3711,-5.5293,-5.5293,-5.582,-5.6582,-5.6601,-5.6601,-5.6601,-5.6601,-5.6601,-5.6601,-5.6601,-5.6601,-5.6599,-5.6599,-5.6597,-5.6593,-5.6593,-5.6593,-5.6592,-5.6603,-5.6595,-5.6606,-5.6606,-5.6606,-5.6606,-5.6606,-5.6606,-5.6606,-5.6606,-5.6606,-5.6606,-5.6606,-5.6606,-5.6606,-5.6606,-5.6606,-5.6606,-5.6606,-5.6606,-5.6606,-5.6606,-5.5806,-5.4947,-5.4068,-5.319,-5.2312,-5.1453,-5.1394,-5.1394,-5.1394,-5.1394,-5.1394,-5.1394,-5.1394,-5.1394,-5.1394,-5.1394,-5.1394,-5.1394,-5.1394,-5.1394,-2.6209,-2.6423,-2.691,-2.9798,0.0,-3.4742,-3.7889,-4.1131,-4.4315,-4.7284,-4.7126,-4.6362,-4.611,0.0,0.0,0.0,0.0,0.0,0.0,0.0,0.0,0.0,0.0,0.0,0.0,0.0,0.0,0.0,0.0,0.0,0.0,0.0,0.0,0.0,-5.1406,-5.1406,-5.1406,-5.1406,-5.1406,-5.1406,-5.1406,-5.1406,-5.1406,-5.1406,-5.1406,-5.1406,-5.1406,-5.1406,-5.1465,-5.2344,-5.3379,-5.4453,-5.5058,-5.5469,-5.5762,-5.6367,-5.6601,-5.6601,-5.6601,-5.6601,-5.6601,-5.6601,-5.6601,-5.6601,-5.6601,-5.6601,-5.66,-5.6599,-5.6597,-5.6597,-5.6592,-5.6607,-5.6603,-5.6608,-5.6606,-5.6606,-5.6606,-5.6606,-5.6606,-5.6606,-5.6606,-5.6606,-5.6606,-5.6606,-5.6606,-5.6606,-5.6606,-5.6606,-5.6606,-5.6606,-5.6606,-5.6606,-5.5279,-5.4283,-5.4029,-5.2644,-5.1687,-5.1414,-5.1394,-5.1394,-5.1394,-5.1394,-5.1394,-5.1394,-5.1394,-5.1394,-5.1394,-5.1394,-5.1394,-5.1394,-5.1394,-5.1394,-2.6522,-2.7244,0.0,-3.1169,-3.4099,-3.7381,-4.1718,0.0,0.0,0.0,-4.9355,-4.8416,-4.7734,0.0,0.0,0.0,0.0,0.0,0.0,0.0,0.0,0.0,0.0,0.0,0.0,0.0,0.0,0.0,0.0,0.0,0.0,0.0,0.0,0.0,-5.1406,-5.1406,-5.1406,-5.1406,-5.1406,-5.1406,-5.1406,-5.1406,-5.1406,-5.1406,-5.1406,-5.1406,-5.1406,-5.1406,-5.1445,-5.1973,-5.2695,-5.3535,-5.4062,-5.4687,-5.5351,-5.5898,-5.6308,-5.6601,-5.6601,-5.6601,-5.6601,-5.6601,-5.6601,-5.6601,-5.6601,-5.6601,-5.6601,-5.6601,-5.6601,-5.66,-5.6597,-5.6596,-5.6593,-5.6596,-5.6593,-5.6591,-5.6606,-5.6606,-5.6606,-5.6606,-5.6606,-5.6606,-5.6606,-5.6606,-5.6606,-5.6606,-5.6606,-5.6606,-5.6606,-5.6606,-5.6469,-5.6118,-5.483,-5.3854,-5.3502,-5.2195,-5.1394,-5.1394,-5.1394,-5.1394,-5.1394,-5.1394,-5.1394,-5.1394,-5.1394,-5.1394,-5.1394,-5.1394,-5.1394,-5.1394,-5.1394,-5.1394,-2.6699,-2.7812,-2.9257,-3.2754,-3.6308,0.0,-4.7383,-4.8281,-4.8203,-4.9941,0.0,-4.9824,0.0,0.0,0.0,0.0,0.0,0.0,0.0,0.0,0.0,0.0,0.0,0.0,0.0,0.0,0.0,0.0,0.0,0.0,0.0,0.0,0.0,-5.1406,-5.1406,-5.1406,-5.1406,-5.1406,-5.1406,0.0,-5.1406,-5.1406,-5.1406,-5.1406,-5.1406,-5.1406,-5.1406,-5.1406,-5.1406,-5.1406,-5.1875,-5.2598,-5.2676,-5.3711,-5.5195,-5.5273,-5.5859,-5.6601,-5.6601,-5.6601,-5.6601,-5.6601,-5.6601,-5.6601,-5.6601,-5.6601,-5.6601,-5.6601,-5.6601,-5.6601,-5.66,-5.66,-5.6598,-5.6607,-5.6603,-5.66,-5.6591,-5.6608,-5.6608,-5.6606,-5.6606,-5.6606,-5.6606,-5.6606,-5.6606,-5.6606,-5.6606,-5.6606,-5.6606,-5.6528,-5.6177,-5.5376,-5.4459,-5.3561,-5.2763,-5.1902,-5.1394,-5.1394,-5.1394,-5.1394,-5.1394,-5.1394,-5.1394,-5.1394,-5.1394,-5.1394,-5.1394,-5.1394,-5.1394,-5.1394,-5.1394,-5.1394,-2.8007,-2.9179,0.0,-3.4413,-3.8535,-4.2871,-4.7773,-4.875,-4.9101,-5.0781,-5.1133,0.0,0.0,0.0,0.0,0.0,0.0,0.0,0.0,0.0,0.0,0.0,0.0,0.0,0.0,0.0,0.0,0.0,0.0,0.0,0.0,0.0,0.0,-5.1406,-5.1406,-5.1406,-5.1406,-5.1406,-5.1406,0.0,-5.1406,-5.1406,-5.1406,-5.1406,-5.1406,-5.1406,-5.1406,-5.1406,-5.1406,-5.1406,-5.1504,-5.1758,-5.2422,-5.3359,-5.4355,-5.5058,-5.5859,-5.6601,-5.6601,-5.6601,-5.6601,-5.6601,-5.6601,-5.6601,-5.6601,-5.6601,-5.6601,-5.6601,-5.6601,-5.6601,-5.6601,-5.6601,-5.6601,-5.6598,-5.6594,-5.6591,-5.6609,-5.6607,-5.6606,-5.66,-5.6598,-5.6596,-5.6606,-5.6606,-5.6606,-5.6606,-5.6606,-5.6606,-5.6606,-5.6001,-5.5513,-5.5318,-5.3914,-5.2899,-5.2724,-5.1902,-5.1394,-5.1394,-5.1394,-5.1394,-5.1394,-5.1394,-5.1394,-5.1394,-5.1394,-5.1394,-5.1394,-5.1394,-5.1394,-5.1394,-5.1394,-5.1394,-2.7929,0.0,0.0,-3.7109,0.0,-4.4453,-4.7578,-4.8594,-4.9277,0.0,0.0,0.0,0.0,0.0,0.0,0.0,0.0,0.0,0.0,0.0,0.0,0.0,0.0,0.0,0.0,0.0,0.0,0.0,0.0,0.0,0.0,-5.1406,-5.1406,-5.1406,-5.1406,-5.1406,-5.1406,-5.1406,-5.1406,-5.1406,-5.1406,-5.1406,-5.1406,-5.1406,-5.1406,-5.1406,-5.1406,-5.1406,-5.1406,-5.1406,-5.1406,-5.1445,-5.1894,-5.2871,-5.4062,-5.4512,-5.5488,-5.6601,-5.6601,-5.6601,-5.6601,-5.6601,-5.6601,-5.6601,-5.6601,-5.6601,-5.6601,-5.6601,-5.6601,-5.6601,-5.6601,-5.6601,-5.6601,-5.6601,-5.6599,-5.6596,-5.6593,-5.6593,-5.6592,-5.6607,-5.6607,-5.6606,-5.6602,-5.6596,-5.6593,-5.6593,-5.6608,-5.6608,-5.6593,-5.62,-5.5591,-5.4771,-5.3854,-5.2975,-5.2156,-5.1654,-5.1402,-5.1402,-5.1402,-5.1403,-5.1407,-5.14,-5.1394,-5.1394,-5.1394,-5.1394,-5.1394,-5.14,-5.1402,-5.1402,-5.1407,-5.1408,-2.7187,-2.9883,-3.3301,-3.9629,-4.3008,0.0,-4.7168,-4.8164,-4.8926,0.0,0.0,0.0,0.0,0.0,0.0,0.0,0.0,0.0,0.0,0.0,0.0,0.0,0.0,0.0,0.0,0.0,0.0,0.0,0.0,0.0,-5.1406,-5.1406,-5.1406,-5.1406,-5.1406,-5.1406,-5.1406,-5.1406,-5.1406,-5.1406,-5.1406,-5.1406,-5.1406,-5.1406,-5.1406,-5.1406,-5.1406,-5.1406,-5.1406,-5.1406,-5.1406,-5.1406,-5.1406,-5.2461,-5.4004,-5.4004,-5.5098,-5.6601,-5.6601,-5.6601,-5.6601,-5.6601,-5.6601,-5.6601,-5.6601,-5.6601,-5.6601,-5.6601,-5.6601,-5.6601,-5.6601,-5.6601,-5.6601,-5.6601,-5.6601,-5.6599,-5.6597,-5.6596,-5.6595,-5.6594,-5.6593,-5.6593,-5.6593,-5.6607,-5.6603,-5.6603,-5.6596,-5.6595,-5.66,-5.6479,-5.581,-5.4383,-5.3955,-5.3196,-5.1751,-5.1485,-5.1391,-5.1391,-5.1391,-5.1394,-5.1398,-5.1407,-5.14,-5.14,-5.1396,-5.1394,-5.1394,-5.1405,-5.1409,-5.1409,-5.1396,-5.1398,-2.6426,0.0,-3.6269,0.0,-4.2558,-4.4531,0.0,0.0,0.0,0.0,0.0,0.0,0.0,0.0,0.0,0.0,0.0,0.0,0.0,0.0,0.0,0.0,0.0,0.0,0.0,0.0,0.0,0.0,0.0,0.0,-5.1406,-5.1406,-5.1406,-5.1406,-5.1406,-5.1406,-5.1406,-5.1406,-5.1406,-5.1406,-5.1406,-5.1406,-5.1406,-5.1406,-5.1406,-5.1406,-5.1406,-5.1406,-5.1406,-5.1406,-5.1406,-5.1406,-5.1406,-5.2461,-5.4004,-5.4004,-5.5098,-5.6601,-5.6601,-5.6601,-5.6601,-5.6601,-5.6601,-5.6601,-5.6601,-5.6601,-5.6601,-5.6601,-5.6601,-5.6601,-5.6601,-5.6601,-5.6601,-5.6601,-5.6601,-5.6601,-5.6601,-5.6601,-5.6601,-5.6599,-5.6596,-5.6593,-5.6593,-5.6592,-5.6592,-5.6592,-5.6591,-5.6607,-5.6602,-5.5944,-5.5379,-5.5157,-5.3775,-5.2783,-5.2548,-5.1827,-5.1397,-5.1397,-5.1397,-5.1397,-5.1398,-5.1397,-5.1396,-5.1396,-5.1403,-5.1394,-5.1394,-5.1405,-5.1409,-5.1409,-5.1396,-5.1398,-2.7363,-3.1445,-3.5508,0.0,-4.1738,-4.3535,-4.5664,0.0,0.0,0.0,0.0,0.0,0.0,0.0,0.0,0.0,0.0,0.0,0.0,0.0,0.0,0.0,0.0,0.0,0.0,0.0,0.0,0.0,0.0,-5.1406,-5.1406,-5.1406,-5.1406,-5.1406,-5.1406,-5.1406,-5.1406,-5.1406,-5.1406,-5.1406,-5.1406,-5.1406,-5.1406,-5.1406,-5.1406,-5.1406,-5.1406,-5.1406,-5.1406,-5.1406,-5.1406,-5.1406,-5.1406,-5.2461,-5.4004,-5.4004,-5.5098,-5.6601,-5.6601,-5.6601,-5.6601,-5.6601,-5.6601,-5.6601,-5.6601,-5.6601,-5.6601,-5.6601,-5.6601,-5.6601,-5.6601,-5.6601,-5.6601,-5.6601,-5.6601,-5.6601,-5.6601,-5.6601,-5.6601,-5.6601,-5.6601,-5.6599,-5.6597,-5.6597,-5.6597,-5.6597,-5.6595,-5.6593,-5.6594,-5.6262,-5.5831,-5.5341,-5.417,-5.3235,-5.2746,-5.1909,-5.1402,-5.1402,-5.1402,-5.1403,-5.1405,-5.1401,-5.14,-5.1402,-5.1395,-5.1409,-5.1409,-5.1397,-5.14,-5.14,-5.1404,-5.1405,-2.7715,-3.0801,-3.375,-3.7871,-4.0176,-4.1933,0.0,0.0,0.0,0.0,0.0,0.0,0.0,0.0,0.0,0.0,0.0,0.0,0.0,0.0,0.0,0.0,0.0,0.0,0.0,0.0,0.0,0.0,0.0,-5.1406,-5.1406,-5.1406,-5.1406,-5.1406,-5.1406,-5.1406,-5.1406,-5.1406,-5.1406,-5.1406,-5.1406,-5.1406,-5.1406,-5.1406,-5.1406,-5.1406,-5.1406,-5.1406,-5.1406,-5.1406,-5.1406,-5.1426,-5.1641,-5.2656,-5.4023,-5.4258,-5.5293,-5.6601,-5.6601,-5.6601,-5.6601,-5.6601,-5.6601,-5.6601,-5.6601,-5.6601,-5.6601,-5.6601,-5.6601,-5.6601,-5.6601,-5.6601,-5.6601,-5.6601,-5.6601,-5.6601,-5.6601,-5.6601,-5.6601,-5.6601,-5.6601,-5.6601,-5.6601,-5.66,-5.66,-5.66,-5.6599,-5.6597,-5.6599,-5.6598,-5.6343,-5.5697,-5.4644,-5.3746,-5.3081,-5.2029,-5.1405,-5.1405,-5.1405,-5.1406,-5.1406,-5.1404,-5.1403,-5.1405,-5.1403,-5.1401,-5.1398,-5.1403,-5.1405,-5.1405,-5.1406,-5.1523,-2.6386,-2.9042,-3.1855,-3.5332,-3.7519,0.0,0.0,0.0,0.0,0.0,0.0,0.0,0.0,0.0,0.0,0.0,0.0,0.0,0.0,0.0,0.0,0.0,0.0,0.0,0.0,0.0,0.0,0.0,0.0,-5.1406,-5.1406,-5.1406,-5.1406,-5.1406,-5.1406,-5.1406,-5.1406,-5.1406,-5.1406,-5.1406,-5.1406,-5.1406,-5.1406,-5.1406,-5.1406,-5.1406,-5.1406,-5.1406,-5.1406,-5.1406,-5.1406,-5.1484,-5.2305,-5.3183,-5.4101,-5.4922,-5.5801,-5.6601,-5.6601,-5.6601,-5.6601,-5.6601,-5.6601,-5.6601,-5.6601,-5.6601,-5.6601,-5.6601,-5.6601,-5.6601,-5.6601,-5.6601,-5.6601,-5.6601,-5.6601,-5.6601,-5.6601,-5.6601,-5.6601,-5.6601,-5.6601,-5.6601,-5.6601,-5.6601,-5.6601,-5.6601,-5.6601,-5.6601,-5.66,-5.6601,-5.6582,-5.6541,-5.5019,-5.3984,-5.3945,-5.2383,-5.1406,-5.1406,-5.1406,-5.1406,-5.1406,-5.1406,-5.1406,-5.1406,-5.1406,-5.1405,-5.1398,-5.1403,-5.1405,-5.1405,-5.1406,-5.1836,-2.476,-2.6832,0.0,-3.1992,-3.4844,-3.7461,0.0,0.0,0.0,0.0,0.0,0.0,0.0,0.0,0.0,0.0,0.0,0.0,0.0,0.0,0.0,0.0,0.0,0.0,0.0,0.0,0.0,0.0,0.0,0.0,-5.1367,-5.1406,-5.1406,-5.1406,-5.1406,-5.1406,-5.1406,-5.1406,-5.1406,-5.1406,-5.1406,-5.1406,-5.1406,-5.1406,-5.1406,-5.1406,-5.1406,-5.1406,-5.1406,-5.1406,-5.1738,-5.2266,-5.2578,-5.3574,-5.4863,-5.5176,-5.5859,-5.6601,-5.6601,-5.6601,-5.6601,-5.6601,-5.6601,-5.6601,-5.6601,-5.6601,-5.6601,-5.6601,-5.6601,-5.6601,-5.6601,-5.6601,-5.6601,-5.6601,-5.6601,-5.6601,-5.6601,-5.6601,-5.6601,-5.6601,-5.6601,-5.6601,-5.6601,-5.6601,-5.6601,-5.6601,-5.6601,-5.6601,-5.6601,-5.6601,-5.6601,-5.6601,-5.5547,-5.4824,-5.4824,-5.375,-5.3066,-5.3066,-5.3066,-5.3066,-5.3066,-5.3066,-5.3066,-5.3066,-5.3066,-5.2519,-5.1405,-5.1406,-5.1406,-5.1406,-5.1406,-5.1875,-2.3208,-2.4795,0.0,0.0,0.0,0.0,0.0,0.0,0.0,0.0,0.0,0.0,0.0,0.0,0.0,0.0,0.0,0.0,0.0,0.0,0.0,0.0,0.0,0.0,0.0,0.0,0.0,0.0,0.0,0.0,-5.1367,-5.1406,-5.1406,-5.1406,-5.1406,-5.1406,-5.1406,-5.1406,-5.1406,-5.1406,-5.1406,-5.1406,-5.1406,-5.1406,-5.1406,-5.1406,-5.1406,-5.1406,-5.1406,-5.1406,-5.1738,-5.2324,-5.291,-5.3848,-5.4922,-5.5527,-5.6094,-5.6601,-5.6601,-5.6601,-5.6601,-5.6601,-5.6601,-5.6601,-5.6601,-5.6601,-5.6601,-5.6601,-5.6601,-5.6601,-5.6601,-5.6601,-5.6601,-5.6601,-5.6601,-5.6601,-5.6601,-5.6601,-5.6601,-5.6601,-5.6601,-5.6601,-5.6601,-5.6601,-5.6601,-5.6601,-5.6601,-5.6601,-5.6601,-5.6601,-5.6601,-5.6601,-5.582,-5.5293,-5.5293,-5.4492,-5.4004,-5.4004,-5.4004,-5.4004,-5.4004,-5.4004,-5.4004,-5.4004,-5.4004,-5.3437,-5.2266,-5.2266,-5.2266,-5.2266,-5.2266,-5.2734,0.0,0.0,0.0,0.0,0.0,0.0,0.0,0.0,0.0,0.0,0.0,0.0,0.0,0.0,0.0,0.0,0.0,0.0,0.0,0.0,0.0,0.0,0.0,0.0,0.0,0.0,0.0,0.0,0.0,-5.0488,-5.1289,-5.1328,-5.1328,-5.1328,-5.1348,-5.1367,-5.1367,-5.1387,-5.1406,-5.1406,-5.1406,-5.1406,-5.1406,-5.1406,-5.1406,-5.1406,-5.1406,-5.1406,-5.1406,-5.1406,-5.1426,-5.1601,-5.3301,-5.3984,-5.4238,-5.5937,-5.6582,-5.6601,-5.6601,-5.6601,-5.6601,-5.6601,-5.6601,-5.6601,-5.6601,-5.6601,-5.6601,-5.6601,-5.6601,-5.6601,-5.6601,-5.6601,-5.6601,-5.6601,-5.6601,-5.6601,-5.6601,-5.6601,-5.6601,-5.6601,-5.6601,-5.6601,-5.6601,-5.6601,-5.6601,-5.6601,-5.6601,-5.6601,-5.6601,-5.6601,-5.6601,-5.6601,-5.584,-5.5332,-5.5332,-5.4551,-5.4082,-5.4082,-5.4082,-5.4082,-5.4082,-5.4082,-5.4082,-5.4082,-5.4082,-5.4082,-5.4082,-5.4023,-5.4004,-5.4004,-5.4023,-5.4492,-2.1571,0.0,0.0,0.0,0.0,0.0,0.0,0.0,0.0,0.0,0.0,0.0,0.0,0.0,0.0,0.0,0.0,0.0,0.0,0.0,0.0,0.0,0.0,0.0,0.0,0.0,0.0,0.0,-4.832,-4.8691,-4.9551,-4.959,-4.959,-4.959,-5.0195,-5.0527,-5.0527,-5.1113,-5.1406,-5.1406,-5.1406,-5.1406,-5.1406,-5.1406,-5.1406,-5.1406,-5.1406,-5.1406,-5.1406,-5.1406,-5.1777,-5.2383,-5.2871,-5.3828,-5.5,-5.5488,-5.6055,-5.6601,-5.6601,-5.6601,-5.6601,-5.6601,-5.6601,-5.6601,-5.6601,-5.6601,-5.6601,-5.6601,-5.6601,-5.6601,-5.6601,-5.6601,-5.6601,-5.6601,-5.6601,-5.6601,-5.6601,-5.6601,-5.6601,-5.6601,-5.6601,-5.6601,-5.6601,-5.6601,-5.6601,-5.6601,-5.6601,-5.6601,-5.6601,-5.6601,-5.6601,-5.6601,-5.6387,-5.623,-5.623,-5.6015,-5.5879,-5.5879,-5.5879,-5.5879,-5.5879,-5.5879,-5.5879,-5.5879,-5.5879,-5.5879,-5.5879,-5.4609,-5.4004,-5.4023,-5.4648,-5.5078,-2.2111,-2.2265,-2.2408,0.0,0.0,0.0,0.0,-2.919,0.0,0.0,0.0,0.0,0.0,0.0,0.0,0.0,0.0,0.0,0.0,0.0,0.0,0.0,0.0,0.0,0.0,0.0,0.0,-4.7539,-4.7598,-4.7988,-4.8848,-4.8906,-4.8906,-4.8906,-4.9746,-5.0195,-5.0195,-5.0996,-5.1406,-5.1406,-5.1406,-5.1406,-5.1406,-5.1406,-5.1406,-5.1406,-5.1406,-5.1406,-5.1406,-5.1406,-5.1699,-5.2187,-5.2558,-5.332,-5.4297,-5.5039,-5.5625,-5.6113,-5.6465,-5.6601,-5.6601,-5.6601,-5.6601,-5.6601,-5.6601,-5.6601,-5.6601,-5.6601,-5.6601,-5.6601,-5.6601,-5.6601,-5.6601,-5.6601,-5.6601,-5.6601,-5.6601,-5.6601,-5.6601,-5.6601,-5.6601,-5.6601,-5.6601,-5.6601,-5.6601,-5.6601,-5.6601,-5.6601,-5.6601,-5.6601,-5.6601,-5.6601,-5.6601,-5.6601,-5.6601,-5.6601,-5.6601,-5.6601,-5.6601,-5.6601,-5.6601,-5.6601,-5.6601,-5.6601,-5.6601,-5.6601,-5.6601,-5.5586,-5.5078,-5.5098,-5.5605,-5.584,-2.3382,-2.3262,-2.3162,-2.3252,0.0,0.0,-2.533,-2.7374,0.0,0.0,0.0,0.0,0.0,0.0,0.0,0.0,0.0,0.0,0.0,0.0,0.0,0.0,0.0,0.0,0.0,-4.6016,-4.6367,-4.7246,-4.7402,-4.7793,-4.8574,-4.8613,-4.8613,-4.8613,-4.9453,-4.9902,-4.9902,-5.0801,-5.1269,-5.1269,-5.1367,-5.1406,-5.1406,-5.1406,-5.1406,-5.1406,-5.1406,-5.1406,-5.1406,-5.1406,-5.1406,-5.1484,-5.2246,-5.2617,-5.2891,-5.4551,-5.5215,-5.543,-5.6308,-5.6601,-5.6601,-5.6601,-5.6601,-5.6601,-5.6601,-5.6601,-5.6601,-5.6601,-5.6601,-5.6601,-5.6601,-5.6601,-5.6601,-5.6601,-5.6601,-5.6601,-5.6601,-5.6601,-5.6601,-5.6601,-5.6601,-5.6601,-5.6601,-5.6601,-5.6601,-5.6601,-5.6601,-5.6601,-5.6601,-5.6601,-5.6601,-5.6601,-5.6601,-5.6601,-5.6601,-5.6601,-5.6601,-5.6601,-5.6601,-5.6601,-5.6601,-5.6601,-5.6601,-5.6601,-5.6601,-5.6601,-5.6601,-5.6601,-5.6601,-5.6601,-5.6601,-5.6601,-2.579,-2.4984,-2.414,-2.4844,0.0,0.0,-2.4365,-2.5505,0.0,0.0,0.0,0.0,0.0,0.0,0.0,0.0,0.0,0.0,0.0,0.0,0.0,0.0,0.0,0.0,0.0,-4.4219,-4.457,-4.5449,-4.6152,-4.6621,-4.6797,-4.6816,-4.6816,-4.6816,-4.7656,-4.8105,-4.8105,-4.9648,-5.043,-5.0449,-5.1094,-5.1406,-5.1406,-5.1406,-5.1406,-5.1406,-5.1406,-5.1406,-5.1406,-5.1406,-5.1406,-5.1426,-5.1582,-5.207,-5.2832,-5.3867,-5.4707,-5.543,-5.6308,-5.6601,-5.6601,-5.6601,-5.6601,-5.6601,-5.6601,-5.6601,-5.6601,-5.6601,-5.6601,-5.6601,-5.6601,-5.6601,-5.6601,-5.6601,-5.6601,-5.6601,-5.6601,-5.6601,-5.6601,-5.6601,-5.6601,-5.6601,-5.6601,-5.6601,-5.6601,-5.6601,-5.6601,-5.6601,-5.6601,-5.6601,-5.6601,-5.6601,-5.6601,-5.6601,-5.6601,-5.6601,-5.6601,-5.6601,-5.6601,-5.6601,-5.6601,-5.6601,-5.6601,-5.6601,-5.6601,-5.6601,-5.6601,-5.6601,-5.6601,-5.6601,-5.6601,-5.6601,-2.7232,-2.6729,-2.5994,-2.5608,0.0,0.0,0.0,0.0,-2.6094,0.0,0.0,0.0,0.0,0.0,0.0,0.0,0.0,0.0,0.0,0.0,0.0,0.0,0.0,0.0,0.0,-4.3691,-4.4062,-4.4922,-4.5801,-4.6308,-4.6308,-4.6308,-4.6308,-4.6308,-4.7148,-4.7598,-4.7598,-4.9336,-5.0195,-5.0215,-5.1016,-5.1406,-5.1406,-5.1406,-5.1406,-5.1406,-5.1406,-5.1406,-5.1406,-5.1406,-5.1406,-5.1406,-5.1406,-5.168,-5.2207,-5.3516,-5.4277,-5.4844,-5.6152,-5.6601,-5.6601,-5.6601,-5.6601,-5.6601,-5.6601,-5.6601,-5.6601,-5.6601,-5.6601,-5.6601,-5.6601,-5.6601,-5.6601,-5.6601,-5.6601,-5.6601,-5.6601,-5.6601,-5.6601,-5.6601,-5.6601,-5.6601,-5.6601,-5.6601,-5.6601,-5.6601,-5.6601,-5.6601,-5.6601,-5.6601,-5.6601,-5.6601,-5.6601,-5.6601,-5.6601,-5.6601,-5.6601,-5.6601,-5.6601,-5.6601,-5.6601,-5.6601,-5.6601,-5.6601,-5.6601,-5.6601,-5.6601,-5.6601,-5.6601,-5.6601,-5.6601,-5.6601,0.0,0.0,0.0,0.0,0.0,-2.5522,0.0,0.0,0.0,-2.6496,0.0,0.0,0.0,0.0,0.0,0.0,0.0,0.0,0.0,0.0,0.0,0.0,0.0,0.0,0.0,-4.2617,-4.3144,-4.4199,-4.4922,-4.5469,-4.5781,-4.5957,-4.6055,-4.6055,-4.6894,-4.7344,-4.7344,-4.8906,-4.9707,-4.9707,-5.0703,-5.1172,-5.1172,-5.1328,-5.1406,-5.1406,-5.1406,-5.1406,-5.1406,-5.1406,-5.1406,-5.1406,-5.1406,-5.1406,-5.1601,-5.3359,-5.4004,-5.4258,-5.5996,-5.6601,-5.6601,-5.6601,-5.6601,-5.6601,-5.6601,-5.6601,-5.6601,-5.6601,-5.6601,-5.6601,-5.6601,-5.6601,-5.6601,-5.6601,-5.6601,-5.6601,-5.6601,-5.6601,-5.6601,-5.6601,-5.6601,-5.6601,-5.6601,-5.6601,-5.6601,-5.6601,-5.6601,-5.6601,-5.6601,-5.6601,-5.6601,-5.6601,-5.6601,-5.6601,-5.6601,-5.6601,-5.6601,-5.6601,-5.6601,-5.6601,-5.6601,-5.6601,-5.6601,-5.6601,-5.6601,-5.6601,-5.6601,-5.6601,-5.6601,-5.6601,-5.6601,-5.6601,0.0,0.0,0.0,0.0,-2.7716,0.0,0.0,0.0,-2.5546,-2.5646,0.0,0.0,0.0,0.0,0.0,0.0,0.0,0.0,0.0,0.0,0.0,0.0,0.0,0.0,0.0,0.0,-3.9863,-4.1504,-4.1719,-4.2422,-4.3926,-4.4726,-4.5156,-4.5156,-4.5996,-4.6445,-4.6445,-4.7402,-4.7891,-4.793,-4.9551,-5.0332,-5.0351,-5.1074,-5.1406,-5.1406,-5.1406,-5.1406,-5.1406,-5.1406,-5.1406,-5.1405,-5.1406,-5.1406,-5.1601,-5.3359,-5.4004,-5.4258,-5.5996,-5.6601,-5.6601,-5.6601,-5.6601,-5.6601,-5.6601,-5.6601,-5.6601,-5.6601,-5.6601,-5.6601,-5.6601,-5.6601,-5.6601,-5.6601,-5.6601,-5.6601,-5.6601,-5.6601,-5.6601,-5.6601,-5.6601,-5.6601,-5.6601,-5.6601,-5.6601,-5.6601,-5.6601,-5.6601,-5.6601,-5.6601,-5.6601,-5.6601,-5.6601,-5.6601,-5.6601,-5.6601,-5.6601,-5.6601,-5.6601,-5.6601,-5.6601,-5.6601,-5.6601,-5.6601,-5.6601,-5.6601,-5.6601,-5.6601,-5.6601,-5.6601,-5.6601,-5.6601,0.0,0.0,0.0,0.0,0.0,0.0,-2.5801,0.0,-2.5623,0.0,0.0,0.0,0.0,0.0,0.0,0.0,0.0,0.0,0.0,0.0,0.0,0.0,0.0,0.0,0.0,0.0,0.0,0.0,0.0,-4.1172,-4.2851,-4.4258,-4.5,-4.5,-4.5859,-4.6308,-4.6308,-4.7168,-4.7598,-4.7617,-4.9375,-5.0195,-5.0234,-5.1035,-5.1406,-5.1406,-5.1406,-5.1406,-5.1406,-5.1406,-5.1406,-5.1404,-5.1359,-5.136,-5.1618,-5.3357,-5.4001,-5.4256,-5.5995,-5.6601,-5.6601,-5.6601,-5.6601,-5.6601,-5.6601,-5.6601,-5.6601,-5.6601,-5.6601,-5.6601,-5.6601,-5.6601,-5.6601,-5.6601,-5.6601,-5.6601,-5.6601,-5.6601,-5.6601,-5.6601,-5.6601,-5.6601,-5.6601,-5.6601,-5.6601,-5.6601,-5.6601,-5.6601,-5.6601,-5.6601,-5.6601,-5.6601,-5.6601,-5.6601,-5.6601,-5.6601,-5.6601,-5.6601,-5.6601,-5.6601,-5.6601,-5.6601,-5.6601,-5.6601,-5.6601,-5.6601,-5.6601,-5.6601,-5.6601,-5.6601,-5.6601,-5.6601,-3.3861,0.0,0.0,0.0,0.0,0.0,0.0,0.0,0.0,0.0,0.0,0.0,0.0,0.0,0.0,0.0,0.0,0.0,0.0,0.0,0.0,0.0,0.0,0.0,0.0,0.0,0.0,0.0,0.0,0.0,-4.0898,-4.2851,-4.3925,-4.3925,-4.5234,-4.5937,-4.5937,-4.6816,-4.7246,-4.7265,-4.9004,-4.9843,-4.9882,-5.0917,-5.1406,-5.1406,-5.1406,-5.1406,-5.1405,-5.1405,-5.1382,-5.1372,-5.1306,-5.1299,-5.1525,-5.3292,-5.3961,-5.4221,-5.5967,-5.6578,-5.6601,-5.6601,-5.6601,-5.6601,-5.6601,-5.6601,-5.6601,-5.6601,-5.6601,-5.6601,-5.6601,-5.6601,-5.6601,-5.6601,-5.6601,-5.6601,-5.6601,-5.6601,-5.6601,-5.6601,-5.6601,-5.6601,-5.6601,-5.6601,-5.6601,-5.6601,-5.6601,-5.6601,-5.6601,-5.6601,-5.6601,-5.6601,-5.6601,-5.6601,-5.6601,-5.6601,-5.6601,-5.6601,-5.6601,-5.6601,-5.6601,-5.6601,-5.6601,-5.6601,-5.6601,-5.6601,-5.6601,-5.6601,-5.6601,-5.6601,-5.6601,-5.6601,0.0,0.0,0.0,-3.0984,0.0,0.0,0.0,0.0,-2.6663,0.0,0.0,0.0,0.0,0.0,-2.6702,-2.6702,0.0,0.0,0.0,0.0,0.0,0.0,0.0,0.0,0.0,0.0,0.0,0.0,0.0,0.0,-3.7339,-3.9858,-4.1225,-4.1225,-4.3704,-4.5032,-4.5032,-4.5915,-4.6345,-4.6361,-4.8102,-4.8942,-4.8996,-5.0656,-5.1398,-5.1399,-5.1404,-5.1401,-5.1391,-5.1391,-5.1369,-5.1294,-5.1234,-5.1171,-5.1332,-5.3135,-5.3845,-5.4153,-5.5897,-5.6551,-5.6601,-5.6601,-5.6601,-5.6601,-5.6601,-5.6601,-5.6601,-5.6601,-5.6601,-5.6601,-5.6601,-5.6601,-5.6601,-5.6601,-5.6601,-5.6601,-5.6601,-5.6601,-5.6601,-5.6601,-5.6601,-5.6601,-5.6601,-5.6601,-5.6601,-5.6601,-5.6601,-5.6601,-5.6601,-5.6601,-5.6601,-5.6601,-5.6601,-5.6601,-5.6601,-5.6601,-5.6601,-5.6601,-5.6601,-5.6601,-5.6601,-5.6601,-5.6601,-5.6601,-5.6601,-5.6601,-5.6601,-5.6601,-5.6601,-5.6601,-5.6601,-5.6601,0.0,0.0,-3.4408,-3.2681,0.0,0.0,0.0,0.0,0.0,0.0,0.0,0.0,0.0,0.0,-2.9089,-2.8509,-2.7228,0.0,0.0,0.0,0.0,0.0,0.0,0.0,0.0,0.0,0.0,0.0,0.0,0.0,0.0,-3.8766,-4.0442,-4.1025,-4.3539,-4.4892,-4.4928,-4.58,-4.6255,-4.6316,-4.7987,-4.8777,-4.8823,-5.0462,-5.1236,-5.128,-5.1264,-5.1288,-5.1338,-5.1299,-5.1252,-5.1226,-5.1061,-5.0985,-5.1192,-5.2999,-5.3711,-5.4039,-5.585,-5.6543,-5.6601,-5.6601,-5.6601,-5.6601,-5.6601,-5.6601,-5.6601,-5.6601,-5.6601,-5.6601,-5.6601,-5.6601,-5.6601,-5.6601,-5.6601,-5.6601,-5.6601,-5.6601,-5.6601,-5.6601,-5.6601,-5.6601,-5.6601,-5.6601,-5.6601,-5.6601,-5.6601,-5.6601,-5.6601,-5.6601,-5.6601,-5.6601,-5.6601,-5.6601,-5.6601,-5.6601,-5.6601,-5.6601,-5.6601,-5.6601,-5.6601,-5.6601,-5.6601,-5.6601,-5.6601,-5.6601,-5.6601,-5.6601,-5.6601,-5.6601,-5.6601,-5.6601,-3.827,-3.7193,0.0,-3.4383,-3.2739,0.0,-2.9326,0.0,0.0,0.0,0.0,0.0,0.0,0.0,0.0,-2.9825,-2.8012,-2.6315,0.0,0.0,0.0,0.0,0.0,0.0,0.0,0.0,-2.8308,-2.971,-2.9808,0.0,0.0,0.0,-3.8847,-4.0049,-4.285,-4.4368,-4.4434,-4.5614,-4.621,-4.6288,-4.7913,-4.8691,-4.872,-5.032,-5.1108,-5.117,-5.1195,-5.1222,-5.1269,-5.1191,-5.1146,-5.1114,-5.0925,-5.0856,-5.1045,-5.2828,-5.3928,-5.4708,-5.5969,-5.6475,-5.6531,-5.6576,-5.66,-5.6601,-5.6601,-5.6601,-5.6601,-5.6601,-5.6601,-5.6601,-5.6601,-5.6601,-5.6601,-5.6601,-5.6601,-5.6601,-5.6601,-5.6601,-5.6601,-5.6601,-5.6601,-5.6601,-5.6601,-5.6601,-5.6601,-5.6601,-5.6601,-5.6601,-5.6601,-5.6601,-5.6601,-5.6601,-5.6601,-5.6601,-5.6601,-5.6601,-5.6601,-5.6601,-5.6601,-5.6601,-5.6601,-5.6601,-5.6601,-5.6601,-5.6601,-5.6601,-5.6601,-5.6601,-5.6601,-5.6601,-5.6601,-5.6601]},{"header":{"parameterUnit":"m.s-1","parameterCategory":1,"la1":30.6,"la2":29.2853,"lo1":-89.7004,"lo2":-87.6739,"dy":0.0162,"dx":0.0183,"nx":112,"ny":82,"refTime":"2026-04-21T00:00:00:Z","depth":0,"parameterNumber":3,"parameterNumberName":"V-component_of_WINDS"},"data":[0.0,0.0,0.0,0.0,0.0,0.0,0.0,0.0,0.0,0.0,0.0,0.0,0.0,0.0,0.0,0.0,0.0,0.0,0.0,0.0,0.0,0.0,0.0,0.0,0.0,0.0,0.0,0.0,0.0,0.0,0.0,0.0,0.0,0.0,0.0,0.0,0.0,0.0,0.0,0.0,0.0,0.0,0.0,0.0,0.0,0.0,0.0,0.0,0.0,0.0,0.0,0.0,0.0,0.0,0.0,0.0,0.0,0.0,0.0,0.0,0.0,0.0,0.0,0.0,0.0,0.0,0.0,0.0,0.0,0.0,0.0,0.0,0.0,0.0,0.0,0.0,0.0,0.0,0.0,0.0,0.0,0.0,0.0,0.0,0.0,0.0,0.0,0.0,0.0,0.0,0.0,-1.1547,-1.2655,-1.2682,-1.1041,-0.9675,-0.8454,-0.737,0.0,0.0,0.0,0.0,0.0,0.0,0.0,0.0,0.0,0.0,0.0,0.0,0.0,0.0,0.0,0.0,0.0,0.0,0.0,0.0,0.0,0.0,0.0,0.0,0.0,0.0,0.0,0.0,0.0,0.0,0.0,0.0,0.0,0.0,0.0,0.0,0.0,0.0,0.0,0.0,0.0,0.0,0.0,0.0,0.0,0.0,0.0,0.0,0.0,0.0,0.0,0.0,0.0,0.0,0.0,0.0,0.0,0.0,0.0,0.0,0.0,0.0,0.0,0.0,0.0,0.0,0.0,0.0,0.0,0.0,0.0,0.0,0.0,0.0,0.0,0.0,0.0,0.0,0.0,0.0,0.0,0.0,0.0,0.0,0.0,0.0,0.0,0.0,0.0,0.0,0.0,0.0,0.0,0.0,0.0,0.0,0.0,0.0,0.0,0.0,0.0,0.0,0.0,0.0,-1.0551,-1.2772,-1.3261,-1.2809,-1.1415,-0.9918,-0.8566,-0.7359,0.0,0.0,0.0,0.0,0.0,0.0,0.0,0.0,0.0,0.0,0.0,0.0,0.0,0.0,0.0,0.0,0.0,0.0,0.0,0.0,0.0,0.0,0.0,0.0,0.0,0.0,0.0,0.0,0.0,0.0,0.0,0.0,0.0,0.0,0.0,0.0,0.0,0.0,0.0,0.0,0.0,0.0,0.0,0.0,0.0,0.0,0.0,0.0,0.0,0.0,0.0,0.0,0.0,0.0,0.0,0.0,0.0,0.0,0.0,0.0,0.0,0.0,0.0,0.0,0.0,0.0,0.0,0.0,0.0,0.0,0.0,0.0,0.0,0.0,0.0,0.0,0.0,0.0,0.0,0.0,0.0,0.0,0.0,0.0,0.0,0.0,0.0,0.0,0.0,0.0,0.0,0.0,0.0,0.0,0.0,0.0,0.0,0.0,0.0,0.0,0.0,0.0,0.0,-1.0902,-1.221,-1.3233,-1.3686,-1.3156,-1.1379,-0.9999,-0.8661,-0.7368,-0.5763,0.0,0.0,0.0,0.0,0.0,0.0,0.0,0.0,0.0,0.0,0.0,0.0,0.0,0.0,0.0,0.0,0.0,0.0,0.0,0.0,0.0,0.0,0.0,0.0,0.0,0.0,0.0,0.0,0.0,0.0,0.0,0.0,0.0,0.0,0.0,0.0,0.0,0.0,0.0,0.0,0.0,0.0,0.0,0.0,0.0,0.0,0.0,0.0,0.0,0.0,0.0,0.0,0.0,0.0,0.0,0.0,0.0,0.0,0.0,0.0,0.0,0.0,0.0,0.0,0.0,0.0,0.0,0.0,0.0,0.0,0.0,0.0,0.0,0.0,0.0,0.0,0.0,0.0,0.0,0.0,0.0,0.0,0.0,0.0,0.0,0.0,0.0,0.0,0.0,0.0,0.0,0.0,0.0,0.0,0.0,0.0,0.0,0.0,0.0,0.0,0.0,0.0,-1.2705,-1.382,-1.3782,-1.4099,-1.3507,-1.1571,-1.0121,-0.8732,-0.7448,-0.5918,0.0,0.0,0.0,0.0,0.0,0.0,0.0,0.0,0.0,0.0,0.0,0.0,0.0,0.0,0.0,0.0,0.0,0.0,0.0,0.0,0.0,0.0,0.0,0.0,0.0,0.0,0.0,0.0,0.0,0.0,0.0,0.0,0.0,0.0,0.0,0.0,0.0,0.0,0.0,0.0,0.0,0.0,0.0,0.0,0.0,0.0,0.0,0.0,0.0,0.0,0.0,0.0,0.0,0.0,0.0,0.0,0.0,0.0,0.0,0.0,0.0,0.0,0.0,0.0,0.0,0.0,0.0,0.0,0.0,0.0,0.0,0.0,0.0,0.0,0.0,0.0,0.0,0.0,0.0,0.0,0.0,0.0,0.0,0.0,0.0,0.0,0.0,0.0,0.0,0.0,0.0,0.0,0.0,0.0,0.0,0.0,0.0,0.0,0.0,0.0,0.0,0.0,-1.3186,-1.4537,-1.4865,-1.4559,-1.3795,-1.2497,-1.0496,-0.8798,-0.7649,-0.5914,0.0,0.0,0.0,0.0,0.0,0.0,0.0,0.0,0.0,0.0,0.0,0.0,0.0,0.0,0.0,0.0,0.0,0.0,0.0,0.0,0.0,0.0,0.0,0.0,0.0,0.0,0.0,0.0,0.0,0.0,0.0,0.0,0.0,0.0,0.0,0.0,0.0,0.0,0.0,0.0,0.0,0.0,0.0,0.0,0.0,0.0,0.0,0.0,0.0,0.0,0.0,0.0,0.0,0.0,0.0,0.0,0.0,0.0,0.0,0.0,0.0,0.0,0.0,0.0,0.0,0.0,0.0,0.0,0.0,0.0,0.0,0.0,0.0,0.0,0.0,0.0,0.0,0.0,0.0,0.0,0.0,0.0,0.0,0.0,0.0,0.0,0.0,0.0,0.0,0.0,0.0,0.0,0.0,0.0,0.0,0.0,0.0,0.0,0.0,0.0,0.0,0.0,-1.3106,-1.4294,0.0,-1.4372,-1.3625,-1.2024,-1.0569,-0.9004,-0.7319,0.0,0.0,0.0,0.0,0.0,0.0,0.0,0.0,0.0,0.0,0.0,0.0,0.0,0.0,0.0,0.0,0.0,0.0,0.0,0.0,0.0,0.0,0.0,0.0,0.0,0.0,0.0,0.0,0.0,0.0,0.0,0.0,0.0,0.0,0.0,0.0,0.0,0.0,0.0,0.0,0.0,0.0,0.0,0.0,0.0,0.0,0.0,0.0,0.0,0.0,0.0,0.0,0.0,0.0,0.0,0.0,0.0,0.0,0.0,0.0,0.0,0.0,0.0,0.0,0.0,0.0,0.0,0.0,0.0,0.0,0.0,0.0,0.0,0.0,0.0,0.0,0.0,0.0,0.0,0.0,0.0,0.0,0.0,0.0,0.0,0.0,0.0,0.0,0.0,0.0,0.0,0.0,0.0,0.0,0.0,0.0,0.0,0.0,0.0,0.0,0.0,0.0,-1.1508,-1.2943,-1.3924,0.0,-1.3945,-1.314,-1.1559,-1.0481,-0.9096,-0.7215,0.0,0.0,0.0,0.0,0.0,0.0,0.0,0.0,0.0,0.0,0.0,0.0,0.0,0.0,0.0,0.0,0.0,0.0,0.0,0.0,0.0,0.0,0.0,0.0,0.0,0.0,0.0,0.0,0.0,0.0,0.0,0.0,0.0,0.0,0.0,0.0,0.0,0.0,0.0,0.0,0.0,0.0,0.0,0.0,0.0,0.0,0.0,0.0,0.0,0.0,0.0,0.0,0.0,0.0,0.0,0.0,0.0,0.0,0.0,0.0,0.0,0.0,0.0,0.0,0.0,0.0,0.0,0.0,0.0,0.0,0.0,0.0,0.0,0.0,0.0,0.0,0.0,0.0,0.0,0.0,0.0,0.0,0.0,0.0,0.0,0.0,0.0,0.0,0.0,0.0,0.0,0.0,0.0,0.0,0.0,0.0,0.0,0.0,0.0,0.0,0.0,0.0,-1.1737,-1.2799,-1.3551,-1.3849,-1.3167,-1.2299,-1.1373,-1.0268,-0.8937,0.0,0.0,0.0,0.0,0.0,0.0,0.0,0.0,0.0,0.0,0.0,0.0,0.0,0.0,0.0,0.0,0.0,0.0,0.0,0.0,0.0,0.0,0.0,0.0,0.0,0.0,0.0,0.0,0.0,0.0,0.0,0.0,0.0,0.0,0.0,0.0,0.0,0.0,0.0,0.0,0.0,0.0,0.0,0.0,0.0,0.0,0.0,0.0,0.0,0.0,0.0,0.0,0.0,0.0,0.0,0.0,0.0,0.0,0.0,0.0,0.0,0.0,0.0,0.0,0.0,0.0,0.0,0.0,0.0,0.0,0.0,0.0,0.0,0.0,0.0,0.0,0.0,0.0,0.0,0.0,0.0,0.0,0.0,0.0,0.0,0.0,0.0,0.0,0.0,0.0,0.0,0.0,0.0,0.0,0.0,0.0,0.0,0.0,0.0,0.0,0.0,0.0,0.0,-1.1808,-1.2971,-1.3661,-1.3621,-1.3093,-1.2268,-1.0975,-1.0028,-0.8813,-0.7185,0.0,0.0,0.0,0.0,0.0,0.0,0.0,0.0,0.0,0.0,0.0,0.0,0.0,0.0,0.0,0.0,0.0,0.0,0.0,0.0,0.0,0.0,0.0,0.0,0.0,0.0,0.0,0.0,0.0,0.0,0.0,0.0,0.0,0.0,0.0,0.0,0.0,0.0,0.0,0.0,0.0,0.0,0.0,0.0,0.0,0.0,0.0,0.0,0.0,0.0,0.0,0.0,0.0,0.0,0.0,0.0,0.0,0.0,0.0,0.0,0.0,0.0,0.0,0.0,0.0,0.0,0.0,0.0,0.0,0.0,0.0,0.0,0.0,0.0,0.0,0.0,0.0,0.0,0.0,0.0,0.0,0.0,0.0,0.0,0.0,0.0,0.0,0.0,0.0,0.0,0.0,0.0,0.0,0.0,0.0,0.0,0.0,0.0,0.0,0.0,0.0,0.0,-1.1954,-1.3021,-1.3614,-1.3525,-1.27,-1.1733,-1.0611,-0.9701,-0.8539,-0.7179,0.0,0.0,0.0,0.0,0.0,0.0,0.0,0.0,0.0,0.0,0.0,0.0,0.0,0.0,0.0,0.0,0.0,0.0,0.0,0.0,0.0,0.0,0.0,0.0,0.0,0.0,0.0,0.0,0.0,0.0,0.0,0.0,0.0,0.0,0.0,0.0,0.0,0.0,0.0,0.0,0.0,0.0,0.0,0.0,0.0,0.0,0.0,0.0,0.0,0.0,0.0,0.0,0.0,0.0,0.0,0.0,0.0,0.0,0.0,0.0,0.0,0.0,0.0,0.0,0.0,0.0,0.0,0.0,0.0,0.0,0.0,0.0,0.0,0.0,0.0,0.0,0.0,0.0,0.0,0.0,0.0,0.0,0.0,0.0,0.0,0.0,0.0,0.0,0.0,0.0,0.0,0.0,0.0,0.0,0.0,0.0,0.0,0.0,0.0,0.0,0.0,0.0,-1.2162,-1.2984,-1.3412,-1.3411,-1.2101,-1.0966,-1.0334,-0.9261,-0.8182,-0.7248,0.0,0.0,0.0,0.0,0.0,0.0,0.0,0.0,0.0,0.0,0.0,0.0,0.0,0.0,0.0,0.0,0.0,0.0,0.0,0.0,0.0,0.0,0.0,0.0,0.0,0.0,0.0,0.0,0.0,0.0,0.0,0.0,0.0,0.0,0.0,0.0,0.0,0.0,0.0,0.0,0.0,0.0,0.0,0.0,0.0,0.0,0.0,0.0,0.0,0.0,0.0,0.0,0.0,0.0,0.0,0.0,0.0,0.0,0.0,0.0,-0.5592,0.0,0.0,0.0,0.0,0.0,0.0,0.0,0.0,0.0,0.0,0.0,0.0,0.0,0.0,0.0,0.0,0.0,0.0,0.0,0.0,0.0,0.0,0.0,0.0,0.0,0.0,0.0,0.0,0.0,0.0,0.0,0.0,0.0,0.0,0.0,0.0,0.0,0.0,0.0,0.0,0.0,-1.2028,-1.2985,-1.3338,-1.2995,-1.2068,-1.112,-1.0059,-0.9131,-0.8182,-0.7248,-0.6348,0.0,0.0,0.0,0.0,0.0,0.0,0.0,0.0,0.0,0.0,0.0,0.0,0.0,0.0,0.0,0.0,0.0,0.0,0.0,0.0,0.0,0.0,0.0,0.0,0.0,0.0,0.0,0.0,0.0,0.0,0.0,0.0,0.0,0.0,0.0,0.0,0.0,0.0,0.0,0.0,0.0,0.0,0.0,0.0,0.0,0.0,0.0,0.0,0.0,0.0,0.0,0.0,0.0,0.0,0.0,0.0,0.0,0.0,0.0,0.0,-0.6145,0.0,0.0,0.0,0.0,0.0,0.0,0.0,0.0,0.0,0.0,0.0,0.0,0.0,0.0,0.0,0.0,0.0,0.0,0.0,0.0,0.0,0.0,0.0,0.0,0.0,0.0,0.0,0.0,0.0,0.0,0.0,0.0,0.0,0.0,0.0,0.0,0.0,0.0,0.0,0.0,-1.1196,-1.2227,-1.2725,-1.2598,-1.1868,-1.1061,-1.0274,-0.9254,-0.8377,-0.765,-0.678,0.0,0.0,0.0,0.0,0.0,0.0,0.0,0.0,0.0,0.0,0.0,0.0,0.0,0.0,0.0,0.0,0.0,0.0,0.0,0.0,0.0,0.0,0.0,0.0,0.0,0.0,0.0,0.0,0.0,0.0,0.0,0.0,0.0,0.0,0.0,0.0,0.0,0.0,0.0,0.0,0.0,0.0,0.0,0.0,0.0,0.0,0.0,0.0,0.0,0.0,0.0,0.0,0.0,-0.7722,-0.7907,-0.8247,-0.828,-0.8394,-0.8528,-0.7824,-0.7236,-0.6821,0.0,0.0,0.0,0.0,0.0,0.0,0.0,0.0,0.0,0.0,0.0,0.0,0.0,0.0,0.0,0.0,0.0,0.0,0.0,0.0,0.0,0.0,0.0,0.0,0.0,-0.7435,-0.7248,0.0,0.0,0.0,0.0,0.0,0.0,0.0,0.0,0.0,0.0,0.0,0.0,-1.0288,-1.1304,-1.192,-1.2098,-1.1517,-1.0935,-1.0369,-0.9372,-0.8576,-0.8004,-0.7188,-0.6501,0.0,0.0,0.0,0.0,0.0,0.0,0.0,0.0,0.0,0.0,0.0,0.0,0.0,0.0,0.0,0.0,0.0,0.0,0.0,0.0,0.0,0.0,0.0,0.0,0.0,0.0,0.0,0.0,0.0,0.0,0.0,0.0,-0.3657,-0.3829,0.0,0.0,0.0,0.0,0.0,0.0,0.0,0.0,0.0,0.0,0.0,0.0,0.0,-0.715,-0.7443,-0.7913,-0.8285,-0.8637,-0.8609,-0.8818,-0.9233,-0.934,-0.951,-0.9669,-0.9547,0.0,-0.8065,-0.7906,0.0,0.0,0.0,0.0,0.0,0.0,0.0,0.0,0.0,0.0,0.0,0.0,0.0,0.0,0.0,0.0,0.0,0.0,0.0,0.0,0.0,0.0,-0.8089,-0.8138,-0.8272,-0.8355,0.0,-0.7504,-0.6959,-0.6551,-0.6513,0.0,0.0,0.0,0.0,0.0,0.0,0.0,-0.9897,-1.0835,-1.1381,-1.1341,-1.1042,-1.0506,-0.9716,-0.9121,-0.8524,-0.7877,-0.7133,-0.6576,-0.6331,-0.5511,0.0,0.0,0.0,0.0,0.0,0.0,0.0,0.0,0.0,0.0,0.0,0.0,0.0,0.0,0.0,0.0,0.0,0.0,0.0,0.0,0.0,0.0,0.0,0.0,0.0,0.0,0.0,0.0,0.0,-0.392,-0.4385,-0.428,-0.4362,-0.4324,0.0,0.0,0.0,0.0,0.0,0.0,0.0,0.0,0.0,-0.7569,-0.8057,-0.8574,-0.9044,-0.9468,-0.9797,-1.003,-1.0055,-1.0185,-1.0408,-1.0485,-1.0566,-1.0635,-1.0635,-1.0314,-0.9734,-0.8946,-0.8369,-0.7935,0.0,0.0,0.0,0.0,-0.748,-0.759,-0.7878,-0.7858,0.0,-0.751,0.0,0.0,0.0,0.0,0.0,0.0,0.0,0.0,0.0,0.0,0.0,-0.8589,-0.8731,-0.8844,-0.8763,-0.8418,-0.7902,0.0,-0.7134,-0.6996,-0.644,0.0,0.0,0.0,0.0,-0.7971,-0.8927,-0.9737,-1.0199,-1.018,-1.0101,-0.98,-0.9303,-0.8971,-0.8645,-0.8282,-0.7668,-0.7126,-0.6737,-0.6092,-0.5474,0.0,0.0,0.0,0.0,0.0,0.0,0.0,0.0,0.0,0.0,0.0,0.0,0.0,0.0,0.0,0.0,0.0,0.0,0.0,0.0,0.0,0.0,0.0,0.0,0.0,0.0,0.0,0.0,-0.4538,-0.4989,-0.4907,-0.5064,-0.5039,0.0,0.0,0.0,0.0,0.0,0.0,-0.708,-0.733,-0.7923,-0.8932,-0.9251,-0.972,-1.0314,-1.0672,-1.0899,-1.1033,-1.1082,-1.1171,-1.1293,-1.1342,-1.1366,-1.1366,-1.1366,-1.1265,-1.1021,-0.9949,-0.9295,-0.8975,-0.8522,-0.8353,-0.843,-0.8475,-0.8491,-0.854,-0.8906,-0.8898,-0.8653,-0.8433,0.0,-0.7996,-0.7592,0.0,0.0,0.0,0.0,-0.8184,-0.8312,-0.8723,-0.9092,-0.9092,-0.9234,-0.9344,-0.925,-0.9125,-0.8775,0.0,-0.7683,-0.7435,-0.6863,0.0,0.0,0.0,0.0,-0.7655,-0.828,-0.8988,-0.9404,-0.9404,-0.9404,-0.9314,-0.9043,-0.8897,-0.8706,-0.8442,-0.8049,-0.7555,-0.7012,-0.651,-0.5955,-0.5326,0.0,0.0,0.0,0.0,0.0,0.0,0.0,0.0,0.0,0.0,0.0,0.0,0.0,0.0,0.0,0.0,0.0,0.0,0.0,0.0,0.0,0.0,0.0,0.0,0.0,0.0,0.0,0.0,0.0,-0.5865,-0.5929,0.0,0.0,0.0,0.0,-0.6457,-0.7031,-0.7575,-0.8206,-0.8696,-0.9132,-0.9462,-1.0032,-1.0395,-1.0591,-1.0992,-1.12,-1.1212,-1.1386,-1.148,-1.1492,-1.1667,-1.1748,-1.1748,-1.1748,-1.1646,-1.1427,-1.085,-1.0404,-1.0114,-0.9855,-0.9681,-0.9567,-0.973,-0.9791,-0.9819,-1.0065,-1.0012,-0.9803,-0.9782,-0.9319,-0.8759,-0.8735,-0.8491,0.0,0.0,-0.8881,-0.9072,-0.929,-0.9608,-0.9831,-0.9831,-1.0024,-1.0014,-0.9673,-0.9546,-0.9372,0.0,-0.8227,-0.7923,-0.7767,0.0,-0.722,-0.7403,-0.774,-0.8113,-0.8547,-0.9069,-0.9404,-0.9404,-0.9404,-0.9261,-0.8865,-0.8828,-0.8597,-0.8073,-0.7902,-0.7555,-0.7012,-0.6599,-0.6229,-0.5856,-0.5343,0.0,0.0,0.0,0.0,0.0,0.0,0.0,0.0,0.0,0.0,0.0,0.0,0.0,0.0,0.0,0.0,0.0,0.0,0.0,0.0,0.0,0.0,0.0,0.0,0.0,0.0,0.0,0.0,-0.642,-0.6589,0.0,-0.6993,-0.7112,-0.7379,-0.789,-0.8463,-0.8993,-0.9552,-0.9907,-1.0281,-1.0743,-1.0997,-1.1183,-1.137,-1.1599,-1.1683,-1.1744,-1.1931,-1.202,-1.2024,-1.2089,-1.2117,-1.2117,-1.2117,-1.2012,-1.1825,-1.1634,-1.1208,-1.0706,-1.0355,-1.027,-1.0306,-1.0257,-1.031,-1.04,-1.0355,-1.0294,-1.0201,-0.9961,-0.9636,-0.9292,-0.9292,-0.925,-0.9177,-0.9303,-0.9466,-0.962,-0.9677,-0.9931,-1.0114,-1.0114,-1.0163,-1.0147,-0.9847,-0.9705,-0.9518,-0.9192,-0.8877,-0.8653,-0.8471,-0.8247,-0.8109,-0.8212,-0.8381,-0.8621,-0.8877,-0.9271,-0.9441,-0.9214,-0.919,-0.9043,-0.8686,-0.8658,-0.8524,-0.8211,-0.8024,-0.7683,-0.7151,-0.6891,-0.6571,-0.6094,-0.5636,-0.5247,0.0,0.0,0.0,0.0,0.0,0.0,0.0,0.0,0.0,0.0,0.0,0.0,0.0,0.0,0.0,0.0,0.0,0.0,0.0,0.0,0.0,0.0,0.0,0.0,0.0,0.0,-0.6668,-0.697,-0.722,-0.7533,-0.7855,-0.7905,-0.82,-0.8912,-0.936,-0.9814,-1.0319,-1.0611,-1.0991,-1.1399,-1.1468,-1.1618,-1.1857,-1.1971,-1.1999,-1.2125,-1.2247,-1.2308,-1.2308,-1.2308,-1.2308,-1.2308,-1.2308,-1.2203,-1.2028,-1.2028,-1.1719,-1.1216,-1.098,-1.0956,-1.1045,-1.0928,-1.0919,-1.094,-1.0761,-1.0645,-1.0605,-1.0416,-1.0257,-1.0156,-1.0099,-1.0083,-1.0067,-1.0006,-1.0071,-1.0156,-1.0156,-1.0249,-1.0392,-1.0392,-1.0392,-1.0274,-1.003,-0.9888,-0.9738,-0.9494,-0.9259,-0.906,-0.8934,-0.882,-0.8792,-0.8792,-0.8893,-0.9043,-0.9169,-0.9445,-0.9514,-0.9214,-0.9133,-0.8978,-0.8678,-0.8645,-0.8506,-0.8215,-0.8028,-0.7687,-0.7155,-0.6996,-0.6702,-0.6278,-0.5823,-0.5437,-0.5106,0.0,0.0,0.0,0.0,0.0,0.0,0.0,0.0,0.0,0.0,0.0,0.0,0.0,0.0,0.0,0.0,0.0,0.0,0.0,0.0,0.0,0.0,0.0,-0.5789,-0.6552,-0.723,-0.7597,-0.7889,-0.8168,-0.8521,-0.8225,-0.8485,-0.945,-0.9766,-1.0089,-1.0415,-1.0944,-1.1224,-1.1224,-1.1407,-1.1675,-1.202,-1.2036,-1.2138,-1.2316,-1.232,-1.2324,-1.2324,-1.2324,-1.2324,-1.2324,-1.2324,-1.2219,-1.2048,-1.2048,-1.1947,-1.1792,-1.178,-1.1776,-1.1776,-1.1776,-1.1658,-1.1472,-1.1293,-1.1228,-1.1224,-1.1224,-1.1224,-1.1191,-1.1021,-1.1024,-1.0988,-1.0745,-1.0692,-1.0692,-1.0692,-1.0692,-1.0692,-1.0692,-1.0692,-1.0595,-1.029,-1.0212,-1.0054,-0.9697,-0.9348,-0.9116,-0.9116,-0.9116,-0.9116,-0.9116,-0.9302,0.0,-0.9412,-0.9518,-0.9559,-0.942,-0.9206,-0.9027,-0.8836,-0.8666,-0.8406,-0.8028,-0.7845,-0.7551,-0.7008,-0.6829,-0.6615,-0.6391,-0.5892,-0.5445,-0.5114,0.0,0.0,0.0,0.0,0.0,0.0,0.0,0.0,0.0,0.0,0.0,0.0,0.0,0.0,0.0,0.0,0.0,0.0,0.0,0.0,0.0,0.0,-0.6272,-0.6427,-0.7041,-0.7706,-0.833,-0.8574,-0.8838,-0.9272,-0.9395,-0.9691,-1.0174,-1.0532,-1.0759,-1.0944,-1.1143,-1.1224,-1.1224,-1.1533,-1.1748,-1.1845,-1.2223,-1.2442,-1.2495,-1.2629,-1.269,-1.269,-1.269,-1.269,-1.269,-1.269,-1.2588,-1.2418,-1.2418,-1.2316,-1.2134,-1.1878,-1.1776,-1.1776,-1.1776,-1.1658,-1.1492,-1.1443,-1.1334,-1.1224,-1.1224,-1.1224,-1.1191,-1.1021,-1.1024,-1.0988,-1.0745,-1.0692,-1.0692,-1.0692,-1.0692,-1.0692,-1.0692,-1.0692,-1.0595,-1.029,-1.0212,-1.0054,-0.9697,-0.9551,-0.9482,-0.9482,-0.9482,-0.9482,-0.9482,-0.9522,0.0,-0.9551,-0.9596,-0.9559,-0.942,-0.9359,-0.9157,-0.8844,-0.8666,-0.84,-0.7902,-0.7698,-0.7416,-0.7004,-0.6943,-0.6771,-0.6391,-0.6018,-0.5636,0.0,0.0,0.0,0.0,0.0,0.0,0.0,0.0,0.0,0.0,0.0,0.0,0.0,0.0,0.0,0.0,0.0,0.0,0.0,0.0,0.0,0.0,-0.6402,-0.6946,-0.7221,-0.7617,-0.8113,-0.8733,-0.8937,-0.9171,-0.9536,-0.972,-0.9976,-1.0412,-1.071,-1.0976,-1.1114,-1.1183,-1.1256,-1.1334,-1.1549,-1.1768,-1.1996,-1.2373,-1.2601,-1.2678,-1.2787,-1.277,-1.277,-1.277,-1.277,0.0,-1.277,-1.2735,-1.2628,-1.2628,-1.2462,0.0,0.0,0.0,0.0,0.0,-1.1813,-1.1711,-1.1638,-1.1545,-1.1455,-1.1455,-1.1455,-1.1407,-1.1155,-1.1025,-1.0915,-1.0655,-1.053,-1.0489,-1.0562,-1.0586,-1.0603,-1.0676,-1.0692,-1.0615,-1.0339,-1.0274,-1.0193,-0.9908,-0.9851,0.0,-0.975,-0.9673,-0.9579,-0.9579,-0.9579,-0.9579,-0.9579,-0.9579,-0.9587,-0.9482,-0.9449,-0.929,-0.8962,-0.8775,0.0,0.0,0.0,-0.7445,-0.7004,-0.6988,0.0,0.0,0.0,0.0,0.0,0.0,0.0,0.0,-0.5348,-0.5454,0.0,0.0,0.0,0.0,0.0,0.0,0.0,0.0,0.0,0.0,0.0,0.0,0.0,0.0,0.0,0.0,-0.6975,-0.7553,-0.7955,-0.8214,-0.8486,-0.8937,-0.91,-0.9298,-0.9596,-0.9639,-0.9796,-1.0212,-1.0538,-1.0823,-1.0981,0.0,0.0,0.0,0.0,-1.1821,-1.2304,-1.2499,-1.2674,-1.277,-1.277,-1.277,-1.277,-1.277,-1.277,-1.277,-1.277,-1.2743,-1.2596,-1.2596,-1.2507,-1.2361,-1.232,-1.2296,-1.2255,-1.2093,-1.2016,-1.1979,-1.1829,0.0,0.0,-1.1776,-1.1776,-1.1707,-1.1334,-1.1118,-1.0923,-1.0566,-1.0347,-1.0257,-1.042,-1.0411,-1.0505,-1.0655,-1.0692,-1.0643,-1.0419,-1.0383,-1.0379,-1.0249,-1.0212,-1.0155,-0.9916,-0.9758,-0.9648,-0.9579,-0.9579,-0.9579,-0.9579,-0.9579,-0.9579,-0.9579,0.0,0.0,-0.9116,-0.8926,-0.8589,-0.8048,-0.7894,-0.7575,-0.7069,-0.7049,-0.7049,-0.7049,-0.6842,-0.6731,-0.6751,-0.6585,-0.6712,-0.7025,-0.6331,-0.6209,0.0,0.0,0.0,0.0,0.0,0.0,0.0,0.0,0.0,0.0,0.0,0.0,0.0,0.0,0.0,-0.6702,-0.7224,-0.7712,-0.8163,-0.8455,-0.8791,-0.9242,-0.932,-0.9442,-0.9565,-0.9696,-0.9781,-0.9867,-1.021,-1.0581,-1.0981,-1.1149,-1.1383,-1.1719,-1.2,-1.2203,-1.2308,-1.2625,-1.28,-1.277,0.0,0.0,-1.277,-1.277,-1.277,-1.277,-1.277,-1.2816,-1.2783,-1.2783,-1.2763,-1.2706,-1.2418,-1.2215,-1.2077,-1.1978,-1.1943,-1.1821,-1.1788,-1.1776,-1.1776,-1.1776,-1.1776,-1.1707,-1.1334,-1.12,0.0,-1.0741,-1.0619,-1.0599,-1.0631,-1.0643,-1.0651,-1.0684,-1.0692,-1.0643,-1.0419,-1.0383,-1.0379,-1.0249,-1.0212,-1.0155,-0.9916,-0.9855,-0.9786,-0.9599,-0.9579,-0.9579,-0.9579,-0.9579,-0.9579,-0.9579,-0.9596,-0.9445,-0.9125,-0.8926,-0.8589,-0.8048,-0.7894,-0.7686,-0.7429,-0.7231,-0.7231,-0.742,-0.7056,-0.6925,-0.7032,-0.7181,-0.7311,-0.7305,-0.6937,-0.7053,0.0,0.0,0.0,0.0,0.0,0.0,0.0,0.0,0.0,0.0,0.0,-0.5487,-0.5667,0.0,-0.68,-0.7102,-0.7651,-0.8119,-0.8343,-0.8696,-0.9045,-0.9347,-0.9381,-0.9442,-0.9595,-0.9773,-0.9868,-0.9787,-1.0277,-1.0699,-1.1144,-1.1255,-1.1575,-1.204,-1.2215,-1.2349,-1.2434,-1.2702,-1.277,-1.277,-1.277,-1.277,-1.277,-1.277,-1.277,-1.277,-1.277,-1.277,-1.277,-1.277,-1.2783,-1.2682,-1.2507,-1.2377,-1.2276,-1.2097,-1.1975,-1.189,-1.1805,-1.1776,-1.1776,-1.1776,-1.1776,-1.1723,-1.1447,-1.1236,-1.1037,-1.0769,-1.0566,-1.0448,-1.0542,-1.0562,-1.0586,-1.0672,-1.0692,-1.0668,-1.0582,-1.0562,-1.0538,-1.0444,-1.0428,-1.0371,-1.0193,-1.016,-1.0038,-0.9681,-0.9579,-0.9579,-0.9579,-0.9579,-0.9579,-0.9579,-0.9579,-0.9518,-0.925,-0.8897,-0.854,-0.8174,-0.7983,-0.7845,-0.7752,-0.7668,-0.7593,-0.7593,-0.7501,-0.7423,-0.7394,-0.7629,-0.7801,-0.7847,-0.7708,-0.7755,0.0,0.0,0.0,0.0,0.0,0.0,0.0,0.0,-0.5182,-0.5542,-0.5888,-0.6217,-0.6396,-0.6989,-0.7446,-0.7489,-0.8031,-0.8462,-0.852,-0.8866,-0.9167,-0.932,-0.9391,-0.9486,-0.9635,-0.98,-0.986,-0.9821,-1.031,-1.0852,-1.1252,-1.1449,-1.1815,-1.2406,-1.2346,-1.2351,-1.2552,-1.2632,-1.2704,-1.2704,-1.277,-1.277,-1.277,-1.277,-1.277,-1.277,-1.277,-1.277,-1.277,-1.28,-1.2698,-1.262,-1.2487,-1.2458,-1.2426,-1.2138,-1.2008,-1.1959,-1.1825,-1.1776,-1.1776,-1.1776,-1.1776,-1.1744,-1.1553,-1.1301,-1.1033,-1.0846,-1.0586,-1.0396,-1.0509,-1.0542,-1.0566,-1.0668,-1.0692,-1.0692,-1.0692,-1.0692,-1.0692,-1.0692,-1.0692,-1.0635,-1.0411,-1.0383,-1.0209,-0.9754,-0.9677,-0.9665,-0.9583,-0.9579,-0.9579,-0.9579,-0.9579,-0.9555,-0.9416,-0.8947,-0.8552,-0.8402,-0.8223,-0.8105,-0.8069,-0.7982,-0.7862,-0.7741,-0.782,-0.7836,-0.775,-0.7955,-0.811,-0.8298,-0.8341,-0.8264,-0.1387,-0.225,-0.3411,-0.3997,-0.4581,-0.5133,0.0,0.0,-0.5827,-0.6296,-0.6495,-0.6712,-0.6947,-0.7224,-0.7502,-0.785,-0.815,-0.8384,-0.8648,-0.8845,-0.9018,-0.9217,-0.9418,-0.9639,-0.9785,-0.9683,-0.9712,-0.9761,-0.9988,-1.0454,-1.1229,-1.1595,-1.21,-1.271,-1.2451,-1.2328,-1.2343,-1.2363,-1.2375,-1.2375,-1.2638,-1.277,-1.277,-1.277,-1.277,-1.277,-1.277,-1.277,-1.2758,-1.2661,-1.2584,-1.2532,-1.2215,-1.2089,-1.2085,-1.2044,-1.1935,-1.1801,-1.1784,-1.1776,-1.1776,-1.1776,-1.1776,-1.1744,-1.1553,-1.1472,-1.1403,-1.1216,-1.1135,-1.1074,-1.0944,-1.0911,-1.0875,-1.0724,-1.0692,-1.0692,-1.0692,-1.0692,-1.0692,-1.0692,-1.0692,-1.0635,-1.0411,-1.0383,-1.0302,-0.9912,-0.9855,-0.9803,-0.9648,-0.9579,-0.9579,-0.9579,-0.9579,-0.9555,-0.9416,-0.9007,-0.8783,-0.8763,-0.8601,-0.8473,-0.8268,-0.787,-0.7704,-0.7882,-0.7538,-0.7522,-0.7888,-0.8098,-0.8194,-0.8213,-0.8444,-0.8567,-0.1777,-0.2665,-0.3801,-0.4498,-0.5372,-0.6115,-0.6396,-0.6482,-0.6685,-0.7054,-0.7316,-0.7473,-0.7594,-0.7858,-0.8052,0.0,-0.8448,-0.8672,-0.8706,-0.8991,-0.9154,-0.9042,-0.9215,-0.9401,-0.9551,-0.9591,-0.9635,-0.9693,-0.9998,-1.0401,-1.0971,-1.1276,-1.171,-1.2177,-1.2111,-1.1978,-1.1978,-1.1978,-1.1978,-1.1978,-1.2177,-1.2243,-1.2243,-1.2243,-1.2254,-1.2348,-1.2348,-1.2422,-1.2523,-1.2446,-1.2349,-1.2239,-1.2089,-1.1967,-1.1882,-1.1882,-1.1837,-1.1776,-1.1776,-1.1776,-1.1776,-1.1776,-1.1776,-1.176,-1.1687,-1.1585,-1.1484,-1.1407,-1.1305,-1.1204,-1.1135,-1.1041,-1.1008,-1.0871,-1.0769,-1.0692,-1.0692,-1.0692,-1.0692,-1.0692,-1.0692,-1.0668,-1.0599,-1.0586,-1.0461,-1.0151,-0.9953,-0.9823,-0.9648,-0.9579,-0.9579,-0.9579,-0.9579,-0.9555,-0.9416,-0.9265,-0.9043,-0.8832,-0.8751,-0.8633,-0.8502,-0.8139,-0.7922,-0.7886,-0.7752,-0.7654,-0.768,-0.8025,-0.8201,-0.8201,-0.8472,-0.8612,-0.2233,-0.3176,-0.4237,-0.5026,-0.6031,-0.6861,-0.7017,-0.7129,-0.7292,-0.7597,-0.7797,-0.7894,-0.7975,-0.818,-0.8303,-0.8326,-0.8635,-0.8866,-0.8835,-0.9113,-0.9239,-0.9025,-0.9018,-0.9076,-0.9184,-0.9408,-0.9564,-0.9605,-1.0025,-1.0471,-1.0788,-1.108,-1.138,-1.178,-1.1714,-1.1648,-1.1648,-1.1648,-1.1648,-1.1648,-1.178,-1.178,-1.1776,-1.1732,-1.1773,-1.1915,-1.18,-1.1908,-1.2051,-1.2,-1.19,-1.1777,-1.1668,-1.1634,-1.153,-1.153,-1.1651,-1.1776,-1.1776,-1.1776,-1.1776,-1.1776,-1.1776,-1.1776,-1.1776,-1.1683,-1.1577,-1.1577,-1.148,-1.1362,-1.1313,-1.1171,-1.1029,-1.1037,-1.0826,-1.0692,-1.0692,-1.0692,-1.0692,-1.0692,-1.0692,-1.0692,-1.0692,-1.0692,-1.057,-1.0164,-1.0046,-0.988,-0.9657,-0.9579,-0.9579,-0.9579,-0.9579,-0.9571,-0.9441,-0.9433,-0.929,-0.8986,-0.8922,-0.8795,-0.8625,-0.8346,-0.8053,-0.783,-0.7742,-0.7632,-0.7507,-0.7852,-0.8028,-0.8113,-0.8384,-0.8476,-0.2754,-0.3799,-0.4844,-0.5574,-0.6429,-0.7122,-0.7322,-0.7405,-0.7448,-0.7743,-0.7702,-0.7699,-0.7938,-0.7926,-0.7974,-0.8404,-0.8611,-0.8818,-0.9156,-0.9207,-0.9214,-0.9204,-0.8896,-0.8726,0.0,-0.913,-0.9449,-0.9598,-1.0025,-1.0471,-1.0788,-1.108,-1.138,-1.178,-1.1446,-1.1247,-1.1247,-1.1247,-1.1247,-1.1247,-1.1582,-1.178,-1.1773,-1.1674,-1.1599,-1.1584,-1.143,-1.1299,-1.1344,-1.1179,-1.1108,-1.1089,-1.0921,-1.0853,-1.0849,-1.0849,-1.122,-1.1776,-1.1776,-1.1776,-1.1776,-1.1776,-1.1776,-1.1776,-1.1776,-1.1772,-1.1768,-1.1768,-1.1764,-1.1719,-1.1537,-1.1354,-1.1175,-1.1009,-1.0826,-1.0692,-1.0692,-1.0692,-1.0692,-1.0692,-1.0692,-1.0692,-1.0692,-1.0692,-1.0516,-0.9902,-1.0056,-1.0026,-0.9673,-0.9579,-0.9579,-0.9579,-0.9579,-0.9575,-0.9571,-0.9458,-0.94,-0.9388,-0.9181,-0.8987,-0.8695,-0.8314,-0.7958,-0.772,-0.7303,-0.7234,-0.7507,-0.7507,-0.7635,-0.79,-0.8113,-0.8201,-0.3409,-0.4612,-0.5714,-0.632,-0.7002,-0.7624,-0.778,-0.7814,-0.7841,-0.7894,-0.7845,-0.7801,-0.7951,-0.7948,-0.8075,-0.8425,-0.8774,-0.9094,-0.9197,-0.9327,-0.9347,-0.9045,-0.8923,0.0,0.0,0.0,0.0,-0.9296,-0.9815,-1.0234,-1.0467,-1.0692,-1.092,-1.1052,-1.0916,-1.0853,-1.0853,-1.0853,-1.0853,-1.0853,-1.0986,-1.1052,-1.1049,-1.0996,-1.1055,-1.1051,-1.1,-1.0977,-1.0953,-1.0897,-1.0875,-1.0867,-1.0811,-1.0789,-1.0789,-1.0789,-1.0914,-1.116,-1.116,-1.116,-1.116,-1.116,-1.116,-1.116,-1.116,-1.116,-1.116,-1.116,-1.116,-1.1144,-1.1026,-1.08,-1.0574,-1.0521,-1.0295,-1.0088,-1.0088,-1.0088,-1.0088,-1.0088,-1.0088,-1.0088,-1.0088,-1.0312,-1.0338,-0.9994,-0.9725,-0.9465,-0.9347,-0.948,-0.9529,-0.9331,-0.948,-0.9579,-0.9579,-0.9571,-0.9486,-0.9412,-0.916,-0.893,-0.8711,-0.8242,-0.7887,-0.7685,-0.7455,-0.7289,-0.7231,-0.7415,-0.7551,-0.7635,-0.79,-0.7984,-0.4317,-0.551,-0.6591,-0.7001,-0.7553,-0.7987,-0.7978,-0.7988,-0.7961,-0.7853,-0.7668,-0.7553,-0.7651,-0.7628,-0.7746,-0.8252,-0.8699,-0.9105,-0.9268,-0.9452,-0.9503,-0.9211,-0.9083,-0.892,0.0,0.0,0.0,-0.9069,-0.9632,-1.0036,-1.0188,-1.0531,-1.0721,-1.0721,-1.0721,-1.0721,-1.0721,-1.0721,-1.0721,-1.0721,-1.0721,-1.0721,-1.0717,-1.0663,-1.0637,-1.0594,-1.0538,-1.0488,-1.0425,-1.0425,-1.0425,-1.0425,-1.0425,-1.0425,-1.0425,-1.0425,-1.0425,-1.0486,-1.0728,-1.0789,-1.0789,-1.0789,-1.0789,-1.0789,-1.0789,-1.0789,-1.0789,-1.0789,-1.0789,-1.0789,-1.0789,-1.0591,-1.0379,-1.0316,-1.0099,-0.9835,-0.9827,-0.9816,-0.9816,-0.9816,-0.9816,-0.9816,-0.9816,-0.9877,-0.9907,-0.9846,-0.9352,-0.9076,-0.9176,-0.9321,-0.9381,-0.9236,-0.943,-0.9579,-0.9579,-0.9579,-0.953,-0.9364,-0.9162,-0.8918,-0.8611,-0.8222,-0.7911,-0.7759,-0.7571,-0.7404,-0.726,-0.7444,-0.7538,-0.7538,-0.7806,-0.7892,-0.5429,-0.6567,-0.7513,-0.7669,-0.8019,-0.8231,-0.8035,-0.7988,-0.7894,-0.7638,-0.7326,-0.7061,0.0,0.0,-0.7119,-0.7857,-0.8418,-0.8876,-0.932,-0.952,-0.9618,0.0,0.0,0.0,0.0,0.0,0.0,-0.8895,0.0,-0.989,-0.999,-1.048,-1.0721,-1.0721,-1.0721,-1.0721,-1.0721,-1.0721,-1.0721,-1.0721,-1.0721,-1.0721,-1.0714,-1.0568,-1.0422,-1.0273,-1.0127,-0.9909,-0.9822,-0.9822,-0.9822,-0.9822,-0.9822,-0.9822,-0.9822,-0.9822,-0.9822,-0.9879,-1.0547,-1.0728,-1.0728,-1.0728,-1.0728,-1.0728,-1.0728,-1.0728,-1.0728,-1.0728,-1.0728,-1.0728,-1.0728,-1.061,-1.0395,-1.0295,-1.0132,-0.9909,-0.9806,-0.9765,-0.9761,-0.9761,-0.9761,-0.9761,-0.9761,-0.9468,-0.9259,-0.9466,-0.9048,-0.8794,-0.9027,-0.9137,-0.9187,-0.9187,-0.943,-0.9579,-0.9579,-0.9579,-0.948,-0.9236,-0.9187,-0.8935,-0.8432,-0.8248,-0.807,-0.7811,-0.7678,-0.7607,-0.76,-0.76,-0.76,-0.76,-0.7782,-0.7875,-0.6631,-0.7499,-0.8215,-0.8267,-0.8319,-0.831,-0.8221,-0.8035,-0.7753,-0.7297,-0.6929,-0.6644,0.0,0.0,0.0,-0.7746,-0.8386,0.0,-0.9334,-0.9605,0.0,-0.9622,0.0,-0.9503,-0.9133,-0.9201,0.0,0.0,-0.9547,-0.9937,-1.0209,-1.0538,-1.0721,-1.0721,-1.0721,-1.0721,-1.0721,-1.0721,-1.0721,-1.0721,-1.0721,-1.0721,-1.0717,-1.068,-1.0524,-1.028,-1.0239,-1.007,-0.9822,-0.9822,-0.9822,-0.9822,-0.9822,-0.9822,-0.9822,-0.9822,-0.9822,-0.9822,-1.0001,-1.0061,-1.0061,-1.0061,-1.0061,-1.0061,-1.0061,-1.0061,-1.0061,-1.0061,-1.0061,-1.0061,-1.0061,-0.9954,-0.9836,-0.9794,-0.9578,-0.937,-0.9388,-0.9234,-0.9103,-0.9103,-0.9103,-0.9213,-0.9434,-0.9237,-0.9099,-0.9369,-0.8986,-0.8727,-0.8805,-0.9041,-0.9133,-0.8928,-0.9327,-0.9579,-0.9579,-0.9579,-0.948,-0.9236,-0.9031,-0.873,-0.8432,-0.8149,-0.7979,-0.7814,-0.7777,-0.7706,-0.76,-0.76,-0.76,-0.76,-0.7644,-0.7691,-0.7245,-0.8027,-0.8652,-0.8516,-0.8421,-0.8296,-0.8035,-0.779,-0.7472,-0.6953,-0.6491,-0.6176,-0.6176,-0.6302,0.0,0.0,0.0,0.0,-0.9137,-0.9442,-0.9598,0.0,-0.9693,0.0,-0.9384,-0.9486,-0.9564,0.0,-0.9717,-0.9924,-1.0168,-1.0524,-1.0721,-1.0721,-1.0721,-1.0721,-1.0721,-1.0721,-1.0721,-1.0721,-1.0721,-1.0721,-1.0721,-1.0721,-1.0561,-1.028,0.0,-1.0107,-0.9822,-0.9822,-0.9822,-0.9822,-0.9822,-0.9822,-0.9822,-0.9822,-0.9822,-0.9822,-0.9822,-0.9822,-0.9822,-0.9822,-0.9822,-0.9822,-0.9822,-0.9822,-0.9822,-0.9822,-0.9822,-0.9822,-0.9822,-0.9764,-0.9686,-0.9625,-0.9479,-0.9337,-0.9323,-0.9191,-0.9113,-0.9045,-0.8981,-0.894,-0.9158,-0.9051,-0.894,-0.9158,-0.8917,-0.8705,-0.8692,-0.8987,-0.9041,-0.8786,-0.9176,-0.9381,-0.9274,-0.9225,-0.913,-0.8882,-0.873,-0.8478,-0.8233,-0.8088,-0.7948,-0.7913,-0.7913,-0.7872,-0.7794,-0.7794,-0.7794,-0.7794,-0.7794,-0.7794,-0.7571,-0.8294,-0.8814,-0.8584,-0.8482,-0.8303,-0.7729,-0.7434,-0.7156,-0.6549,-0.6027,-0.5718,-0.5739,-0.5867,-0.6182,-0.6947,0.0,-0.8391,-0.8818,-0.915,-0.9351,-0.9351,-0.9629,-0.9774,-0.9649,-0.9802,-0.9958,-1.0007,-0.9975,-0.9968,-1.0038,-1.0497,-1.0721,-1.0721,-1.0721,-1.0721,-1.0721,-1.0721,-1.0721,-1.0721,-1.0721,-1.0721,-1.0721,-1.0721,-1.0561,-1.028,0.0,0.0,-0.9822,-0.9822,-0.9822,-0.9822,-0.9822,-0.9822,-0.9822,-0.9822,-0.9822,-0.9822,-0.9822,-0.9822,-0.9822,-0.9822,-0.9822,-0.9822,-0.9822,-0.9822,-0.9822,-0.9822,-0.9822,-0.9822,-0.9822,-0.9822,-0.9788,-0.9666,-0.9625,-0.9571,-0.9442,-0.9395,-0.9344,-0.9265,-0.9066,-0.8967,-0.8967,-0.8895,-0.8885,-0.8885,-0.8825,-0.874,-0.874,-0.8933,-0.898,-0.8725,-0.8987,-0.9031,-0.8825,-0.8825,-0.8676,-0.8432,-0.8382,-0.8283,-0.7988,-0.7988,-0.7988,-0.7988,-0.7988,-0.7988,-0.7988,-0.7988,-0.7988,-0.7988,-0.7988,-0.7988,-0.7567,-0.8307,-0.8841,-0.8716,-0.8486,-0.8184,-0.7709,-0.7193,0.0,0.0,-0.5559,-0.5287,-0.5446,-0.5562,-0.5952,-0.6782,-0.7543,0.0,0.0,0.0,-0.9251,0.0,0.0,0.0,0.0,0.0,0.0,0.0,0.0,-1.0388,-1.0412,-1.0609,-1.0721,-1.0721,-1.0721,-1.0721,-1.0721,-1.0721,-1.0721,-1.0721,-1.0721,-1.0721,-1.0721,-1.0721,-1.0561,-1.028,-1.028,0.0,-0.9822,-0.9822,-0.9822,-0.9822,-0.9822,-0.9822,-0.9822,-0.9822,-0.9822,-0.9822,-0.9822,-0.9822,-0.9822,-0.9822,-0.9822,-0.9822,-0.9822,-0.9822,-0.9822,-0.9822,-0.9822,-0.9822,-0.9822,-0.9822,-0.9815,-0.9791,-0.9693,-0.9602,-0.9578,-0.9469,-0.9374,-0.9347,-0.9275,-0.9173,-0.9173,-0.9018,-0.8885,-0.8885,-0.8861,-0.8844,-0.8844,-0.879,-0.8776,-0.8725,-0.8779,-0.8874,-0.8825,-0.8825,-0.8676,-0.8432,-0.8382,-0.8283,-0.7988,-0.7988,-0.7988,-0.7988,-0.7988,-0.7988,-0.7988,-0.7988,-0.7988,-0.7988,-0.7988,-0.7988,-0.7494,-0.8274,-0.8811,-0.8557,-0.8313,-0.7921,-0.715,0.0,0.0,0.0,-0.4958,-0.4703,-0.4908,-0.5147,0.0,-0.6231,-0.7109,0.0,0.0,0.0,0.0,0.0,0.0,0.0,0.0,0.0,0.0,0.0,0.0,-1.0415,-1.0487,-1.0636,-1.0721,-1.0721,-1.0643,-1.0602,-1.0602,-1.0527,-1.049,-1.049,-1.049,-1.049,-1.049,-1.049,-1.0368,-1.0158,-1.0158,0.0,-0.9822,-0.9822,-0.9822,-0.9822,-0.9822,-0.9822,-0.9822,-0.9822,-0.9822,-0.9822,-0.9822,-0.9822,-0.9822,-0.9822,-0.9822,-0.9822,-0.9822,-0.9822,-0.9822,-0.9822,-0.9822,-0.9822,-0.9822,-0.9822,-0.9822,-0.9822,-0.9771,-0.972,-0.972,-0.9605,-0.95,-0.95,-0.9313,-0.921,-0.921,-0.9032,-0.8885,-0.8885,-0.8885,-0.8885,-0.8885,-0.8786,-0.8706,-0.8706,-0.8754,-0.8708,-0.856,-0.8428,-0.8333,-0.8187,-0.8187,-0.8137,-0.7988,-0.7988,-0.7988,-0.7988,-0.7988,-0.7988,-0.7988,-0.7988,-0.7988,-0.7988,-0.7988,-0.7988,-0.7226,-0.8192,-0.8777,-0.8384,-0.8106,-0.7614,-0.6551,-0.5915,0.0,-0.4749,-0.4211,-0.3958,-0.4204,-0.4581,-0.5,0.0,-0.6507,-0.7292,-0.7621,0.0,0.0,0.0,0.0,0.0,0.0,0.0,0.0,0.0,0.0,0.0,-1.0483,-1.0605,-1.0656,-1.0626,-1.051,-1.0446,-1.0446,-1.0337,-1.028,-1.028,-1.028,-1.028,-1.028,-1.028,-1.0195,-0.9987,-0.9987,0.0,0.0,-0.9822,-0.9822,-0.9822,-0.9822,-0.9822,-0.9822,-0.9822,-0.9822,-0.9822,-0.9822,-0.9822,-0.9822,-0.9822,-0.9822,-0.9822,-0.9822,-0.9822,-0.9822,-0.9822,-0.9822,-0.9822,-0.9822,-0.9822,-0.9822,-0.9822,-0.9822,-0.9822,-0.9822,-0.9734,-0.9656,-0.9656,-0.9435,-0.9299,-0.9265,-0.9083,-0.8974,-0.8888,-0.8885,-0.8885,-0.8885,-0.8832,-0.876,-0.876,-0.8703,-0.8556,-0.8323,-0.816,-0.8025,-0.7992,-0.7988,-0.7988,-0.7988,-0.7988,-0.7988,-0.7988,-0.7988,-0.7988,-0.7988,-0.7988,-0.7988,-0.7988,-0.7988,-0.7988,-0.6737,-0.795,-0.8777,-0.8384,-0.7953,-0.7358,-0.6297,0.0,-0.4435,-0.3843,-0.3256,-0.2975,-0.3431,-0.3733,-0.42,-0.5043,-0.5955,-0.6705,-0.7095,0.0,0.0,0.0,0.0,0.0,0.0,0.0,0.0,0.0,0.0,0.0,-1.0483,-1.0507,-1.0453,-1.0324,-1.0307,-1.03,-1.03,-1.0287,-1.028,-1.028,-1.028,-1.028,-1.028,-1.028,-1.0195,-0.9987,-0.9987,0.0,0.0,-0.9822,-0.9822,-0.9822,-0.9822,-0.9822,-0.9822,-0.9822,-0.9822,-0.9822,-0.9822,-0.9822,-0.9822,-0.9822,-0.9822,-0.9822,-0.9822,-0.9822,-0.9822,-0.9822,-0.9822,-0.9822,-0.9822,-0.9822,-0.9822,-0.9822,-0.9822,-0.9822,-0.9822,-0.9812,-0.9802,-0.9802,-0.9676,-0.9523,-0.9384,-0.9289,-0.9089,-0.8902,-0.8885,-0.8885,-0.8885,-0.8871,-0.8861,-0.8861,-0.8645,-0.8463,-0.8333,-0.8258,-0.8187,-0.7998,-0.7988,-0.7988,-0.7988,-0.7988,-0.7988,-0.7988,-0.7988,-0.7988,-0.7988,-0.7988,-0.7988,-0.7988,-0.7988,-0.7988,-0.6162,-0.7337,-0.8205,-0.7728,-0.7356,-0.6732,-0.5499,-0.4634,-0.3879,-0.3132,-0.2691,-0.2499,-0.279,-0.3247,-0.3748,-0.433,-0.5276,-0.6115,-0.6513,-0.7091,0.0,0.0,0.0,0.0,0.0,0.0,0.0,0.0,0.0,0.0,-1.0229,-1.0314,-1.0337,-1.0283,-1.0188,-1.0141,-1.0141,-1.0049,-1.0005,-1.0005,-1.0005,-1.0005,-1.0005,-1.0005,-0.9971,-0.9852,-0.9852,0.0,0.0,-0.9822,-0.9822,-0.9822,-0.9822,-0.9822,-0.9822,-0.9822,-0.9822,-0.9822,-0.9822,-0.9822,-0.9822,-0.9822,-0.9822,-0.9822,-0.9822,-0.9822,-0.9822,-0.9822,-0.9822,-0.9822,-0.9822,-0.9822,-0.9822,-0.9822,-0.9822,-0.9822,-0.9822,-0.9822,-0.9822,-0.9822,-0.9707,-0.9591,-0.953,-0.9313,-0.919,-0.9076,-0.8994,-0.8885,-0.8885,-0.8885,-0.8885,-0.8885,-0.8747,-0.8598,-0.854,-0.8452,-0.837,-0.8309,-0.8225,-0.8177,-0.8177,-0.8039,-0.7988,-0.7988,-0.7988,-0.7988,-0.7988,-0.7988,-0.7988,-0.7988,-0.7988,-0.8089,-0.5275,-0.6303,-0.7037,-0.6578,-0.62,-0.5648,-0.4505,-0.3766,-0.3121,-0.2439,-0.2049,-0.1877,-0.2102,-0.2569,-0.3105,-0.3617,-0.4605,-0.5465,-0.6046,-0.6691,0.0,0.0,0.0,0.0,0.0,0.0,0.0,0.0,0.0,0.0,0.0,-1.011,-1.0144,-1.0144,-1.0039,-0.992,-0.992,-0.9876,-0.9822,-0.9822,-0.9822,-0.9822,-0.9822,-0.9822,-0.9822,-0.9822,0.0,0.0,0.0,-0.97,-0.964,-0.964,-0.9579,-0.9518,-0.9518,-0.9518,-0.9518,-0.9518,-0.9518,-0.9518,-0.9518,-0.9518,-0.9518,-0.9518,-0.9518,-0.964,-0.9822,-0.9822,-0.9822,-0.9822,-0.9822,-0.9822,-0.9822,-0.9822,-0.9822,-0.9822,-0.9822,-0.9822,-0.9822,-0.9822,-0.9741,-0.9659,-0.9615,-0.9395,-0.9262,-0.9217,-0.9032,-0.8885,-0.8885,-0.8885,-0.8885,-0.8885,-0.8842,-0.876,-0.8713,-0.8611,-0.853,-0.8486,-0.8387,-0.8368,-0.8323,-0.8167,-0.8085,-0.7992,-0.7942,-0.7892,-0.7892,-0.7789,-0.7789,-0.7892,-0.7932,-0.8086,-0.4069,-0.4743,-0.5222,-0.485,-0.4494,-0.4055,-0.3369,-0.2658,-0.2029,-0.1673,-0.1232,-0.0982,-0.1262,-0.1597,-0.2088,-0.2865,-0.3848,-0.4853,-0.5774,-0.6603,0.0,0.0,0.0,0.0,0.0,0.0,0.0,0.0,0.0,0.0,0.0,-0.9845,-0.9825,-0.9825,-0.9825,-0.9822,-0.9822,-0.9822,-0.9822,-0.9822,-0.9822,-0.9822,-0.9822,-0.9822,-0.9822,0.0,0.0,0.0,0.0,-0.9457,-0.9275,-0.9278,-0.9037,-0.8915,-0.8915,-0.8915,-0.8915,-0.8915,-0.8915,-0.8915,-0.8915,-0.8915,-0.8915,-0.8915,-0.8915,-0.9339,-0.9822,-0.9822,-0.9822,-0.9822,-0.9822,-0.9822,-0.9822,-0.9822,-0.9822,-0.9822,-0.9822,-0.9822,-0.9822,-0.9822,-0.9819,-0.9774,-0.9635,-0.9483,-0.9327,-0.9231,-0.9032,-0.8885,-0.8885,-0.8885,-0.8885,-0.8885,-0.8881,-0.8821,-0.8723,-0.871,-0.8645,-0.8489,-0.8479,-0.8418,-0.8327,-0.832,-0.8197,-0.7992,-0.7746,-0.7596,-0.7596,-0.7341,-0.7341,-0.76,-0.7785,-0.813,-0.3334,-0.3925,-0.4347,-0.4121,-0.3871,-0.3461,-0.2799,-0.2229,-0.171,-0.1329,-0.1065,-0.0954,-0.1122,-0.1428,-0.1858,-0.2439,-0.325,-0.4086,0.0,0.0,0.0,0.0,0.0,0.0,0.0,0.0,0.0,0.0,0.0,0.0,0.0,-0.9846,-0.9822,-0.9822,-0.9822,-0.9822,-0.9822,-0.9822,-0.9822,-0.9822,-0.9822,-0.9822,-0.9822,-0.9822,0.0,0.0,0.0,0.0,0.0,-0.9457,-0.8906,-0.8291,-0.7986,-0.7434,-0.6881,-0.6881,-0.6881,-0.6881,-0.6881,-0.6881,-0.6881,-0.6881,-0.6881,-0.6881,-0.6881,-0.7925,-0.9217,-0.9396,-0.9457,-0.9518,-0.9761,-0.9822,-0.9822,-0.9822,-0.9822,-0.9822,-0.9822,-0.9822,-0.9822,-0.9822,-0.9822,-0.9805,-0.9761,-0.9547,-0.9364,-0.9317,-0.91,-0.8885,-0.8885,-0.8885,-0.8885,-0.8885,-0.8885,-0.8865,-0.8814,-0.8811,-0.8845,-0.8798,-0.8696,-0.8618,-0.8574,-0.8472,-0.8391,-0.8343,-0.8033,-0.7565,-0.699,-0.7148,-0.7361,-0.7629,-0.8184,-0.8541,-0.2315,-0.2698,-0.2974,-0.2843,-0.2662,-0.2422,-0.1966,-0.1639,-0.1341,-0.1073,-0.0954,-0.0926,-0.101,-0.1205,-0.1482,-0.1924,-0.2536,-0.3303,0.0,0.0,0.0,0.0,0.0,0.0,0.0,0.0,0.0,0.0,0.0,0.0,0.0,-0.9822,-0.9822,-0.9822,-0.97,-0.964,-0.964,-0.9518,-0.946,-0.946,-0.946,-0.946,-0.946,-0.946,0.0,0.0,0.0,0.0,0.0,-0.8851,-0.8172,-0.7495,-0.6886,-0.6211,-0.5533,-0.5533,-0.5533,-0.5533,-0.5533,-0.5533,-0.5533,-0.5533,-0.5533,-0.5533,-0.5533,-0.6761,-0.8238,-0.8659,-0.8906,-0.9217,-0.97,-0.9822,-0.9822,-0.9822,-0.9822,-0.9822,-0.9822,-0.9822,-0.9822,-0.9822,-0.9822,-0.9822,-0.9822,-0.9625,-0.9466,-0.9466,-0.9211,-0.9018,-0.9018,-0.8974,-0.8861,-0.8804,-0.8848,-0.8861,-0.8804,-0.8851,-0.8885,-0.8885,-0.8736,-0.8604,-0.8551,-0.8351,-0.8223,-0.8171,-0.7641,-0.7059,-0.6424,-0.6585,-0.6876,-0.7192,-0.8132,-0.8578,0.0,-0.1232,-0.1269,-0.1208,-0.1134,-0.1089,-0.1004,-0.0931,0.0,-0.0903,-0.0898,-0.0898,-0.0898,-0.0898,-0.1022,-0.1412,-0.182,0.0,0.0,0.0,0.0,0.0,0.0,0.0,0.0,0.0,0.0,0.0,0.0,0.0,0.0,-0.9761,-0.9761,-0.9761,-0.9335,-0.9153,-0.9214,-0.8912,-0.8729,-0.8668,-0.8668,-0.8668,-0.8668,-0.8668,0.0,0.0,0.0,0.0,0.0,-0.7627,-0.7013,-0.6582,-0.5604,-0.5051,-0.4681,-0.4681,-0.4681,-0.4681,-0.4681,-0.4681,-0.4681,-0.4681,-0.4681,-0.4681,-0.4681,-0.5661,-0.695,-0.7614,-0.8233,-0.8851,-0.9579,-0.9761,-0.9761,-0.9761,-0.9761,-0.9761,-0.9761,-0.9761,-0.9761,-0.9822,-0.9822,-0.9822,-0.9822,-0.9643,-0.9549,-0.9549,-0.9289,-0.9154,-0.9154,-0.8972,-0.8773,-0.8686,-0.8742,-0.8769,-0.8683,-0.8801,-0.8885,-0.8885,-0.8654,-0.843,-0.825,-0.7912,-0.7636,-0.7467,-0.6555,-0.5972,-0.5762,-0.5762,-0.5971,-0.6446,-0.7645,-0.8311,-0.0953,0.0,-0.1144,-0.1074,-0.1042,-0.1008,0.0,-0.0901,-0.0906,-0.0899,-0.0898,-0.0898,-0.0898,-0.0898,-0.1,-0.1302,-0.1628,-0.2195,0.0,0.0,0.0,0.0,0.0,0.0,0.0,0.0,0.0,0.0,0.0,0.0,0.0,-0.9095,-0.9095,-0.9095,-0.8302,-0.7991,-0.8227,-0.7925,-0.7373,-0.6634,-0.6634,-0.6634,-0.6634,-0.6634,0.0,0.0,0.0,0.0,-0.6573,-0.6086,-0.5351,-0.4551,-0.4063,-0.339,-0.2654,-0.2654,-0.2654,-0.2654,-0.2654,-0.2654,-0.2654,-0.2654,-0.2654,-0.2654,-0.2654,-0.4129,-0.5972,-0.6886,-0.7441,-0.7936,-0.8851,-0.9095,-0.9095,-0.9095,-0.9095,-0.9156,-0.9396,-0.9396,-0.9518,-0.9761,-0.9822,-0.9822,-0.9822,-0.9456,-0.9242,-0.9242,-0.8768,-0.842,-0.842,-0.8298,-0.8202,-0.8167,-0.8192,-0.8198,-0.8167,-0.864,-0.8885,-0.8885,-0.8654,-0.8137,-0.739,-0.7108,-0.6649,-0.5907,-0.4805,-0.4312,-0.4424,-0.4257,-0.4654,-0.5673,-0.6835,-0.7625,-0.0898,-0.0955,-0.1008,-0.0978,-0.0939,-0.093,-0.09,-0.0909,-0.0898,-0.0898,-0.0898,-0.0898,-0.0898,-0.0909,-0.0963,-0.1134,-0.1375,0.0,0.0,0.0,0.0,0.0,0.0,0.0,0.0,0.0,0.0,0.0,0.0,0.0,0.0,-0.7495,-0.7495,-0.7495,-0.6825,-0.6764,-0.7434,-0.6825,-0.6149,-0.541,-0.541,-0.541,-0.541,-0.5287,-0.5224,0.0,0.0,0.0,-0.5165,-0.4737,-0.4123,-0.3446,-0.2772,-0.2097,-0.1544,-0.1729,-0.1791,-0.1791,-0.1977,-0.1977,-0.1977,-0.1977,-0.1977,-0.1977,-0.1977,-0.2961,-0.425,-0.5228,-0.5906,-0.646,-0.7314,-0.7495,-0.7495,-0.7495,-0.7744,-0.8113,-0.8538,-0.8845,-0.9217,-0.97,-0.9822,-0.9822,-0.9822,-0.9452,-0.9036,-0.8609,-0.8083,-0.7552,-0.7087,-0.6883,-0.6761,-0.6712,-0.676,-0.6793,-0.6688,-0.7061,-0.7651,-0.8436,-0.7989,-0.7376,-0.6763,-0.6204,-0.5481,-0.4587,-0.3805,-0.336,-0.3418,-0.336,-0.3861,-0.4812,-0.6093,-0.6988,-0.0903,-0.0897,-0.0913,-0.0912,-0.0898,-0.0914,-0.0917,-0.0911,-0.0911,-0.0911,-0.0907,-0.0906,-0.0911,-0.0907,0.0,0.0,0.0,0.0,0.0,0.0,0.0,0.0,0.0,0.0,0.0,0.0,0.0,0.0,0.0,0.0,0.0,-0.5776,-0.5776,-0.5776,-0.5351,-0.5535,-0.6274,-0.5479,-0.4867,-0.4435,-0.4435,-0.4373,-0.4373,-0.4064,-0.3879,0.0,0.0,0.0,-0.3817,-0.3326,-0.2957,-0.2588,-0.1726,-0.1234,-0.105,-0.1297,-0.1482,-0.1544,-0.1915,-0.1977,-0.1977,-0.1977,-0.1977,-0.1977,-0.1977,-0.2222,-0.259,-0.3387,-0.4186,-0.4925,-0.5594,-0.5776,-0.5776,-0.5776,-0.6208,-0.6886,-0.7614,-0.8172,-0.879,-0.9518,-0.964,-0.964,-0.964,-0.9275,-0.8723,-0.7858,-0.7273,-0.6545,-0.565,-0.5377,-0.5242,-0.5118,-0.5206,-0.5167,-0.5041,-0.5155,-0.5922,-0.7376,-0.6821,-0.6265,-0.5815,-0.4925,-0.4091,-0.3363,-0.3026,-0.2802,-0.2581,-0.2802,-0.3193,-0.3807,-0.5258,-0.604,-0.0871,-0.0928,-0.0974,-0.0914,-0.0929,-0.098,-0.0975,-0.0974,-0.0974,-0.0974,-0.0954,-0.0915,-0.0969,-0.0999,-0.1005,0.0,0.0,0.0,0.0,0.0,0.0,0.0,0.0,0.0,0.0,0.0,0.0,0.0,0.0,0.0,0.0,-0.5047,-0.5047,-0.5047,-0.4433,-0.3942,-0.3632,-0.3756,-0.3329,-0.2469,-0.216,-0.2036,-0.2036,-0.1666,-0.1542,0.0,0.0,-0.1542,-0.1542,-0.1419,-0.1358,-0.1296,-0.1111,-0.105,-0.0988,-0.105,-0.1235,-0.1544,-0.1915,-0.1977,-0.1977,-0.1977,-0.1977,-0.1977,-0.1977,-0.2038,-0.2099,-0.2222,-0.3145,-0.4189,-0.4863,-0.5047,-0.5047,-0.5047,-0.5356,-0.591,-0.6827,-0.7319,-0.7875,-0.8854,-0.9037,-0.9037,-0.9037,-0.8302,-0.7566,-0.7133,-0.6194,-0.5352,-0.4931,-0.474,-0.4643,-0.4633,-0.463,-0.4641,-0.4575,-0.4639,-0.4758,-0.5037,-0.5144,-0.4698,-0.364,-0.2746,-0.2187,-0.2075,-0.2019,-0.1963,-0.1964,-0.1963,-0.2299,-0.2917,-0.3639,-0.4308,-0.0768,-0.0882,-0.0934,-0.0967,-0.1001,-0.1031,-0.1016,-0.1024,-0.1068,-0.1068,-0.1012,0.0,0.0,0.0,0.0,0.0,0.0,0.0,0.0,0.0,0.0,0.0,0.0,0.0,0.0,0.0,0.0,0.0,0.0,0.0,0.0,0.0,-0.3276,-0.3308,-0.2827,-0.2406,-0.2165,-0.2165,-0.1942,-0.1482,-0.1297,-0.1235,-0.1235,-0.0864,-0.0741,-0.0741,0.0,-0.0741,-0.0741,-0.0741,-0.0741,-0.0741,-0.0556,-0.0432,-0.0494,-0.0679,-0.0926,-0.1297,-0.1606,-0.1729,-0.1729,-0.1915,-0.1977,-0.1977,-0.1977,-0.1977,-0.1977,-0.1977,-0.2408,-0.2961,-0.3268,-0.333,-0.333,-0.333,-0.3699,-0.4313,-0.5105,-0.5661,-0.6276,-0.7128,-0.725,-0.725,-0.725,-0.6761,-0.609,-0.5412,-0.4711,-0.4022,-0.3355,-0.317,-0.3067,-0.3067,-0.3081,-0.3108,-0.3108,-0.3083,-0.3338,-0.398,-0.3976,-0.3527,-0.2635,-0.2075,-0.1795,-0.1795,-0.1795,-0.1795,-0.1795,-0.1795,-0.202,-0.2469,-0.3025,-0.3583,-0.0617,-0.0747,-0.0884,-0.0926,-0.1037,-0.1072,-0.1024,-0.1043,-0.1064,-0.1106,-0.1056,0.0,0.0,0.0,0.0,0.0,0.0,0.0,0.0,0.0,0.0,0.0,0.0,0.0,0.0,0.0,0.0,0.0,0.0,0.0,0.0,0.0,-0.1731,-0.1709,-0.1414,-0.1296,-0.1178,-0.1001,-0.0895,-0.0977,-0.0916,-0.0855,-0.0855,-0.055,-0.0366,-0.0366,-0.0366,-0.0366,-0.0367,-0.0368,-0.0369,-0.0369,-0.0123,0.0,-0.0062,-0.037,-0.0679,-0.0926,-0.1297,-0.1359,-0.142,-0.1667,-0.1791,-0.1853,-0.1853,-0.1915,-0.1977,-0.1977,-0.1977,-0.1977,-0.1977,-0.1977,-0.1977,-0.1977,-0.2469,-0.3021,-0.3632,-0.4247,-0.4863,-0.5533,-0.5653,-0.5653,-0.5653,-0.5349,-0.4737,-0.3939,-0.351,-0.2959,-0.2099,-0.195,-0.1871,-0.1871,-0.1904,-0.1883,-0.1876,-0.1853,-0.217,-0.3143,-0.2914,-0.2578,-0.2132,-0.1907,-0.1795,-0.1795,-0.1795,-0.1795,-0.1795,-0.1795,-0.1907,-0.2132,-0.2578,-0.2914,-0.0462,-0.0604,-0.072,-0.0788,-0.0954,-0.1082,-0.1109,-0.096,-0.0876,-0.1159,-0.105,0.0,0.0,0.0,0.0,0.0,0.0,0.0,0.0,0.0,0.0,0.0,0.0,0.0,0.0,0.0,0.0,0.0,0.0,0.0,0.0,0.0,0.0,-0.106,-0.106,-0.0884,-0.0589,-0.053,-0.0708,-0.1005,-0.0709,-0.0532,-0.0532,-0.0177,-0.0059,-0.0059,-0.0059,-0.0059,-0.0059,-0.006,-0.006,-0.0061,0.0,0.0,-0.0062,-0.037,-0.0494,-0.0556,-0.0926,-0.105,-0.105,-0.105,-0.1297,-0.1544,-0.1544,-0.1729,-0.1977,-0.1977,-0.1977,-0.1977,-0.1977,-0.1977,-0.1977,-0.1977,-0.2284,-0.2713,-0.3326,-0.3696,-0.4189,-0.4863,-0.4986,-0.4986,-0.4986,-0.4435,-0.3881,-0.3573,-0.2958,-0.2406,-0.2038,-0.195,-0.1871,-0.1871,-0.1904,-0.1874,-0.1788,-0.1784,-0.1827,-0.1909,-0.1907,-0.1851,-0.1851,-0.1795,-0.1795,-0.1795,-0.1795,-0.1795,-0.1795,-0.1795,-0.1795,-0.1851,-0.1851,-0.1907,-0.0395,-0.0566,-0.0743,-0.0895,-0.1008,-0.1093,-0.098,-0.0922,-0.0885,-0.103,-0.0878,-0.0802,0.0,0.0,0.0,0.0,0.0,0.0,0.0,0.0,0.0,0.0,0.0,0.0,0.0,0.0,0.0,0.0,0.0,0.0,0.0,0.0,0.0,-0.0915,-0.0743,-0.0571,-0.0457,-0.0286,-0.0229,-0.04,-0.0233,-0.0177,-0.0177,-0.0059,0.0,0.0,0.0,0.0,0.0,0.0,0.0,0.0,0.0,0.0,0.0,-0.0123,-0.0185,-0.0247,-0.0556,-0.0679,-0.0741,-0.0926,-0.1111,-0.1173,-0.1173,-0.1297,-0.142,-0.1606,-0.1667,-0.1729,-0.1977,-0.1977,-0.1977,-0.1977,-0.2099,-0.2222,-0.2468,-0.2653,-0.2776,-0.3022,-0.3085,-0.3085,-0.3085,-0.29,-0.2715,-0.2591,-0.2346,-0.216,-0.2038,-0.1967,-0.196,-0.196,-0.1932,-0.1902,-0.1871,-0.1851,-0.1827,-0.1797,-0.1795,-0.1795,-0.1795,-0.1795,-0.1795,-0.1795,-0.1795,-0.1795,-0.1795,-0.1795,-0.1795,-0.1795,-0.1795,-0.1795,-0.025,-0.0445,-0.062,-0.0737,-0.0883,-0.0944,-0.0768,-0.0778,-0.0815,-0.0883,-0.0767,-0.0685,-0.0861,0.0,0.0,0.0,0.0,0.0,0.0,0.0,0.0,0.0,0.0,0.0,0.0,0.0,0.0,0.0,0.0,0.0,0.0,0.0,0.0,0.0,-0.0393,-0.028,-0.028,-0.0112,0.0,0.0,0.0,0.0,0.0,0.0,0.0,0.0,0.0,0.0,0.0,0.0,0.0,0.0,0.0,0.0,0.0,0.0,0.0,-0.0062,-0.0247,-0.037,-0.037,-0.0617,-0.0741,-0.0864,-0.0864,-0.0926,-0.105,-0.1297,-0.1359,-0.142,-0.1729,-0.1915,-0.1977,-0.1977,-0.1977,-0.1977,-0.1977,-0.1977,-0.1977,-0.1977,-0.1977,-0.1977,-0.1977,-0.1977,-0.1977,-0.1977,-0.1977,-0.1977,-0.1977,-0.1977,-0.1977,-0.1977,-0.1949,-0.1919,-0.1888,-0.1857,-0.1827,-0.1797,-0.1795,-0.1795,-0.1795,-0.1795,-0.1795,-0.1795,-0.1795,-0.1795,-0.1795,-0.1795,-0.1795,-0.1795,-0.1795,-0.1795,0.0,-0.0191,-0.0386,-0.0314,-0.0505,-0.0617,-0.0369,-0.0472,-0.0617,-0.0689,-0.0706,-0.0711,-0.0697,-0.0706,0.0,0.0,0.0,0.0,0.0,0.0,0.0,0.0,0.0,0.0,0.0,0.0,0.0,0.0,0.0,0.0,0.0,0.0,0.0,0.0,0.0,0.0,0.0,0.0,0.0,0.0,0.0,0.0,0.0,0.0,0.0,0.0,0.0,0.0,0.0,0.0,0.0,0.0,0.0,0.0,0.0,0.0,0.0,0.0,0.0,0.0,0.0,0.0,-0.0247,-0.0494,-0.0494,-0.0741,-0.0988,-0.0988,-0.0988,-0.105,-0.142,-0.1729,-0.1977,-0.1977,-0.1977,-0.1977,-0.1977,-0.1977,-0.1977,-0.1977,-0.1977,-0.1977,-0.1977,-0.1977,-0.1977,-0.1977,-0.1977,-0.1977,-0.1977,-0.1977,-0.1977,-0.1977,-0.1949,-0.1919,-0.1888,-0.1857,-0.1827,-0.1797,-0.1795,-0.1795,-0.1795,-0.1795,-0.1795,-0.1795,-0.1795,-0.1795,-0.1795,-0.1795,-0.1795,-0.1795,-0.1795,-0.1795,-0.0315,-0.0375,-0.044,-0.0618,0.0,-0.0531,-0.0331,-0.0359,-0.0338,-0.0258,-0.0514,-0.0708,-0.0503,0.0,0.0,0.0,0.0,0.0,0.0,0.0,0.0,0.0,0.0,0.0,0.0,0.0,0.0,0.0,0.0,0.0,0.0,0.0,0.0,0.0,0.0,0.0,0.0,0.0,0.0,0.0,0.0,0.0,0.0,0.0,0.0,0.0,0.0,0.0,0.0,0.0,0.0,0.0,0.0,0.0,0.0,0.0,0.0,0.0,0.0,0.0,0.0,0.0,-0.0062,-0.0123,-0.0123,-0.0247,-0.037,-0.0556,-0.0679,-0.0741,-0.105,-0.1235,-0.142,-0.1915,-0.1977,-0.1977,-0.1977,-0.1977,-0.1977,-0.1977,-0.1977,-0.1977,-0.1977,-0.1977,-0.1977,-0.1977,-0.1977,-0.1977,-0.1977,-0.1977,-0.1977,-0.1977,-0.193,-0.1896,-0.1887,-0.1838,-0.1805,-0.1795,-0.1795,-0.1795,-0.1795,-0.1795,-0.1795,-0.1795,-0.1795,-0.1795,-0.1795,-0.1795,-0.1795,-0.1795,-0.1795,-0.1795,-0.026,-0.0297,0.0,-0.0442,-0.0446,-0.0326,-0.0228,0.0,0.0,0.0,-0.0269,-0.0423,-0.026,0.0,0.0,0.0,0.0,0.0,0.0,0.0,0.0,0.0,0.0,0.0,0.0,0.0,0.0,0.0,0.0,0.0,0.0,0.0,0.0,0.0,0.0,0.0,0.0,0.0,0.0,0.0,0.0,0.0,0.0,0.0,0.0,0.0,0.0,0.0,0.0,0.0,0.0,0.0,0.0,0.0,0.0,0.0,0.0,0.0,0.0,0.0,0.0,0.0,0.0,0.0,0.0,0.0,-0.0062,-0.0247,-0.0309,-0.037,-0.0741,-0.0803,-0.0988,-0.1667,-0.1791,-0.1853,-0.1977,-0.1977,-0.1977,-0.1977,-0.1977,-0.1977,-0.1977,-0.1977,-0.1977,-0.1977,-0.1977,-0.1977,-0.1977,-0.1977,-0.1972,-0.196,-0.1915,-0.1881,-0.1868,-0.1823,-0.1795,-0.1795,-0.1795,-0.1795,-0.1795,-0.1795,-0.1795,-0.1795,-0.1795,-0.1795,-0.1795,-0.1795,-0.1795,-0.1795,-0.1795,-0.1795,-0.0029,-0.0121,-0.016,-0.0071,-0.0119,0.0,-0.0052,0.0,0.0,0.0,0.0,0.0,0.0,0.0,0.0,0.0,0.0,0.0,0.0,0.0,0.0,0.0,0.0,0.0,0.0,0.0,0.0,0.0,0.0,0.0,0.0,0.0,0.0,0.0,0.0,0.0,0.0,0.0,0.0,0.0,0.0,0.0,0.0,0.0,0.0,0.0,0.0,0.0,0.0,0.0,0.0,0.0,0.0,0.0,0.0,0.0,0.0,0.0,0.0,0.0,0.0,0.0,0.0,0.0,0.0,0.0,0.0,0.0,0.0,-0.0062,-0.037,-0.0432,-0.0617,-0.1235,-0.142,-0.1544,-0.1853,-0.1915,-0.1915,-0.1977,-0.1977,-0.1977,-0.1977,-0.1977,-0.1977,-0.1977,-0.1977,-0.1977,-0.1977,-0.1974,-0.1962,-0.1934,-0.1902,-0.187,-0.1785,-0.1812,-0.1795,-0.1795,-0.1795,-0.1795,-0.1795,-0.1795,-0.1795,-0.1795,-0.1795,-0.1795,-0.1795,-0.1795,-0.1795,-0.1795,-0.1795,-0.1795,-0.0214,-0.0223,0.0,-0.0225,-0.0126,-0.0047,0.0,0.0,0.0,0.0,0.0,0.0,0.0,0.0,0.0,0.0,0.0,0.0,0.0,0.0,0.0,0.0,0.0,0.0,0.0,0.0,0.0,0.0,0.0,0.0,0.0,0.0,0.0,0.0,0.0,0.0,0.0,0.0,0.0,0.0,0.0,0.0,0.0,0.0,0.0,0.0,0.0,0.0,0.0,0.0,0.0,0.0,0.0,0.0,0.0,0.0,0.0,0.0,0.0,0.0,0.0,0.0,0.0,0.0,0.0,0.0,0.0,0.0,0.0,0.0,-0.0062,-0.0123,-0.0185,-0.0617,-0.0926,-0.1111,-0.1173,-0.1235,-0.1297,-0.1544,-0.1606,-0.1667,-0.1977,-0.1977,-0.1977,-0.1977,-0.1977,-0.1977,-0.1977,-0.1956,-0.1939,-0.1932,-0.1824,-0.179,-0.1784,-0.1812,-0.1795,-0.1795,-0.1795,-0.1795,-0.1795,-0.1795,-0.1795,-0.1795,-0.1795,-0.1795,-0.1795,-0.1795,-0.1795,-0.1795,-0.1795,-0.1795,-0.0152,0.0,0.0,-0.0162,0.0,0.0,0.0,0.0,0.0,0.0,0.0,0.0,0.0,0.0,0.0,0.0,0.0,0.0,0.0,0.0,0.0,0.0,0.0,0.0,0.0,0.0,0.0,0.0,0.0,0.0,0.0,0.0,0.0,0.0,0.0,0.0,0.0,0.0,0.0,0.0,0.0,0.0,0.0,0.0,0.0,0.0,0.0,0.0,0.0,0.0,0.0,0.0,0.0,0.0,0.0,0.0,0.0,0.0,0.0,0.0,0.0,0.0,0.0,0.0,0.0,0.0,0.0,0.0,0.0,0.0,0.0,0.0,-0.0062,-0.0247,-0.0494,-0.0803,-0.0988,-0.0988,-0.105,-0.1235,-0.1235,-0.1297,-0.1482,-0.1667,-0.1791,-0.1791,-0.1915,-0.1915,-0.1791,-0.184,-0.1941,-0.1913,-0.1881,-0.185,-0.1821,-0.1635,-0.157,-0.157,-0.157,-0.1514,-0.1402,-0.1627,-0.1795,-0.1795,-0.1795,-0.1795,-0.1795,-0.1627,-0.157,-0.157,-0.1402,-0.1346,0.0,0.0,0.0,0.0,0.0,0.0,0.0,0.0,0.0,0.0,0.0,0.0,0.0,0.0,0.0,0.0,0.0,0.0,0.0,0.0,0.0,0.0,0.0,0.0,0.0,0.0,0.0,0.0,0.0,0.0,0.0,0.0,0.0,0.0,0.0,0.0,0.0,0.0,0.0,0.0,0.0,0.0,0.0,0.0,0.0,0.0,0.0,0.0,0.0,0.0,0.0,0.0,0.0,0.0,0.0,0.0,0.0,0.0,0.0,0.0,0.0,0.0,0.0,0.0,0.0,0.0,0.0,0.0,0.0,0.0,0.0,0.0,0.0,0.0,-0.0185,-0.0494,-0.0741,-0.0803,-0.0864,-0.0926,-0.0988,-0.0988,-0.0988,-0.1235,-0.142,-0.142,-0.1667,-0.1729,-0.1544,-0.1664,-0.1827,-0.184,-0.1766,-0.1683,-0.1638,-0.1404,-0.1234,-0.1234,-0.1234,-0.1121,-0.0897,-0.1402,-0.1627,-0.1627,-0.1739,-0.1795,-0.1795,-0.1458,-0.129,-0.129,-0.1009,-0.0897,0.0,0.0,0.0,0.0,0.0,0.0,0.0,0.0,0.0,0.0,0.0,0.0,0.0,0.0,0.0,0.0,0.0,0.0,0.0,0.0,0.0,0.0,0.0,0.0,0.0,0.0,0.0,0.0,0.0,0.0,0.0,0.0,0.0,0.0,0.0,0.0,0.0,0.0,0.0,0.0,0.0,0.0,0.0,0.0,0.0,0.0,0.0,0.0,0.0,0.0,0.0,0.0,0.0,0.0,0.0,0.0,0.0,0.0,0.0,0.0,0.0,0.0,0.0,0.0,0.0,0.0,0.0,0.0,0.0,0.0,0.0,0.0,0.0,0.0,-0.0062,-0.0062,-0.0123,-0.0123,-0.0247,-0.0494,-0.0803,-0.0988,-0.0988,-0.105,-0.105,-0.105,-0.1111,-0.1235,-0.1482,-0.1221,-0.1148,-0.1444,-0.1232,-0.1037,-0.1032,-0.0961,-0.0953,-0.0953,-0.0953,-0.0953,-0.0897,-0.0953,-0.1009,-0.1009,-0.1514,-0.1795,-0.1795,-0.1458,-0.129,-0.129,-0.1009,-0.0897,0.0,0.0,0.0,0.0,0.0,0.0,0.0,0.0,0.0,0.0,0.0,0.0,0.0,0.0,0.0,0.0,0.0,0.0,0.0,0.0,0.0,0.0,0.0,0.0,0.0,0.0,0.0,0.0,0.0,0.0,0.0,0.0,0.0,0.0,0.0,0.0,0.0,0.0,0.0,0.0,0.0,0.0,0.0,0.0,0.0,0.0,0.0,0.0,0.0,0.0,0.0,0.0,0.0,0.0,0.0,0.0,0.0,0.0,0.0,0.0,0.0,0.0,0.0,0.0,0.0,0.0,0.0,0.0,0.0,0.0,0.0,0.0,0.0,0.0,0.0,0.0,0.0,0.0,-0.0062,-0.0185,-0.0309,-0.0494,-0.0679,-0.0741,-0.0741,-0.0741,-0.0864,-0.0988,-0.0926,-0.0921,-0.0975,-0.1087,-0.1005,-0.0871,-0.0921,-0.0736,-0.0617,-0.0617,-0.0617,-0.0561,-0.0393,-0.0729,-0.0785,-0.0617,-0.1065,-0.129,-0.129,-0.0953,-0.0785,-0.0785,-0.0505,-0.0393,0.006,0.0067,0.0037,0.0,0.0,0.0,0.0,0.0,0.0,0.0,0.0,0.0,0.0,0.0,0.0,0.0,0.0,0.0,0.0,0.0,0.0,0.0,0.0,0.0,0.0,0.0,0.0,0.0,0.0,0.0,0.0,0.0,0.0,0.0,0.0,0.0,0.0,0.0,0.0,0.0,0.0,0.0,0.0,0.0,0.0,0.0,0.0,0.0,0.0,0.0,0.0,0.0,0.0,0.0,0.0,0.0,0.0,0.0,0.0,0.0,0.0,0.0,0.0,0.0,0.0,0.0,0.0,0.0,0.0,0.0,0.0,0.0,0.0,0.0,0.0,0.0,0.0,0.0,0.0,0.0,0.0,-0.0062,-0.0309,-0.037,-0.037,-0.037,-0.0556,-0.0679,-0.0494,-0.0617,-0.0738,-0.079,-0.0715,-0.0645,-0.0695,-0.0454,-0.028,-0.028,-0.028,-0.0224,0.0,-0.0449,-0.0561,-0.028,-0.0561,-0.0729,-0.0897,-0.0561,-0.0393,-0.0393,-0.0112,0.0,0.023,0.019,0.0174,0.0039,0.0,0.0,0.0,0.0,0.0,0.0,0.0,0.0,0.0,0.0,0.0,0.0,0.0,0.0,0.0,0.0,0.0,0.0,0.0,0.0,0.0,0.0,0.0,0.0,0.0,0.0,0.0,0.0,0.0,0.0,0.0,0.0,0.0,0.0,0.0,0.0,0.0,0.0,0.0,0.0,0.0,0.0,0.0,0.0,0.0,0.0,0.0,0.0,0.0,0.0,0.0,0.0,0.0,0.0,0.0,0.0,0.0,0.0,0.0,0.0,0.0,0.0,0.0,0.0,0.0,0.0,0.0,0.0,0.0,0.0,0.0,0.0,0.0,0.0,0.0,0.0,0.0,0.0,0.0,0.0,0.0,0.0,-0.0062,-0.0185,-0.0432,-0.0247,-0.0185,-0.0493,-0.024,-0.0059,-0.0059,-0.0057,0.0,0.0,0.0,0.0,0.0,-0.0056,-0.0056,0.0,-0.0056,-0.0336,-0.0897,-0.0561,-0.0393,-0.0393,-0.0112,0.0,0.0513,0.0439,0.0,0.007,0.0,0.0,0.0,0.0,0.0,0.0,0.0,0.0,0.0,0.0,0.0,0.0,0.0,0.0,0.0,0.0,0.0,0.0,0.0,0.0,0.0,0.0,0.0,0.0,0.0,0.0,0.0,0.0,0.0,0.0,0.0,0.0,0.0,0.0,0.0,0.0,0.0,0.0,0.0,0.0,0.0,0.0,0.0,0.0,0.0,0.0,0.0,0.0,0.0,0.0,0.0,0.0,0.0,0.0,0.0,0.0,0.0,0.0,0.0,0.0,0.0,0.0,0.0,0.0,0.0,0.0,0.0,0.0,0.0,0.0,0.0,0.0,0.0,0.0,0.0,0.0,0.0,0.0,0.0,0.0,0.0,0.0,0.0,-0.0062,-0.0185,-0.0062,-0.0062,-0.0185,-0.0061,0.0,0.0,0.0,0.0,0.0,0.0,0.0,0.0,0.0,0.0,0.0,0.0,-0.0115,-0.0336,-0.0224,-0.0168,-0.0168,-0.0056,0.0,0.0836,0.0703,0.0,0.0,0.0,0.0,0.0,0.0,0.0,0.0,0.0,0.0,0.0,0.0,0.0,0.0,0.0,0.0,0.0,0.0,0.0,0.0,0.0,0.0,0.0,0.0,0.0,0.0,0.0,0.0,0.0,0.0,0.0,0.0,0.0,0.0,0.0,0.0,0.0,0.0,0.0,0.0,0.0,0.0,0.0,0.0,0.0,0.0,0.0,0.0,0.0,0.0,0.0,0.0,0.0,0.0,0.0,0.0,0.0,0.0,0.0,0.0,0.0,0.0,0.0,0.0,0.0,0.0,0.0,0.0,0.0,0.0,0.0,0.0,0.0,0.0,0.0,0.0,0.0,0.0,0.0,0.0,0.0,0.0,0.0,0.0,0.0,0.0,0.0,0.0,0.0,0.0,0.0,0.0,0.0,0.0,0.0,0.0,0.0,0.0,0.0,0.0,0.0,0.0,0.0,0.0,0.0,0.0,0.0,0.0,0.0,0.0,0.0,0.0,0.0,0.0,0.0,0.0,0.0,0.0,0.0,0.0,0.0,0.0,0.0,0.0,0.0,0.0,0.0,0.0,0.0,0.0,0.0,0.0,0.0,0.0,0.0,0.0,0.0,0.0,0.0,0.0,0.0,0.0,0.0,0.0,0.0,0.0,0.0,0.0,0.0,0.0,0.0,0.0,0.0,0.0,0.0,0.0,0.0,0.0,0.0,0.0,0.0,0.0,0.0,0.0,0.0,0.0,0.0,0.0,0.0,0.0,0.0,0.0,0.0,0.0,0.0,0.0,0.0,0.0,0.0,0.0,0.0,0.0,0.0,0.0,0.0,0.0,0.0,0.0,0.0,0.0,0.0,0.0,0.0,0.0,0.0,0.0,0.0,0.0,0.0,0.0,0.0,0.0,0.0,0.0,0.0,0.0,0.0,0.0,0.0,0.0,0.0,0.0,0.0,0.0,0.0,0.0,0.0,0.0,0.0,0.0,0.0,0.0,0.1958,0.0,0.0,0.0,0.0,0.0,0.0,0.0,0.0,0.0,0.0,0.0,0.0,0.0,0.0,0.0,0.0,0.0,0.0,0.0,0.0,0.0,0.0,0.0,0.0,0.0,0.0,0.0,0.0,0.0,0.0,0.0,0.0,0.0,0.0,0.0,0.0,0.0,0.0,0.0,0.0,0.0,0.0,0.0,0.0,0.0,0.0,0.0,0.0,0.0,0.0,0.0,0.0,0.0,0.0,0.0,0.0,0.0,0.0,0.0,0.0,0.0,0.0,0.0,0.0,0.0,0.0,0.0,0.0,0.0,0.0,0.0,0.0,0.0,0.0,0.0,0.0,0.0,0.0,0.0,0.0,0.0,0.0,0.0,0.0,0.0,0.0,0.0,0.0,0.0,0.0,0.0,0.0,0.0,0.0,0.0,0.0,0.0,0.0,0.0,0.0,0.0,0.0,0.0,0.0,0.0,0.0,0.0,0.0,0.0,0.0,0.0,0.2446,0.2291,0.2034,0.0,0.0,0.0,0.0,0.0733,0.0,0.0,0.0,0.0,0.0,0.0,0.0,0.0,0.0,0.0,0.0,0.0,0.0,0.0,0.0,0.0,0.0,0.0,0.0,0.0,0.0,0.0,0.0,0.0,0.0,0.0,0.0,0.0,0.0,0.0,0.0,0.0,0.0,0.0,0.0,0.0,0.0,0.0,0.0,0.0,0.0,0.0,0.0,0.0,0.0,0.0,0.0,0.0,0.0,0.0,0.0,0.0,0.0,0.0,0.0,0.0,0.0,0.0,0.0,0.0,0.0,0.0,0.0,0.0,0.0,0.0,0.0,0.0,0.0,0.0,0.0,0.0,0.0,0.0,0.0,0.0,0.0,0.0,0.0,0.0,0.0,0.0,0.0,0.0,0.0,0.0,0.0,0.0,0.0,0.0,0.0,0.0,0.0,0.0,0.0,0.0,0.0,0.0,0.0,0.0,0.0,0.0,0.0,0.0,0.2845,0.2702,0.2537,0.2239,0.0,0.0,0.1438,0.1255,0.0,0.0,0.0,0.0,0.0,0.0,0.0,0.0,0.0,0.0,0.0,0.0,0.0,0.0,0.0,0.0,0.0,0.0,0.0,0.0,0.0,0.0,0.0,0.0,0.0,0.0,0.0,0.0,0.0,0.0,0.0,0.0,0.0,0.0,0.0,0.0,0.0,0.0,0.0,0.0,0.0,0.0,0.0,0.0,0.0,0.0,0.0,0.0,0.0,0.0,0.0,0.0,0.0,0.0,0.0,0.0,0.0,0.0,0.0,0.0,0.0,0.0,0.0,0.0,0.0,0.0,0.0,0.0,0.0,0.0,0.0,0.0,0.0,0.0,0.0,0.0,0.0,0.0,0.0,0.0,0.0,0.0,0.0,0.0,0.0,0.0,0.0,0.0,0.0,0.0,0.0,0.0,0.0,0.0,0.0,0.0,0.0,0.0,0.0,0.0,0.0,0.0,0.0,0.0,0.3567,0.34,0.3232,0.3271,0.0,0.0,0.2292,0.2035,0.0,0.0,0.0,0.0,0.0,0.0,0.0,0.0,0.0,0.0,0.0,0.0,0.0,0.0,0.0,0.0,0.0,0.0,0.0,0.0,0.0,0.0,0.0,0.0,0.0,0.0,0.0,0.0,0.0,0.0,0.0,0.0,0.0,0.0,0.0,0.0,0.0,0.0,0.0,0.0,0.0,0.0,0.0,0.0,0.0,0.0,0.0,0.0,0.0,0.0,0.0,0.0,0.0,0.0,0.0,0.0,0.0,0.0,0.0,0.0,0.0,0.0,0.0,0.0,0.0,0.0,0.0,0.0,0.0,0.0,0.0,0.0,0.0,0.0,0.0,0.0,0.0,0.0,0.0,0.0,0.0,0.0,0.0,0.0,0.0,0.0,0.0,0.0,0.0,0.0,0.0,0.0,0.0,0.0,0.0,0.0,0.0,0.0,0.0,0.0,0.0,0.0,0.0,0.0,0.3827,0.3757,0.3653,0.3599,0.0,0.0,0.0,0.0,0.2254,0.0,0.0,0.0,0.0,0.0,0.0,0.0,0.0,0.0,0.0,0.0,0.0,0.0,0.0,0.0,0.0,0.0,0.0,0.0,0.0,0.0,0.0,0.0,0.0,0.0,0.0,0.0,0.0,0.0,0.0,0.0,0.0,0.0,0.0,0.0,0.0,0.0,0.0,0.0,0.0,0.0,0.0,0.0,0.0,0.0,0.0,0.0,0.0,0.0,0.0,0.0,0.0,0.0,0.0,0.0,0.0,0.0,0.0,0.0,0.0,0.0,0.0,0.0,0.0,0.0,0.0,0.0,0.0,0.0,0.0,0.0,0.0,0.0,0.0,0.0,0.0,0.0,0.0,0.0,0.0,0.0,0.0,0.0,0.0,0.0,0.0,0.0,0.0,0.0,0.0,0.0,0.0,0.0,0.0,0.0,0.0,0.0,0.0,0.0,0.0,0.0,0.0,0.0,0.0,0.0,0.0,0.0,0.0,0.336,0.0,0.0,0.0,0.258,0.0,0.0,0.0,0.0,0.0,0.0,0.0,0.0,0.0,0.0,0.0,0.0,0.0,0.0,0.0,0.0,0.0,0.0,0.0,0.0,0.0,0.0,0.0,0.0,0.0,0.0,0.0,0.0,0.0,0.0,0.0,0.0,0.0,0.0,0.0,0.0,0.0,0.0,0.0,0.0,0.0056,0.0056,0.0,0.0,0.0,0.0,0.0,0.0,0.0,0.0,0.0,0.0,0.0,0.0,0.0,0.0,0.0,0.0,0.0,0.0,0.0,0.0,0.0,0.0,0.0,0.0,0.0,0.0,0.0,0.0,0.0,0.0,0.0,0.0,0.0,0.0,0.0,0.0,0.0,0.0,0.0,0.0,0.0,0.0,0.0,0.0,0.0,0.0,0.0,0.0,0.0,0.0,0.0,0.0,0.0,0.0,0.0,0.0,0.0,0.0,0.0,0.0,0.0,0.0,0.0,0.0,0.3895,0.0,0.0,0.0,0.3477,0.3462,0.0,0.0,0.0,0.0,0.0,0.0,0.0,0.0,0.0,0.0,0.0,0.0,0.0,0.0,0.0,0.0,0.0,0.0,0.0,0.0,0.0,0.0,0.0,0.0,0.0,0.0,0.0,0.0,0.0,0.0,0.0,0.0,0.0,0.0,0.0,0.0,0.0,0.0,0.0,0.0,0.0112,0.0336,0.0112,0.0,0.0,0.0,0.0,0.0,0.0,0.0,0.0,0.0,0.0,0.0,0.0,0.0,0.0,0.0,0.0,0.0,0.0,0.0,0.0,0.0,0.0,0.0,0.0,0.0,0.0,0.0,0.0,0.0,0.0,0.0,0.0,0.0,0.0,0.0,0.0,0.0,0.0,0.0,0.0,0.0,0.0,0.0,0.0,0.0,0.0,0.0,0.0,0.0,0.0,0.0,0.0,0.0,0.0,0.0,0.0,0.0,0.0,0.0,0.0,0.0,0.0,0.0,0.0,0.0,0.3626,0.0,0.363,0.0,0.0,0.0,0.0,0.0,0.0,0.0,0.0,0.0,0.0,0.0,0.0,0.0,0.0,0.0,0.0,0.0,0.0,0.0,0.0,0.0,0.0,0.0,0.0,0.0,0.0,0.0,0.0,0.0,0.0,0.0,0.0,0.0,0.0,0.0,0.0,0.0,0.0,0.0,0.0,0.0,0.0168,0.0449,0.0896,0.084,0.0507,0.0524,0.053,0.0473,0.0366,0.0309,0.0247,0.0062,0.0,0.0,0.0,0.0,0.0,0.0,0.0,0.0,0.0,0.0,0.0,0.0,0.0,0.0,0.0,0.0,0.0,0.0,0.0,0.0,0.0,0.0,0.0,0.0,0.0,0.0,0.0,0.0,0.0,0.0,0.0,0.0,0.0,0.0,0.0,0.0,0.0,0.0,0.0,0.0,0.0,0.0,0.0,0.0,0.0,0.0,0.0,0.0,0.0,0.0,0.4797,0.0,0.0,0.0,0.0,0.0,0.0,0.0,0.0,0.0,0.0,0.0,0.0,0.0,0.0,0.0,0.0,0.0,0.0,0.0,0.0,0.0,0.0,0.0,0.0,0.0,0.0,0.0,0.0,0.0,0.0178,0.0187,0.0192,0.0192,0.0197,0.02,0.02,0.0153,0.0155,0.0206,0.016,0.0163,0.0272,0.0222,0.0224,0.0224,0.0168,0.0224,0.0336,0.0336,0.0673,0.1233,0.2072,0.224,0.1968,0.1745,0.159,0.1361,0.1038,0.0679,0.0309,0.0062,0.0,0.0,0.0,0.0,0.0,0.0,0.0,0.0,0.0,0.0,0.0,0.0,0.0,0.0,0.0,0.0,0.0,0.0,0.0,0.0,0.0,0.0,0.0,0.0,0.0,0.0,0.0,0.0,0.0,0.0,0.0,0.0,0.0,0.0,0.0,0.0,0.0,0.0,0.0,0.0,0.0,0.0,0.0,0.0,0.0,0.0,0.0,0.0,0.0,0.0,0.0,0.0,0.0,0.4355,0.0,0.0,0.0,0.0,0.3807,0.0,0.0,0.0,0.0,0.0,0.3812,0.3812,0.0,0.0,0.0,0.0,0.0,0.0,0.0,0.0,0.0,0.0,0.0,0.0,0.0,0.0,0.057,0.0652,0.0675,0.0675,0.0763,0.0786,0.0786,0.0501,0.0506,0.0759,0.0525,0.0534,0.0855,0.0884,0.0897,0.0841,0.0505,0.0729,0.1234,0.1234,0.1962,0.3081,0.3695,0.4252,0.466,0.3949,0.3293,0.266,0.2135,0.1111,0.0,0.0,0.0,0.0,0.0,0.0,0.0,0.0,0.0,0.0,0.0,0.0,0.0,0.0,0.0,0.0,0.0,0.0,0.0,0.0,0.0,0.0,0.0,0.0,0.0,0.0,0.0,0.0,0.0,0.0,0.0,0.0,0.0,0.0,0.0,0.0,0.0,0.0,0.0,0.0,0.0,0.0,0.0,0.0,0.0,0.0,0.0,0.0,0.0,0.0,0.0,0.0,0.0,0.0,0.4836,0.4629,0.0,0.0,0.0,0.0,0.0,0.0,0.0,0.0,0.0,0.0,0.4088,0.4007,0.3857,0.0,0.0,0.0,0.0,0.0,0.0,0.0,0.0,0.0,0.0,0.0,0.0,0.0,0.0,0.182,0.1943,0.2015,0.2187,0.2107,0.1716,0.1349,0.1161,0.1061,0.1414,0.1757,0.2078,0.2921,0.3078,0.2631,0.2126,0.2015,0.2241,0.224,0.2798,0.3807,0.5029,0.5753,0.6002,0.5278,0.4581,0.3897,0.2744,0.1481,0.0309,0.0309,0.0185,0.0,0.0,0.0,0.0,0.0,0.0,0.0,0.0,0.0,0.0,0.0,0.0,0.0,0.0,0.0,0.0,0.0,0.0,0.0,0.0,0.0,0.0,0.0,0.0,0.0,0.0,0.0,0.0,0.0,0.0,0.0,0.0,0.0,0.0,0.0,0.0,0.0,0.0,0.0,0.0,0.0,0.0,0.0,0.0,0.0,0.0,0.0,0.0,0.0,0.5421,0.5227,0.0,0.4871,0.4638,0.0,0.4089,0.0,0.0,0.0,0.0,0.0,0.0,0.0,0.0,0.4324,0.403,0.3757,0.0,0.0,0.0,0.0,0.0,0.0,0.0,0.0,0.201,0.211,0.2117,0.0,0.0,0.0,0.2759,0.2932,0.3184,0.3054,0.262,0.2141,0.1917,0.192,0.2301,0.2765,0.3247,0.4347,0.4528,0.4027,0.3412,0.3301,0.3473,0.3467,0.4081,0.5091,0.6422,0.7091,0.7287,0.6779,0.6144,0.5268,0.373,0.2342,0.1172,0.0802,0.037,0.0,0.0,0.0,0.0,0.0,0.0,0.0,0.0,0.0,0.0,0.0,0.0,0.0,0.0,0.0,0.0,0.0,0.0,0.0,0.0,0.0,0.0,0.0,0.0,0.0,0.0,0.0,0.0,0.0,0.0,0.0,0.0,0.0,0.0,0.0,0.0,0.0,0.0,0.0,0.0,0.0,0.0,0.0,0.0,0.0,0.0,0.0,0.0,0.0]}]]